[[{"header":{"parameterUnit":"m.s-1","parameterCategory":1,"la1":31.0,"la2":29.5877,"lo1":-88.7671,"lo2":-86.6584,"dy":0.0162,"dx":0.0185,"nx":115,"ny":88,"refTime":"2023-08-15T06:00:00:Z","depth":0,"parameterNumber":2,"parameterNumberName":"U-component_of_WINDS"},"data":[0.0,0.0,0.0,0.0,0.0,0.0,0.0,0.0,0.0,0.0,0.0,0.0,0.0,0.0,0.0,0.0,0.0,0.0,0.0,0.0,0.0,0.0,0.0,0.0,0.0,0.0,0.0,0.0,0.0,0.0,0.0,0.0,0.0,0.0,0.0,0.0,0.0,0.0,0.0,0.0,0.0,0.0,0.0,0.0,0.0,0.0,0.0,0.0,0.0,0.0,0.0,0.0,0.0,0.0,0.0,0.0,0.0,0.0,0.0,0.0,0.0,0.0,0.0,0.0,0.0,0.0,0.0,0.0,0.0,0.0,0.0,0.0,0.0,0.0,0.0,0.0,0.0,0.0,0.0,0.0,0.0,0.0,0.0,0.0,0.0,0.0,0.0,0.0,0.0,0.0,0.0,0.0,0.0,0.0,0.0,0.0,0.0,0.0,0.0,0.0,0.0,0.0,0.0,0.0,0.0,0.0,0.0,0.0,0.0,0.0,0.0,0.0,0.0,0.0,0.0,0.0,0.0,0.0,0.0,0.0,0.0,0.0,0.0,0.0,0.0,0.0,0.0,0.0,0.0,0.0,0.0,0.0,0.0,0.0,0.0,0.0,0.0,0.0,0.0,0.0,0.0,0.0,0.0,0.0,0.0,0.0,0.0,0.0,0.0,0.0,0.0,0.0,0.0,0.0,0.0,0.0,0.0,0.0,0.0,0.0,0.0,0.0,0.0,0.0,0.0,0.0,0.0,0.0,0.0,0.0,0.0,0.0,0.0,0.0,0.0,0.0,0.0,0.0,0.0,0.0,0.0,0.0,0.0,0.0,0.0,0.0,0.0,0.0,0.0,0.0,0.0,0.0,0.0,0.0,0.0,0.0,0.0,0.0,0.0,0.0,0.0,0.0,0.0,0.0,0.0,0.0,0.0,0.0,0.0,0.0,0.0,0.0,0.0,0.0,0.0,0.0,0.0,0.0,0.0,0.0,0.0,0.0,0.0,0.0,0.0,0.0,0.0,0.0,0.0,0.0,0.0,0.0,0.0,0.0,0.0,0.0,0.0,0.0,0.0,0.0,0.0,0.0,0.0,0.0,0.0,0.0,0.0,0.0,0.0,0.0,0.0,0.0,0.0,0.0,0.0,0.0,0.0,0.0,0.0,0.0,0.0,0.0,0.0,0.0,0.0,0.0,0.0,0.0,0.0,0.0,0.0,0.0,0.0,0.0,0.0,0.0,0.0,0.0,0.0,0.0,0.0,0.0,0.0,0.0,0.0,0.0,0.0,0.0,0.0,0.0,0.0,0.0,0.0,0.0,0.0,0.0,0.0,0.0,0.0,0.0,0.0,0.0,0.0,0.0,0.0,0.0,0.0,0.0,0.0,0.0,0.0,0.0,0.0,0.0,0.0,0.0,0.0,0.0,0.0,0.0,0.0,0.0,0.0,0.0,0.0,0.0,0.0,0.0,0.0,0.0,0.0,0.0,0.0,0.0,0.0,0.0,0.0,0.0,0.0,0.0,0.0,0.0,0.0,0.0,0.0,0.0,0.0,0.0,0.0,0.0,0.0,0.0,0.0,0.0,0.0,0.0,0.0,0.0,0.0,0.0,0.0,0.0,0.0,0.0,0.0,0.0,0.0,0.0,0.0,0.0,0.0,0.0,0.0,0.0,0.0,0.0,0.0,0.0,0.0,0.0,0.0,0.0,0.0,0.0,0.0,0.0,0.0,0.0,0.0,0.0,0.0,0.0,0.0,0.0,0.0,0.0,0.0,0.0,0.0,0.0,0.0,0.0,0.0,0.0,0.0,0.0,0.0,0.0,0.0,0.0,0.0,0.0,0.0,0.0,0.0,0.0,0.0,0.0,0.0,0.0,0.0,0.0,0.0,0.0,0.0,0.0,0.0,0.0,0.0,0.0,0.0,0.0,0.0,0.0,0.0,0.0,0.0,0.0,0.0,0.0,0.0,0.0,0.0,0.0,0.0,0.0,0.0,0.0,0.0,0.0,0.0,0.0,0.0,0.0,0.0,0.0,0.0,0.0,0.0,0.0,0.0,0.0,0.0,0.0,0.0,0.0,0.0,0.0,0.0,0.0,0.0,0.0,0.0,0.0,0.0,0.0,0.0,0.0,0.0,0.0,0.0,0.0,0.0,0.0,0.0,0.0,0.0,0.0,0.0,0.0,0.0,0.0,0.0,0.0,0.0,0.0,0.0,0.0,0.0,0.0,0.0,0.0,0.0,0.0,0.0,0.0,0.0,0.0,0.0,0.0,0.0,0.0,0.0,0.0,0.0,0.0,0.0,0.0,0.0,0.0,0.0,0.0,0.0,0.0,0.0,0.0,0.0,0.0,0.0,0.0,0.0,0.0,0.0,0.0,0.0,0.0,0.0,0.0,0.0,0.0,0.0,0.0,0.0,0.0,0.0,0.0,0.0,0.0,0.0,0.0,0.0,0.0,0.0,0.0,0.0,0.0,0.0,0.0,0.0,0.0,0.0,0.0,0.0,0.0,0.0,0.0,0.0,0.0,0.0,0.0,0.0,0.0,0.0,0.0,0.0,0.0,0.0,0.0,0.0,0.0,0.0,0.0,0.0,0.0,0.0,0.0,0.0,0.0,0.0,0.0,0.0,0.0,0.0,0.0,0.0,0.0,0.0,0.0,0.0,0.0,0.0,0.0,0.0,0.0,0.0,0.0,0.0,0.0,0.0,0.0,0.0,0.0,0.0,0.0,0.0,0.0,0.0,0.0,0.0,0.0,0.0,0.0,0.0,0.0,0.0,0.0,0.0,0.0,0.0,0.0,0.0,0.0,0.0,0.0,0.0,0.0,0.0,0.0,0.0,0.0,0.0,0.0,0.0,0.0,0.0,0.0,0.0,0.0,0.0,0.0,0.0,0.0,0.0,0.0,0.0,0.0,0.0,0.0,0.0,0.0,0.0,0.0,0.0,0.0,0.0,0.0,0.0,0.0,0.0,0.0,0.0,0.0,0.0,0.0,0.0,0.0,0.0,0.0,0.0,0.0,0.0,0.0,0.0,0.0,0.0,0.0,0.0,0.0,0.0,0.0,0.0,0.0,0.0,0.0,0.0,0.0,0.0,0.0,0.0,0.0,0.0,0.0,0.0,0.0,0.0,0.0,0.0,0.0,0.0,0.0,0.0,0.0,0.0,0.0,0.0,0.0,0.0,0.0,0.0,0.0,0.0,0.0,0.0,0.0,0.0,0.0,0.0,0.0,0.0,0.0,0.0,0.0,0.0,0.0,0.0,0.0,0.0,0.0,0.0,0.0,0.0,0.0,0.0,0.0,0.0,0.0,0.0,0.0,0.0,0.0,0.0,0.0,0.0,0.0,0.0,0.0,0.0,0.0,0.0,0.0,0.0,0.0,0.0,0.0,0.0,0.0,0.0,0.0,0.0,0.0,0.0,0.0,0.0,0.0,0.0,0.0,0.0,0.0,0.0,0.0,0.0,0.0,0.0,0.0,0.0,0.0,0.0,0.0,0.0,0.0,0.0,0.0,0.0,0.0,0.0,0.0,0.0,0.0,0.0,0.0,0.0,0.0,0.0,0.0,0.0,0.0,0.0,0.0,0.0,0.0,0.0,0.0,0.0,0.0,0.0,0.0,0.0,0.0,0.0,0.0,0.0,0.0,0.0,0.0,0.0,0.0,0.0,0.0,0.0,0.0,0.0,0.0,0.0,0.0,0.0,0.0,0.0,0.0,0.0,0.0,0.0,0.0,0.0,0.0,0.0,0.0,0.0,0.0,0.0,0.0,0.0,0.0,0.0,0.0,0.0,0.0,0.0,0.0,0.0,0.0,0.0,0.0,0.0,0.0,0.0,0.0,0.0,0.0,0.0,0.0,0.0,0.0,0.0,0.0,0.0,0.0,0.0,0.0,0.0,0.0,0.0,0.0,0.0,0.0,0.0,0.0,0.0,0.0,0.0,0.0,0.0,0.0,0.0,0.0,0.0,0.0,0.0,0.0,0.0,0.0,0.0,0.0,0.0,0.0,0.0,0.0,0.0,0.0,0.0,0.0,0.0,0.0,0.0,0.0,0.0,0.0,0.0,0.0,0.0,0.0,0.0,0.0,0.0,0.0,0.0,0.0,0.0,0.0,0.0,0.0,0.0,0.0,0.0,0.0,0.0,0.0,0.0,0.0,0.0,0.0,0.0,0.0,0.0,0.0,0.0,0.0,0.0,0.0,0.0,0.0,0.0,0.0,0.0,0.0,0.0,0.0,0.0,0.0,0.0,0.0,0.0,0.0,0.0,0.0,0.0,0.0,-1.0043,0.0,0.0,0.0,0.0,0.0,0.0,0.0,0.0,0.0,0.0,0.0,0.0,0.0,0.0,0.0,0.0,0.0,0.0,0.0,0.0,0.0,0.0,0.0,0.0,0.0,0.0,0.0,0.0,0.0,0.0,0.0,0.0,0.0,0.0,0.0,0.0,0.0,0.0,0.0,0.0,0.0,0.0,0.0,0.0,0.0,0.0,0.0,0.0,0.0,0.0,0.0,0.0,0.0,0.0,0.0,0.0,0.0,0.0,0.0,0.0,0.0,0.0,0.0,0.0,0.0,0.0,0.0,0.0,0.0,0.0,0.0,0.0,0.0,0.0,0.0,0.0,0.0,0.0,0.0,0.0,0.0,0.0,0.0,0.0,0.0,0.0,0.0,0.0,0.0,0.0,0.0,0.0,0.0,0.0,0.0,0.0,0.0,0.0,0.0,0.0,0.0,0.0,0.0,0.0,0.0,0.0,0.0,0.0,0.0,0.0,-1.0769,-1.0913,-1.082,-1.0769,-1.0659,0.0,0.0,0.0,0.0,0.0,0.0,0.0,0.0,0.0,0.0,0.0,0.0,0.0,0.0,0.0,0.0,0.0,0.0,0.0,0.0,0.0,0.0,0.0,0.0,0.0,0.0,0.0,0.0,0.0,0.0,0.0,0.0,0.0,0.0,0.0,0.0,0.0,0.0,0.0,0.0,0.0,0.0,0.0,0.0,0.0,0.0,0.0,0.0,0.0,0.0,0.0,0.0,0.0,0.0,0.0,0.0,0.0,0.0,0.0,0.0,0.0,0.0,0.0,0.0,0.0,0.0,0.0,0.0,0.0,0.0,0.0,0.0,0.0,0.0,0.0,0.0,0.0,0.0,0.0,0.0,0.0,0.0,0.0,0.0,0.0,0.0,0.0,0.0,0.0,0.0,0.0,0.0,0.0,0.0,0.0,0.0,0.0,0.0,0.0,0.0,0.0,0.0,0.0,0.0,0.0,0.0,0.0,0.0,0.0,0.0,0.0,0.0,-1.1427,-1.1326,-1.1267,0.0,0.0,0.0,0.0,0.0,0.0,0.0,0.0,0.0,0.0,0.0,0.0,0.0,0.0,0.0,0.0,0.0,0.0,0.0,0.0,0.0,0.0,0.0,0.0,0.0,0.0,0.0,0.0,0.0,0.0,0.0,0.0,0.0,0.0,0.0,0.0,0.0,0.0,0.0,0.0,0.0,0.0,0.0,0.0,0.0,0.0,0.0,0.0,0.0,0.0,0.0,0.0,0.0,0.0,0.0,0.0,0.0,0.0,0.0,0.0,0.0,0.0,0.0,0.0,0.0,0.0,0.0,0.0,0.0,0.0,0.0,0.0,0.0,0.0,0.0,0.0,0.0,0.0,0.0,0.0,0.0,0.0,0.0,0.0,0.0,0.0,0.0,0.0,0.0,0.0,0.0,0.0,0.0,0.0,0.0,0.0,0.0,0.0,0.0,0.0,0.0,0.0,0.0,0.0,0.0,0.0,0.0,0.0,0.0,0.0,-1.2026,-1.2076,-1.2026,0.0,-1.1819,0.0,0.0,0.0,0.0,0.0,0.0,0.0,0.0,0.0,0.0,0.0,0.0,0.0,0.0,0.0,0.0,0.0,0.0,0.0,0.0,0.0,0.0,0.0,0.0,0.0,0.0,0.0,0.0,0.0,0.0,0.0,0.0,0.0,0.0,0.0,0.0,0.0,0.0,0.0,0.0,0.0,0.0,0.0,0.0,0.0,0.0,0.0,0.0,0.0,0.0,0.0,0.0,0.0,0.0,0.0,0.0,0.0,0.0,0.0,0.0,0.0,0.0,0.0,0.0,0.0,0.0,0.0,0.0,0.0,0.0,0.0,0.0,0.0,0.0,0.0,0.0,0.0,0.0,0.0,0.0,0.0,0.0,0.0,0.0,0.0,0.0,0.0,0.0,0.0,0.0,0.0,0.0,0.0,0.0,0.0,0.0,0.0,0.0,0.0,0.0,0.0,0.0,0.0,0.0,0.0,0.0,0.0,0.0,0.0,0.0,-1.251,-1.2735,-1.2696,-1.2501,0.0,0.0,0.0,0.0,0.0,0.0,0.0,0.0,0.0,0.0,0.0,0.0,0.0,0.0,0.0,0.0,0.0,0.0,0.0,0.0,0.0,0.0,0.0,0.0,0.0,0.0,0.0,0.0,0.0,0.0,0.0,0.0,0.0,0.0,0.0,0.0,0.0,0.0,0.0,0.0,0.0,0.0,0.0,0.0,0.0,0.0,0.0,0.0,0.0,0.0,0.0,0.0,0.0,0.0,0.0,0.0,0.0,0.0,0.0,0.0,0.0,0.0,0.0,0.0,0.0,0.0,0.0,0.0,0.0,0.0,0.0,0.0,0.0,0.0,0.0,0.0,0.0,0.0,0.0,0.0,0.0,0.0,0.0,0.0,0.0,0.0,0.0,0.0,0.0,0.0,0.0,0.0,0.0,0.0,0.0,0.0,0.0,0.0,0.0,0.0,0.0,0.0,0.0,0.0,0.0,0.0,0.0,0.0,0.0,0.0,-1.2852,-1.3084,-1.3409,-1.3304,-1.3122,-1.2861,0.0,0.0,0.0,0.0,0.0,0.0,0.0,0.0,0.0,0.0,0.0,0.0,0.0,0.0,0.0,0.0,0.0,0.0,0.0,0.0,0.0,0.0,0.0,0.0,0.0,0.0,0.0,0.0,0.0,0.0,0.0,0.0,0.0,0.0,0.0,0.0,0.0,0.0,0.0,0.0,0.0,0.0,0.0,0.0,0.0,0.0,0.0,0.0,0.0,0.0,0.0,0.0,0.0,0.0,0.0,0.0,0.0,0.0,0.0,0.0,0.0,0.0,0.0,0.0,0.0,0.0,0.0,0.0,0.0,0.0,0.0,0.0,0.0,0.0,0.0,0.0,0.0,0.0,0.0,0.0,0.0,0.0,0.0,0.0,0.0,0.0,0.0,0.0,0.0,0.0,0.0,0.0,0.0,0.0,0.0,0.0,0.0,0.0,0.0,0.0,0.0,0.0,0.0,0.0,0.0,0.0,0.0,0.0,-1.317,-1.3563,-1.381,-1.3978,-1.3967,-1.3884,0.0,0.0,0.0,0.0,0.0,0.0,0.0,0.0,0.0,0.0,0.0,0.0,0.0,0.0,0.0,0.0,0.0,0.0,0.0,0.0,0.0,0.0,0.0,0.0,0.0,0.0,0.0,0.0,0.0,0.0,0.0,0.0,0.0,0.0,0.0,0.0,0.0,0.0,0.0,0.0,0.0,0.0,0.0,0.0,0.0,0.0,0.0,0.0,0.0,0.0,0.0,0.0,0.0,0.0,0.0,0.0,0.0,0.0,0.0,0.0,0.0,0.0,0.0,0.0,0.0,0.0,0.0,0.0,0.0,0.0,0.0,0.0,0.0,0.0,0.0,0.0,0.0,0.0,0.0,0.0,0.0,0.0,0.0,0.0,0.0,0.0,0.0,0.0,0.0,0.0,0.0,0.0,0.0,0.0,0.0,0.0,0.0,0.0,0.0,0.0,0.0,0.0,0.0,0.0,0.0,0.0,0.0,0.0,0.0,-1.3716,-1.414,-1.4466,-1.4582,-1.4501,-1.4316,0.0,0.0,0.0,0.0,0.0,0.0,0.0,0.0,0.0,0.0,0.0,0.0,0.0,0.0,0.0,0.0,0.0,0.0,0.0,0.0,0.0,0.0,0.0,0.0,0.0,0.0,0.0,0.0,0.0,0.0,0.0,0.0,0.0,0.0,0.0,0.0,0.0,0.0,0.0,0.0,0.0,0.0,0.0,0.0,0.0,0.0,0.0,0.0,0.0,0.0,0.0,0.0,0.0,0.0,0.0,0.0,0.0,0.0,0.0,0.0,0.0,0.0,0.0,0.0,0.0,0.0,0.0,0.0,0.0,0.0,0.0,0.0,0.0,0.0,0.0,0.0,0.0,0.0,0.0,0.0,0.0,0.0,0.0,0.0,0.0,0.0,0.0,0.0,0.0,0.0,0.0,0.0,0.0,0.0,0.0,0.0,0.0,0.0,0.0,0.0,0.0,0.0,0.0,0.0,0.0,0.0,0.0,0.0,0.0,-1.4466,0.0,-1.5017,-1.5187,-1.5062,-1.488,0.0,0.0,0.0,0.0,0.0,0.0,0.0,0.0,0.0,0.0,0.0,0.0,0.0,0.0,0.0,0.0,0.0,0.0,0.0,0.0,0.0,0.0,0.0,0.0,0.0,0.0,0.0,0.0,0.0,0.0,0.0,0.0,0.0,0.0,0.0,0.0,0.0,0.0,0.0,0.0,0.0,0.0,0.0,0.0,0.0,0.0,0.0,0.0,0.0,0.0,0.0,0.0,0.0,0.0,0.0,0.0,0.0,0.0,0.0,0.0,0.0,0.0,0.0,0.0,0.0,0.0,0.0,0.0,0.0,0.0,0.0,0.0,0.0,0.0,0.0,0.0,0.0,0.0,0.0,0.0,0.0,0.0,0.0,0.0,0.0,0.0,0.0,0.0,0.0,0.0,0.0,0.0,0.0,0.0,0.0,0.0,0.0,0.0,0.0,0.0,0.0,0.0,0.0,0.0,0.0,0.0,0.0,0.0,-1.4789,-1.5457,-1.5525,-1.5626,-1.578,-1.5727,-1.5626,0.0,0.0,0.0,0.0,0.0,0.0,0.0,0.0,0.0,0.0,0.0,0.0,0.0,0.0,0.0,0.0,0.0,0.0,0.0,0.0,0.0,0.0,0.0,0.0,0.0,0.0,0.0,0.0,0.0,0.0,0.0,0.0,0.0,0.0,0.0,0.0,0.0,0.0,0.0,0.0,0.0,0.0,0.0,0.0,0.0,0.0,0.0,0.0,0.0,0.0,0.0,0.0,0.0,0.0,0.0,0.0,0.0,0.0,0.0,0.0,0.0,0.0,0.0,0.0,0.0,0.0,0.0,0.0,0.0,0.0,0.0,0.0,0.0,0.0,0.0,0.0,0.0,0.0,0.0,0.0,0.0,0.0,0.0,0.0,0.0,0.0,0.0,0.0,0.0,0.0,0.0,0.0,0.0,0.0,0.0,0.0,0.0,0.0,0.0,0.0,0.0,0.0,0.0,0.0,0.0,0.0,0.0,0.0,0.0,-1.5969,-1.6353,-1.6443,-1.6287,-1.6475,-1.632,0.0,0.0,0.0,0.0,0.0,0.0,0.0,0.0,0.0,0.0,0.0,0.0,0.0,0.0,0.0,0.0,0.0,0.0,0.0,0.0,0.0,0.0,0.0,0.0,0.0,0.0,0.0,0.0,0.0,0.0,0.0,0.0,0.0,0.0,0.0,0.0,0.0,0.0,0.0,0.0,0.0,0.0,0.0,0.0,0.0,0.0,0.0,0.0,0.0,0.0,0.0,0.0,0.0,0.0,0.0,0.0,0.0,0.0,0.0,0.0,0.0,0.0,0.0,0.0,0.0,0.0,0.0,0.0,0.0,0.0,0.0,0.0,0.0,0.0,0.0,0.0,0.0,0.0,0.0,0.0,0.0,0.0,0.0,0.0,0.0,0.0,0.0,0.0,0.0,0.0,0.0,0.0,0.0,0.0,0.0,0.0,0.0,0.0,0.0,0.0,0.0,0.0,0.0,0.0,0.0,0.0,0.0,0.0,0.0,-1.659,-1.6773,-1.6917,-1.701,-1.6917,-1.674,-1.6389,0.0,0.0,0.0,0.0,0.0,0.0,0.0,0.0,0.0,0.0,0.0,0.0,0.0,0.0,0.0,0.0,0.0,0.0,0.0,0.0,0.0,0.0,0.0,0.0,0.0,0.0,0.0,0.0,0.0,0.0,0.0,0.0,0.0,0.0,0.0,0.0,0.0,0.0,0.0,0.0,0.0,0.0,0.0,0.0,0.0,0.0,0.0,0.0,0.0,0.0,0.0,0.0,0.0,0.0,0.0,0.0,0.0,0.0,0.0,0.0,0.0,0.0,0.0,0.0,0.0,0.0,0.0,0.0,0.0,0.0,0.0,0.0,0.0,0.0,0.0,0.0,0.0,0.0,0.0,0.0,0.0,0.0,0.0,0.0,0.0,0.0,0.0,0.0,0.0,0.0,0.0,0.0,0.0,0.0,0.0,0.0,0.0,0.0,0.0,0.0,0.0,0.0,0.0,0.0,0.0,0.0,0.0,0.0,-1.7199,-1.6876,-1.7102,-1.7839,-1.7153,-1.6985,0.0,0.0,0.0,0.0,0.0,0.0,0.0,0.0,0.0,0.0,0.0,0.0,0.0,0.0,0.0,0.0,0.0,0.0,0.0,0.0,0.0,0.0,0.0,0.0,0.0,0.0,0.0,0.0,0.0,0.0,0.0,0.0,0.0,0.0,0.0,0.0,0.0,0.0,0.0,0.0,0.0,0.0,0.0,0.0,0.0,0.0,0.0,0.0,0.0,0.0,0.0,0.0,0.0,0.0,0.0,0.0,0.0,0.0,0.0,0.0,0.0,0.0,0.0,0.0,0.0,0.0,0.0,0.0,0.0,0.0,0.0,0.0,0.0,0.0,0.0,0.0,0.0,0.0,0.0,0.0,0.0,0.0,0.0,0.0,0.0,0.0,0.0,0.0,0.0,0.0,0.0,0.0,0.0,0.0,0.0,0.0,0.0,0.0,0.0,0.0,0.0,0.0,0.0,0.0,0.0,0.0,0.0,0.0,0.0,-1.7214,-1.7199,-1.7345,-1.7576,-1.7708,-1.7519,0.0,0.0,0.0,0.0,0.0,0.0,0.0,0.0,0.0,0.0,0.0,0.0,0.0,0.0,0.0,0.0,0.0,0.0,0.0,0.0,0.0,0.0,0.0,0.0,0.0,0.0,0.0,0.0,0.0,0.0,0.0,0.0,0.0,0.0,0.0,0.0,0.0,0.0,0.0,0.0,0.0,0.0,0.0,0.0,0.0,0.0,0.0,0.0,0.0,0.0,0.0,0.0,0.0,0.0,0.0,0.0,0.0,0.0,0.0,0.0,0.0,0.0,0.0,0.0,0.0,0.0,0.0,0.0,0.0,0.0,0.0,0.0,0.0,0.0,0.0,0.0,0.0,0.0,0.0,0.0,0.0,0.0,0.0,0.0,0.0,0.0,0.0,0.0,0.0,0.0,0.0,0.0,0.0,0.0,0.0,0.0,0.0,0.0,0.0,0.0,0.0,0.0,0.0,0.0,0.0,0.0,0.0,0.0,-1.7432,-1.7461,-1.7528,-1.7515,-1.7584,-1.7721,-1.7639,0.0,0.0,0.0,0.0,0.0,0.0,0.0,0.0,0.0,0.0,0.0,0.0,0.0,0.0,0.0,0.0,0.0,0.0,0.0,0.0,0.0,0.0,0.0,0.0,0.0,0.0,0.0,0.0,0.0,0.0,0.0,0.0,0.0,0.0,0.0,0.0,0.0,0.0,0.0,0.0,0.0,0.0,0.0,0.0,0.0,0.0,0.0,0.0,0.0,0.0,0.0,0.0,0.0,0.0,0.0,0.0,0.0,0.0,0.0,0.0,0.0,0.0,0.0,0.0,0.0,0.0,0.0,0.0,0.0,0.0,0.0,0.0,0.0,0.0,0.0,0.0,0.0,0.0,0.0,0.0,0.0,0.0,0.0,0.0,0.0,0.0,0.0,0.0,0.0,0.0,0.0,0.0,0.0,0.0,0.0,0.0,0.0,0.0,0.0,0.0,0.0,0.0,0.0,0.0,0.0,0.0,0.0,0.0,-1.7649,-1.7828,-1.7747,-1.7692,-1.7651,-1.7515,-1.7545,0.0,0.0,0.0,0.0,0.0,0.0,0.0,0.0,0.0,0.0,0.0,0.0,0.0,0.0,0.0,0.0,0.0,0.0,0.0,0.0,0.0,0.0,0.0,0.0,0.0,0.0,0.0,0.0,0.0,0.0,0.0,0.0,0.0,0.0,0.0,0.0,0.0,0.0,0.0,0.0,0.0,0.0,0.0,0.0,0.0,0.0,0.0,0.0,0.0,0.0,0.0,0.0,0.0,0.0,0.0,0.0,0.0,0.0,0.0,0.0,0.0,0.0,0.0,0.0,0.0,0.0,0.0,0.0,0.0,0.0,0.0,0.0,0.0,0.0,0.0,0.0,0.0,0.0,0.0,0.0,0.0,0.0,0.0,0.0,0.0,0.0,0.0,0.0,0.0,0.0,0.0,0.0,0.0,0.0,0.0,0.0,0.0,0.0,0.0,0.0,0.0,0.0,0.0,0.0,0.0,0.0,0.0,0.0,-1.8163,-1.7516,-1.7625,-1.761,-1.7487,-1.7569,-1.7527,0.0,0.0,0.0,0.0,0.0,0.0,0.0,0.0,0.0,0.0,0.0,0.0,0.0,0.0,0.0,0.0,0.0,0.0,0.0,0.0,0.0,0.0,0.0,0.0,0.0,0.0,0.0,0.0,0.0,0.0,0.0,0.0,0.0,0.0,0.0,0.0,0.0,0.0,0.0,0.0,0.0,0.0,0.0,0.0,0.0,0.0,0.0,0.0,-1.3017,0.0,0.0,0.0,0.0,0.0,0.0,0.0,0.0,0.0,0.0,0.0,0.0,0.0,0.0,0.0,0.0,0.0,0.0,0.0,0.0,0.0,0.0,0.0,0.0,0.0,0.0,0.0,0.0,0.0,0.0,0.0,0.0,0.0,0.0,0.0,0.0,0.0,0.0,0.0,0.0,0.0,0.0,0.0,0.0,0.0,0.0,0.0,0.0,0.0,0.0,0.0,0.0,0.0,0.0,0.0,0.0,0.0,0.0,0.0,-1.8284,-1.7449,-1.7516,-1.7556,-1.7404,-1.7556,-1.7502,0.0,0.0,0.0,0.0,0.0,0.0,0.0,0.0,0.0,0.0,0.0,0.0,0.0,0.0,0.0,0.0,0.0,0.0,0.0,0.0,0.0,0.0,0.0,0.0,0.0,0.0,0.0,0.0,0.0,0.0,0.0,0.0,0.0,0.0,0.0,0.0,0.0,0.0,0.0,0.0,0.0,0.0,0.0,0.0,0.0,0.0,0.0,0.0,0.0,0.0,0.0,0.0,0.0,0.0,0.0,0.0,0.0,0.0,0.0,0.0,0.0,0.0,0.0,0.0,0.0,0.0,0.0,0.0,0.0,0.0,0.0,0.0,0.0,0.0,0.0,0.0,0.0,0.0,0.0,0.0,0.0,0.0,0.0,0.0,0.0,0.0,0.0,0.0,0.0,0.0,0.0,0.0,0.0,0.0,0.0,0.0,0.0,0.0,0.0,0.0,0.0,0.0,0.0,0.0,0.0,0.0,0.0,-1.8665,-1.8334,-1.7553,-1.7502,-1.7447,-1.7404,-1.7447,-1.7447,-1.7391,0.0,0.0,0.0,0.0,0.0,0.0,0.0,0.0,0.0,0.0,0.0,0.0,0.0,0.0,0.0,0.0,0.0,0.0,0.0,0.0,0.0,0.0,0.0,0.0,0.0,0.0,0.0,0.0,0.0,0.0,0.0,0.0,0.0,0.0,0.0,0.0,0.0,0.0,-1.2422,-1.3141,0.0,0.0,0.0,0.0,0.0,0.0,0.0,0.0,-1.7046,0.0,0.0,0.0,0.0,0.0,0.0,0.0,0.0,0.0,0.0,0.0,0.0,0.0,0.0,0.0,0.0,0.0,0.0,0.0,0.0,0.0,0.0,0.0,0.0,0.0,0.0,0.0,0.0,0.0,0.0,0.0,0.0,0.0,0.0,0.0,0.0,0.0,0.0,0.0,0.0,0.0,0.0,0.0,0.0,0.0,0.0,0.0,0.0,0.0,0.0,0.0,0.0,0.0,0.0,0.0,0.0,-1.8596,-1.8976,-1.8817,-1.8077,-1.7686,-1.7447,-1.7391,-1.7461,-1.7447,-1.7391,0.0,0.0,0.0,0.0,0.0,0.0,0.0,0.0,0.0,0.0,0.0,0.0,0.0,0.0,0.0,0.0,0.0,0.0,0.0,0.0,0.0,0.0,0.0,0.0,0.0,0.0,0.0,0.0,0.0,0.0,0.0,0.0,0.0,0.0,0.0,0.0,0.0,0.0,0.0,-1.5137,-1.5904,0.0,0.0,0.0,0.0,0.0,0.0,0.0,0.0,-1.8846,0.0,0.0,0.0,0.0,0.0,0.0,0.0,0.0,0.0,0.0,0.0,0.0,0.0,0.0,0.0,0.0,0.0,0.0,0.0,0.0,0.0,0.0,0.0,0.0,0.0,0.0,0.0,0.0,0.0,0.0,0.0,0.0,0.0,0.0,0.0,0.0,0.0,0.0,0.0,0.0,0.0,0.0,0.0,0.0,0.0,0.0,0.0,0.0,0.0,0.0,0.0,0.0,0.0,0.0,0.0,-1.9003,-1.9096,-1.8816,-1.8061,-1.7529,-1.7212,-1.7183,-1.724,-1.7212,0.0,0.0,0.0,0.0,0.0,0.0,0.0,0.0,0.0,0.0,0.0,0.0,0.0,0.0,0.0,0.0,0.0,0.0,0.0,0.0,0.0,0.0,0.0,0.0,0.0,0.0,0.0,0.0,0.0,0.0,0.0,0.0,0.0,0.0,0.0,0.0,0.0,0.0,0.0,0.0,-1.6529,-1.7286,-1.8226,0.0,0.0,0.0,0.0,0.0,0.0,-2.0809,-2.0731,0.0,0.0,0.0,0.0,0.0,0.0,0.0,0.0,0.0,0.0,0.0,0.0,0.0,0.0,0.0,0.0,0.0,0.0,0.0,0.0,0.0,0.0,0.0,0.0,0.0,0.0,0.0,0.0,0.0,0.0,0.0,0.0,0.0,0.0,0.0,0.0,0.0,0.0,0.0,0.0,0.0,0.0,0.0,0.0,0.0,0.0,0.0,0.0,0.0,0.0,0.0,0.0,0.0,0.0,0.0,-1.9461,-1.9205,-1.8734,-1.8111,-1.7394,-1.7002,-1.7002,-1.7002,-1.7002,0.0,0.0,0.0,0.0,0.0,0.0,0.0,0.0,0.0,0.0,0.0,0.0,0.0,0.0,0.0,0.0,0.0,0.0,0.0,0.0,0.0,0.0,0.0,0.0,0.0,0.0,0.0,0.0,0.0,0.0,0.0,0.0,0.0,0.0,0.0,0.0,0.0,0.0,0.0,0.0,0.0,-1.8548,-1.9515,-2.0455,0.0,0.0,0.0,0.0,-2.1902,-2.2219,0.0,0.0,0.0,0.0,0.0,0.0,0.0,0.0,0.0,0.0,0.0,0.0,0.0,0.0,0.0,0.0,0.0,0.0,0.0,0.0,0.0,0.0,0.0,0.0,0.0,0.0,0.0,0.0,0.0,0.0,0.0,0.0,0.0,0.0,0.0,0.0,0.0,0.0,0.0,0.0,0.0,0.0,0.0,0.0,0.0,0.0,0.0,0.0,0.0,0.0,0.0,0.0,0.0,0.0,0.0,0.0,-2.0034,-1.9311,-1.8839,-1.8669,-1.757,-1.6947,-1.6918,-1.696,-1.696,0.0,0.0,0.0,0.0,0.0,0.0,0.0,0.0,0.0,0.0,0.0,0.0,0.0,0.0,0.0,0.0,0.0,0.0,0.0,0.0,0.0,0.0,0.0,0.0,0.0,0.0,0.0,0.0,0.0,0.0,0.0,0.0,0.0,0.0,0.0,0.0,0.0,0.0,0.0,0.0,0.0,-2.0067,-2.1638,-2.2174,-2.2669,0.0,0.0,-2.3234,-2.2791,-2.2852,0.0,0.0,0.0,0.0,0.0,0.0,0.0,0.0,0.0,0.0,0.0,0.0,0.0,0.0,0.0,0.0,0.0,0.0,0.0,0.0,0.0,0.0,0.0,0.0,0.0,0.0,0.0,0.0,0.0,0.0,0.0,0.0,0.0,0.0,0.0,0.0,0.0,0.0,0.0,0.0,0.0,0.0,0.0,0.0,0.0,0.0,0.0,0.0,0.0,0.0,0.0,0.0,0.0,0.0,0.0,-1.9741,-2.0497,-1.9634,-1.8956,-1.8461,-1.7548,-1.6935,-1.662,-1.691,-1.6935,0.0,0.0,0.0,0.0,0.0,0.0,0.0,0.0,0.0,0.0,0.0,0.0,0.0,0.0,0.0,0.0,0.0,0.0,0.0,0.0,0.0,0.0,0.0,0.0,0.0,0.0,0.0,0.0,0.0,0.0,0.0,0.0,0.0,0.0,0.0,0.0,0.0,0.0,0.0,0.0,0.0,0.0,-2.2262,-2.287,0.0,0.0,0.0,-2.4393,-2.4106,0.0,0.0,0.0,0.0,0.0,0.0,0.0,0.0,0.0,0.0,0.0,0.0,0.0,0.0,0.0,0.0,0.0,0.0,0.0,0.0,0.0,0.0,0.0,0.0,0.0,0.0,0.0,0.0,0.0,0.0,0.0,0.0,0.0,0.0,0.0,0.0,0.0,0.0,0.0,0.0,0.0,0.0,0.0,0.0,0.0,0.0,0.0,0.0,0.0,0.0,0.0,0.0,0.0,0.0,0.0,0.0,0.0,-2.067,-1.9866,-1.9037,-1.8367,-1.7641,-1.709,-1.6752,-1.702,0.0,0.0,0.0,0.0,0.0,0.0,0.0,0.0,0.0,0.0,0.0,0.0,0.0,0.0,0.0,0.0,0.0,0.0,0.0,0.0,0.0,0.0,0.0,0.0,0.0,0.0,0.0,-1.3214,0.0,0.0,0.0,0.0,0.0,0.0,0.0,0.0,0.0,0.0,0.0,0.0,0.0,0.0,-2.1276,-2.2757,-2.3365,-2.3778,0.0,0.0,-2.5199,-2.518,-2.5131,-2.459,0.0,0.0,0.0,0.0,0.0,0.0,0.0,0.0,0.0,0.0,0.0,0.0,0.0,0.0,0.0,0.0,0.0,0.0,0.0,0.0,0.0,0.0,0.0,0.0,0.0,0.0,0.0,0.0,0.0,0.0,0.0,0.0,0.0,0.0,0.0,0.0,0.0,0.0,0.0,0.0,0.0,0.0,0.0,0.0,0.0,0.0,0.0,0.0,0.0,0.0,0.0,0.0,0.0,0.0,-1.9546,-2.0357,-1.9767,-1.9179,-1.8772,-1.8055,-1.7676,-1.77,-1.7424,-1.7255,0.0,0.0,0.0,0.0,0.0,0.0,0.0,0.0,0.0,0.0,0.0,0.0,0.0,0.0,0.0,0.0,0.0,0.0,0.0,0.0,0.0,0.0,0.0,0.0,0.0,0.0,0.0,0.0,0.0,0.0,0.0,0.0,0.0,0.0,0.0,0.0,0.0,0.0,0.0,0.0,0.0,-2.2107,-2.3502,-2.3869,-2.4299,0.0,-2.5144,-2.5034,-2.5603,-2.5324,-2.4767,-2.3711,0.0,0.0,0.0,0.0,0.0,0.0,0.0,0.0,0.0,0.0,0.0,0.0,0.0,0.0,0.0,0.0,0.0,0.0,0.0,0.0,0.0,0.0,0.0,0.0,0.0,0.0,0.0,0.0,0.0,0.0,0.0,0.0,0.0,0.0,0.0,0.0,0.0,0.0,0.0,0.0,0.0,0.0,0.0,0.0,0.0,0.0,0.0,0.0,0.0,0.0,0.0,0.0,0.0,-1.9344,-2.0258,-1.9712,-1.9094,-1.8458,-1.8051,-1.7687,-1.7326,-1.7426,-1.7299,0.0,0.0,0.0,0.0,0.0,0.0,0.0,0.0,0.0,0.0,0.0,0.0,0.0,0.0,0.0,0.0,0.0,0.0,0.0,0.0,0.0,0.0,0.0,0.0,0.0,0.0,0.0,0.0,-1.5014,-1.548,-1.6945,0.0,0.0,0.0,0.0,0.0,0.0,0.0,0.0,0.0,0.0,-2.2621,-2.3664,-2.4092,0.0,0.0,-2.4997,-2.5045,-2.4867,-2.4991,-2.4886,-2.446,-2.3595,0.0,0.0,0.0,0.0,0.0,0.0,0.0,0.0,0.0,0.0,0.0,0.0,0.0,0.0,0.0,0.0,0.0,0.0,0.0,0.0,0.0,0.0,0.0,0.0,0.0,0.0,0.0,0.0,0.0,0.0,0.0,0.0,0.0,0.0,0.0,0.0,0.0,0.0,0.0,0.0,0.0,0.0,0.0,0.0,0.0,0.0,0.0,0.0,0.0,0.0,0.0,0.0,-1.9223,-1.9914,-1.9565,-1.9028,-1.8406,-1.8135,-1.7803,-1.7412,-1.7531,-1.7461,0.0,0.0,0.0,0.0,0.0,0.0,0.0,0.0,0.0,0.0,0.0,0.0,0.0,0.0,0.0,0.0,0.0,0.0,0.0,0.0,0.0,0.0,0.0,0.0,0.0,0.0,0.0,0.0,-1.6099,-1.6532,-1.7694,0.0,0.0,0.0,0.0,0.0,0.0,0.0,0.0,0.0,0.0,-2.3018,-2.3783,-2.4166,-2.451,-2.4677,-2.4869,-2.4929,-2.4656,-2.4955,-2.5111,-2.4933,0.0,0.0,0.0,0.0,0.0,0.0,0.0,0.0,0.0,0.0,0.0,0.0,0.0,0.0,0.0,0.0,0.0,0.0,0.0,0.0,0.0,0.0,0.0,0.0,0.0,0.0,0.0,-1.6959,0.0,0.0,-1.609,0.0,0.0,0.0,0.0,0.0,0.0,0.0,0.0,0.0,0.0,0.0,0.0,0.0,0.0,0.0,0.0,0.0,0.0,0.0,0.0,0.0,0.0,-1.9258,-1.9408,-1.9291,-1.9081,-1.8774,-1.8344,-1.8159,-1.8309,-1.7909,-1.7623,-1.7468,0.0,0.0,0.0,0.0,0.0,0.0,0.0,0.0,0.0,0.0,0.0,0.0,0.0,0.0,0.0,0.0,0.0,0.0,0.0,0.0,0.0,0.0,0.0,0.0,0.0,0.0,-1.6363,-1.7169,-1.7497,0.0,0.0,0.0,0.0,0.0,0.0,0.0,0.0,0.0,-2.1581,-2.2556,-2.3379,-2.3873,-2.4186,-2.4539,-2.5004,-2.4752,-2.4723,-2.5204,-2.53,-2.5241,0.0,0.0,0.0,0.0,0.0,0.0,0.0,0.0,0.0,0.0,0.0,0.0,0.0,0.0,0.0,0.0,0.0,0.0,0.0,0.0,0.0,0.0,0.0,0.0,0.0,0.0,0.0,-1.8736,-1.8224,0.0,0.0,0.0,0.0,0.0,0.0,0.0,0.0,0.0,0.0,0.0,-1.7769,-1.7559,0.0,0.0,0.0,0.0,0.0,0.0,0.0,0.0,0.0,0.0,0.0,0.0,-1.8918,-1.9214,-1.9052,-1.8732,-1.8356,-1.8193,-1.803,-1.781,-1.7534,-1.7379,-1.7179,0.0,0.0,0.0,0.0,0.0,0.0,0.0,0.0,0.0,0.0,0.0,0.0,0.0,0.0,0.0,0.0,0.0,0.0,0.0,0.0,0.0,0.0,0.0,0.0,0.0,-1.6523,0.0,0.0,0.0,0.0,0.0,0.0,0.0,0.0,0.0,0.0,0.0,-2.1088,-2.1929,-2.2884,-2.371,-2.4174,-2.4564,-2.492,0.0,0.0,0.0,0.0,0.0,0.0,0.0,0.0,0.0,0.0,0.0,0.0,0.0,0.0,-2.1103,-2.0597,-2.0601,-2.0614,-2.0604,0.0,0.0,0.0,0.0,0.0,0.0,0.0,0.0,0.0,0.0,0.0,0.0,0.0,0.0,-1.9587,0.0,-1.8565,0.0,0.0,0.0,0.0,0.0,0.0,0.0,0.0,-1.739,-1.756,-1.7963,-1.7752,-1.7709,0.0,-1.7519,-1.7763,0.0,0.0,0.0,0.0,0.0,0.0,0.0,0.0,-1.8766,-1.8922,-1.8691,-1.8367,-1.7975,-1.7877,-1.7634,-1.7357,-1.7145,-1.6976,-1.6729,-1.6332,-1.6111,0.0,0.0,0.0,0.0,0.0,0.0,0.0,0.0,0.0,0.0,0.0,0.0,0.0,0.0,0.0,0.0,0.0,0.0,0.0,0.0,0.0,0.0,0.0,-1.7016,0.0,0.0,0.0,0.0,0.0,0.0,0.0,0.0,0.0,-1.9655,-2.0538,-2.1399,-2.2298,-2.3166,-2.384,-2.4085,0.0,0.0,0.0,0.0,0.0,0.0,0.0,-2.5158,-2.5111,-2.5111,-2.5111,-2.5111,-2.4496,-2.3815,-2.334,0.0,0.0,-2.1647,-2.1727,-2.2034,-2.2079,-2.2045,-2.1943,-2.1876,-2.2058,-2.2377,0.0,0.0,0.0,0.0,0.0,0.0,0.0,0.0,-1.9983,-1.9725,0.0,-1.9034,0.0,0.0,0.0,0.0,-1.7217,-1.7217,0.0,0.0,-1.77,-1.7711,-1.7711,-1.77,-1.7733,-1.7875,-1.7841,-1.7993,-1.8282,-1.7766,0.0,0.0,0.0,0.0,0.0,0.0,-1.8637,-1.8422,-1.8205,-1.7975,-1.7711,-1.7445,-1.7211,-1.7011,-1.674,-1.6467,-1.6285,-1.6171,-1.6033,-1.5907,-1.556,0.0,0.0,0.0,0.0,0.0,0.0,0.0,0.0,0.0,0.0,0.0,0.0,0.0,0.0,0.0,0.0,0.0,0.0,0.0,0.0,-1.6983,0.0,0.0,0.0,0.0,0.0,0.0,0.0,0.0,0.0,0.0,-1.9889,-2.0746,-2.1783,-2.2692,0.0,0.0,0.0,0.0,-2.436,-2.4238,-2.4636,-2.4921,-2.4826,-2.4862,-2.4921,-2.4791,0.0,0.0,-2.5063,-2.4862,-2.4755,-2.4992,-2.4779,-2.4166,-2.2297,-2.24,-2.288,-2.3177,-2.2994,-2.2925,-2.3131,-2.3166,-2.3384,-2.3819,0.0,0.0,0.0,0.0,-2.1716,-2.121,-2.0496,-2.0254,-1.9855,-1.9372,-1.8826,0.0,0.0,0.0,0.0,0.0,0.0,-1.7511,-1.7711,-1.7601,-1.759,-1.7711,-1.7711,-1.7521,-1.7227,-1.728,-1.7142,-1.6917,-1.6985,-1.7347,-1.8072,0.0,0.0,0.0,0.0,-1.8247,-1.8073,-1.7877,-1.7645,-1.7434,-1.72,-1.692,-1.6591,-1.6192,-1.5961,-1.6029,-1.5904,-1.5843,-1.5904,-1.5467,0.0,0.0,0.0,0.0,0.0,0.0,0.0,0.0,0.0,0.0,0.0,0.0,0.0,0.0,0.0,0.0,0.0,0.0,0.0,-1.7016,-1.728,-1.7479,0.0,0.0,0.0,0.0,0.0,0.0,0.0,0.0,0.0,-1.9828,-2.0887,-2.1693,0.0,0.0,-2.2695,-2.2901,-2.3052,-2.3387,-2.3886,-2.405,0.0,-2.4202,-2.4143,-2.3921,-2.3732,-2.3822,-2.3845,-2.4008,-2.38,-2.3777,-2.4148,-2.3904,-2.3682,-2.3978,-2.406,-2.4167,-2.4308,-2.4225,-2.4202,-2.4202,-2.4202,-2.419,-2.3483,-2.3275,-2.3157,-2.2909,-2.2469,-2.1884,-2.1315,-2.0766,-2.0121,-1.9678,-1.9264,-1.8722,-1.8451,-1.836,-1.7935,0.0,0.0,0.0,-1.7246,-1.7235,-1.6938,-1.6861,-1.6968,-1.6915,-1.6813,-1.6536,-1.6524,-1.6421,-1.612,-1.6214,-1.6616,-1.733,0.0,0.0,-1.756,-1.7614,-1.7404,-1.7053,-1.6946,-1.6742,-1.6374,-1.6134,-1.5887,-1.5746,-1.5462,-1.5321,-1.5556,-1.5449,-1.5508,-1.5624,-1.5367,-1.5253,0.0,0.0,0.0,0.0,0.0,0.0,0.0,0.0,0.0,0.0,0.0,-1.523,-1.5527,0.0,0.0,0.0,-1.6546,-1.694,-1.7245,-1.7555,0.0,0.0,0.0,0.0,0.0,0.0,0.0,-1.9205,-1.9616,-1.9957,-2.021,-2.0747,-2.1162,-2.1207,-2.1789,-2.2217,-2.2297,0.0,-2.2662,-2.3029,-2.3607,-2.3849,-2.3352,-2.2799,-2.2571,-2.298,-2.3103,-2.3285,-2.3617,-2.3455,-2.3329,-2.3534,-2.3487,-2.3554,-2.4262,-2.439,-2.4412,-2.4377,-2.4272,-2.4155,-2.405,-2.4143,-2.4212,-2.2547,-2.2239,-2.2727,-2.276,-2.2445,-2.1524,-2.0997,-2.0723,-1.9709,-1.9208,-1.9033,-1.8585,-1.8304,-1.8065,-1.7734,0.0,-1.7335,-1.6915,-1.6651,-1.6448,-1.597,-1.5785,-1.5785,-1.5796,-1.5763,-1.5731,-1.572,-1.576,-1.5756,-1.5483,-1.5442,-1.5669,-1.6774,-1.7125,-1.6693,-1.6671,-1.6356,-1.5712,-1.5661,-1.5403,-1.4934,-1.4556,-1.4478,-1.4727,-1.4569,-1.4658,-1.4895,-1.4923,-1.5001,-1.5147,-1.5156,-1.509,-1.5041,0.0,0.0,0.0,0.0,0.0,0.0,0.0,0.0,0.0,0.0,0.0,0.0,0.0,0.0,0.0,-1.6961,0.0,-1.7278,-1.7682,0.0,0.0,0.0,-1.8043,-1.7634,-1.8124,-1.8614,-1.9044,0.0,0.0,-2.0646,-2.0486,-2.0369,-2.0412,-2.134,-2.1956,-2.176,-2.1865,-2.1967,-2.1862,-2.2972,-2.343,-2.232,-2.1415,-2.1272,-2.2286,-2.2705,-2.2975,-2.3416,-2.3344,-2.314,-2.3034,-2.325,-2.3418,-2.3628,-2.3628,-2.361,-2.3664,-2.3475,-2.3305,-2.3352,-2.351,-2.3656,-2.1781,-2.1297,-2.1338,-2.1296,-2.1192,-2.078,-2.0262,-1.9678,-1.9022,-1.8463,-1.8059,-1.7722,-1.7346,-1.6907,-1.6797,-1.6556,-1.6216,-1.6118,-1.6,-1.5938,-1.5829,-1.5785,-1.5785,-1.5785,-1.564,-1.529,-1.517,-1.4925,-1.4638,-1.4701,-1.4761,-1.4982,-1.5476,-1.5711,-1.5719,-1.5678,-1.5572,-1.5403,-1.5143,-1.4872,-1.4546,-1.4237,-1.4082,-1.4026,-1.3763,-1.3784,-1.4116,-1.4029,-1.4225,-1.4638,-1.4656,-1.4737,-1.5003,-1.4697,0.0,0.0,0.0,0.0,0.0,0.0,0.0,0.0,0.0,-1.5977,-1.6233,0.0,-1.6815,0.0,-1.7213,-1.7222,-1.6941,-1.7129,0.0,0.0,-1.7671,-1.8134,-1.8375,-1.8835,-1.9317,-1.9672,-1.9695,-1.9836,-2.0249,-1.9998,-1.9768,-1.9833,-2.0171,-2.0401,-2.0412,-2.0467,-2.0731,-2.1083,-2.133,-2.142,-2.1531,-2.1118,-2.0796,-2.1124,-2.1342,-2.1483,-2.1835,-2.1841,-2.1888,-2.1888,-2.2039,-2.2214,-2.2528,-2.2468,-2.2456,-2.2591,-2.3155,-2.3694,-2.3694,-2.3694,-2.3664,-2.1104,-2.0594,-2.0183,-1.9975,-1.9901,-1.9859,-1.9698,-1.9394,-1.8521,-1.7958,-1.7634,-1.7379,-1.6994,-1.6535,-1.6525,-1.621,-1.5785,-1.5557,-1.5509,-1.5448,-1.523,-1.5083,-1.5083,-1.5034,-1.4855,-1.4596,-1.4548,-1.4361,-1.402,-1.4083,-1.4091,-1.4129,-1.4231,-1.4355,-1.4416,-1.4725,-1.4736,-1.4426,-1.4134,-1.383,-1.3564,-1.3265,-1.3195,-1.3215,-1.2797,-1.2857,-1.3522,-1.331,-1.3485,-1.4163,-1.424,-1.4359,-1.4547,-1.4394,-1.4354,0.0,0.0,0.0,0.0,0.0,0.0,0.0,0.0,0.0,0.0,0.0,-1.6591,-1.6818,-1.6931,-1.6864,-1.6581,-1.6977,-1.7209,-1.7162,-1.7696,-1.8213,-1.8434,-1.8876,-1.9264,-1.9447,-1.9543,-1.9703,-1.9822,-1.9713,-1.9539,-1.942,-1.9594,-1.9681,-1.9736,-1.9857,-1.9954,-2.0279,-2.0257,-2.027,-2.0632,-2.0631,-2.054,-2.0604,-2.0722,-2.0873,-2.1111,-2.1192,-2.121,-2.1434,-2.1549,-2.1635,-2.1922,-2.1898,-2.1874,-2.202,-2.2464,-2.2898,-2.3075,-2.2987,-2.2891,-2.0216,-1.9866,-1.9189,-1.8768,-1.8726,-1.8955,-1.9121,-1.9256,-1.8147,-1.7645,-1.7567,-1.7379,-1.6994,-1.6525,-1.6471,-1.6221,-1.5763,-1.5339,-1.5154,-1.5121,-1.4612,-1.4337,-1.4273,-1.4153,-1.4026,-1.402,-1.3962,-1.3879,-1.3773,-1.361,-1.3467,-1.3362,-1.3266,-1.317,-1.319,-1.3768,-1.3848,-1.3415,-1.2988,-1.2676,-1.2431,-1.2184,-1.2131,-1.2313,-1.1817,-1.2015,-1.2975,-1.2729,-1.2865,-1.3614,-1.3821,-1.389,-1.389,-1.4001,-1.3969,0.0,-1.4118,0.0,0.0,0.0,0.0,0.0,0.0,0.0,0.0,-1.5999,-1.6114,-1.6181,-1.6462,-1.654,-1.6331,-1.7005,-1.7455,-1.7319,-1.7764,-1.8089,-1.8184,-1.8543,-1.8797,-1.885,-1.923,-1.9483,-1.9505,-1.9494,-1.9375,-1.9201,-1.9243,-1.9428,-1.9483,-1.9539,-1.9539,-1.9539,-1.9713,-1.9801,-1.99,-2.0151,-2.0346,-2.0346,-2.054,-2.0744,-2.1035,-2.0937,-2.0978,-2.1285,-2.1285,-2.1348,-2.1572,-2.1561,-2.1561,-2.1549,-2.167,-2.1843,-2.2094,-2.2032,-2.1862,-1.8648,-1.8545,-1.8231,-1.8184,-1.8247,-1.8098,-1.8155,-1.8354,-1.7922,-1.7545,-1.7379,-1.7323,-1.7005,-1.6471,-1.6385,-1.6073,-1.562,-1.5442,-1.5348,-1.5359,-1.5212,-1.4956,-1.4605,-1.4595,-1.4344,-1.3984,-1.3773,-1.3668,-1.3621,-1.3409,-1.3256,-1.3208,-1.3084,-1.3045,-1.3055,0.0,0.0,0.0,-1.2641,-1.2184,-1.2026,-1.1769,-1.1554,-1.1379,-1.1226,0.0,-1.217,-1.2164,-1.2423,-1.3122,-1.3172,0.0,0.0,0.0,0.0,0.0,0.0,0.0,0.0,0.0,0.0,0.0,-1.4702,-1.4915,-1.5459,-1.5642,-1.571,-1.5788,-1.6402,-1.6665,-1.6497,-1.7063,-1.738,-1.739,-1.7461,-1.7708,-1.8068,-1.8222,-1.8332,-1.8578,-1.8633,-1.8849,-1.9122,-1.907,-1.9019,-1.9106,-1.9162,-1.9152,-1.9208,-1.9187,-1.9253,-1.933,-1.9483,-1.9692,-1.9868,-1.9933,-2.0009,-2.0151,-2.0346,-2.0486,-2.0551,-2.0669,-2.0733,-2.0862,-2.085,-2.0839,-2.0944,-2.1019,-2.1083,-2.1003,-2.1123,-2.1423,-2.1686,-2.1612,-2.1537,-1.78,-1.782,-1.7716,-1.7564,0.0,-1.7607,-1.7603,-1.7472,-1.7544,-1.749,-1.7278,-1.72,-1.6873,-1.6375,-1.6267,-1.5838,-1.5124,-1.5084,-1.4906,-1.4694,-1.4584,-1.4398,-1.4178,-1.4021,-1.3848,-1.3621,-1.3467,-1.3382,-1.3286,-1.3152,-1.2997,-1.2939,-1.2813,-1.2774,-1.2764,-1.252,-1.2476,-1.2723,-1.2227,-1.1927,-1.1728,-1.1519,-1.1318,-1.1124,-1.0922,0.0,0.0,0.0,0.0,0.0,0.0,0.0,0.0,-1.285,0.0,-1.3164,-1.3442,-1.3674,-1.3932,-1.4181,-1.4291,-1.4112,-1.4052,-1.4312,-1.5046,-1.5185,-1.546,-1.5811,-1.6198,-1.6449,-1.6354,-1.6832,-1.7239,-1.7386,-1.7543,-1.7779,-1.8183,-1.8273,-1.8364,-1.8489,-1.8482,-1.858,-1.8755,-1.8714,-1.8694,-1.8782,-1.8849,-1.8895,-1.8808,-1.8998,-1.9121,-1.9208,-1.9341,-1.9483,-1.9615,-1.9671,-1.9747,-1.9868,-1.9933,-2.0085,-2.0227,-2.0281,-2.0335,-2.0551,-2.0551,-2.0593,-2.0624,-2.0635,-2.0624,-2.0504,-2.059,-2.07,-2.0892,-2.1019,-2.1233,-1.7147,-1.7134,-1.7093,-1.688,-1.6592,-1.6911,-1.6882,-1.6629,-1.7093,0.0,0.0,-1.6861,-1.6503,-1.6149,-1.5977,-1.551,-1.4761,-1.47,-1.4489,-1.4062,-1.3907,-1.371,-1.359,-1.3387,-1.325,-1.3122,-1.3122,-1.3045,-1.291,-1.2832,-1.2735,-1.2578,-1.248,-1.2372,-1.2382,-1.2126,-1.1977,-1.1927,-1.1877,-1.1669,-1.1427,-1.1267,-1.1116,-1.1015,-1.0616,-1.0689,-1.1086,-1.1146,-1.1477,-1.2129,-1.2313,-1.2435,-1.2498,-1.2367,-1.2313,-1.2498,-1.272,-1.2956,-1.3147,-1.3398,-1.3519,-1.3338,-1.3329,-1.3639,-1.4515,-1.4728,-1.5096,-1.556,-1.59,-1.6131,-1.6141,-1.6584,-1.7006,-1.7319,-1.7622,-1.7883,-1.8277,-1.8347,-1.8327,-1.8337,-1.8347,-1.8414,-1.8424,-1.8414,-1.8414,-1.8424,-1.8502,-1.858,-1.8559,-1.8741,-1.8942,-1.8942,-1.9075,-1.9142,-1.9218,-1.9341,-1.9539,-1.955,-1.9615,-1.9681,-1.9911,-1.99,-2.0009,-2.0227,-2.0281,-2.0259,-2.0291,-2.0248,-2.0183,-2.0009,-2.002,-2.0042,-2.0042,-2.0377,-2.0722,-1.6043,-1.6053,-1.5864,-1.5883,-1.6047,-1.519,-1.5213,-1.5801,-1.632,-1.6526,-1.6504,-1.5881,-1.5615,-1.5488,-1.5238,-1.507,-1.4956,-1.4727,-1.4592,-1.4531,-1.4479,-1.4153,-1.3691,-1.3631,-1.3392,-1.2988,-1.2822,-1.2725,-1.2578,-1.2431,-1.2332,-1.2175,-1.2026,-1.1927,-1.1828,-1.1669,-1.1528,-1.1427,-1.1418,-1.1276,-1.0972,-1.0871,-1.0718,-1.0573,-1.0419,-1.048,-1.0825,-1.0763,-1.1017,-1.1634,-1.1719,-1.1881,-1.2166,-1.212,-1.212,-1.2189,-1.2305,-1.2428,-1.2421,-1.2605,-1.2666,-1.2666,-1.2666,-1.2928,-1.3588,-1.4144,-1.4434,-1.4575,-1.5391,-1.6012,-1.603,-1.6536,-1.6924,-1.7163,-1.7269,-1.7385,-1.7619,-1.7736,-1.7794,-1.7784,-1.8008,-1.8046,-1.8046,-1.8182,-1.8172,-1.8134,-1.8212,-1.8347,-1.8347,-1.8482,-1.8549,-1.8607,-1.8617,-1.8674,-1.8875,-1.9075,-1.9208,-1.9351,-1.9483,-1.955,-1.9626,-1.9605,-1.9605,-1.9747,-1.9747,-1.9736,-1.9736,-1.9736,-1.9671,-1.966,-1.966,-1.9605,-1.9671,-1.9726,-1.9878,-1.5337,-1.5255,-1.5161,-1.5107,-1.498,-1.4694,-1.4919,-1.5423,-1.5298,-1.5488,-1.5785,-1.5394,-1.5195,-1.5143,-1.4934,-1.4644,-1.4399,-1.4245,-1.4114,-1.3842,-1.3751,-1.3551,-1.3254,-1.3145,-1.2908,-1.2686,-1.2529,-1.2421,-1.2283,-1.2126,-1.1977,-1.1778,-1.1628,-1.1519,-1.1377,-1.1326,-1.1175,-1.0964,-1.1124,-1.1074,-1.082,-1.0675,-1.0522,-1.0427,-1.0213,-1.0231,-1.0385,-1.0509,-1.0739,-1.1046,-1.1065,-1.1255,-1.1632,-1.1419,-1.1439,-1.1794,-1.1809,-1.1809,-1.1934,-1.1996,-1.2058,-1.2112,-1.2112,-1.2236,-1.2413,-1.3176,-1.378,-1.4174,-1.4709,-1.5172,-1.5446,-1.5797,-1.603,-1.6239,-1.6372,-1.6505,-1.6637,-1.6769,-1.6826,-1.6892,-1.7042,-1.7366,-1.7734,-1.7705,-1.7687,-1.7658,-1.7716,-1.7862,-1.7852,-1.793,-1.8076,-1.8405,-1.8482,-1.8559,-1.8617,-1.8684,-1.8808,-1.8875,-1.8952,-1.9019,-1.9096,-1.9096,-1.9085,-1.9274,-1.9274,-1.9285,-1.9341,-1.9274,-1.9208,-1.9142,-1.9075,-1.9008,-1.9008,-1.9008,-1.9218,-1.4846,-1.4616,-1.466,-1.4452,-1.4035,-1.4361,-1.4683,-1.4879,-1.4354,-1.4385,-1.4839,-1.4676,-1.4574,-1.4574,-1.4368,-1.4073,-1.3731,-1.3651,-1.3451,-1.3113,-1.291,-1.2783,-1.2725,-1.252,-1.2382,-1.2382,-1.2234,-1.2076,-1.1918,-1.1819,-1.1619,-1.1377,-1.1267,-1.1116,-1.1032,-1.1015,-1.0871,-1.0675,-1.082,-1.0828,-1.0675,-1.0522,-1.0427,-1.0265,-1.0051,-0.9947,-0.9962,-1.0234,-1.0409,-1.0492,-1.0457,-1.0624,-1.1049,-1.0797,-1.082,-1.1283,-1.1265,-1.1301,-1.1435,-1.1435,-1.1498,-1.1622,-1.1622,-1.1622,-1.1582,-1.2223,-1.2956,-1.3672,-1.3999,-1.4321,-1.4592,-1.492,-1.5098,-1.5301,-1.5495,-1.567,-1.5753,-1.5863,-1.5936,-1.6064,-1.6211,-1.6648,-1.7021,-1.7014,-1.693,-1.691,-1.7032,-1.7137,-1.7213,-1.725,-1.7542,-1.7988,-1.8269,-1.8212,-1.8279,-1.8347,-1.8414,-1.8414,-1.8414,-1.8549,-1.858,-1.8492,-1.8549,-1.8808,-1.8808,-1.8808,-1.9008,-1.8875,-1.8741,-1.8674,-1.8539,-1.8414,-1.8414,-1.8472,-1.8694,-1.4547,-1.4269,-1.4359,-1.4014,-1.3402,-1.3736,-1.3772,-1.3611,-1.3501,-1.3443,-1.3486,-1.3387,-1.3417,-1.3339,-1.3302,-1.3263,-1.3154,-1.2939,-1.2812,-1.2735,-1.2627,-1.2471,-1.2382,-1.2224,-1.2076,-1.1977,-1.1828,-1.1628,-1.1418,-1.1377,-1.1226,-1.0972,-1.0922,-1.0863,-1.0769,-1.0718,-1.0683,-1.0502,-1.0427,-1.0419,-1.0522,-1.0368,-1.0316,-1.0265,-1.0007,-0.9799,-0.9792,-0.971,-0.985,-1.0122,-1.0017,-1.0135,-1.0422,-1.0559,-1.0646,-1.0678,-1.0842,-1.097,-1.108,-1.0996,-1.0919,-1.1122,-1.1178,-1.1185,-1.1122,-1.1213,-1.1687,-1.2584,-1.3418,-1.3711,-1.3545,-1.4065,-1.445,-1.4668,-1.4833,-1.5041,-1.5192,-1.5431,-1.5551,-1.556,-1.5779,-1.6083,-1.6185,-1.6222,-1.6177,-1.5965,-1.602,-1.6112,-1.6352,-1.6559,-1.6766,-1.7182,-1.7442,-1.7588,-1.7657,-1.7872,-1.8008,-1.8076,-1.8212,-1.8279,-1.8212,-1.8144,-1.8134,-1.8269,-1.8337,-1.8405,-1.8472,-1.8405,-1.8337,-1.8279,-1.8144,-1.8076,-1.8076,-1.8134,-1.8502,-1.4186,-1.3858,-1.4089,-1.38,-1.3301,-1.3389,-1.3372,-1.3266,-1.3248,-1.3152,-1.3007,-1.2949,-1.3007,-1.3104,-1.292,-1.2881,-1.2832,-1.2676,-1.2529,-1.2431,-1.2332,-1.2166,-1.2076,-1.1828,-1.1728,-1.1628,-1.1477,-1.1276,-1.1175,-1.0922,-1.0718,-1.0573,-1.0411,-1.036,-1.0308,-1.0308,-1.0265,-1.034,-1.0118,-0.9999,-0.9991,-0.9999,-0.9999,-0.9888,-0.9681,-0.9577,-0.9569,-0.9413,-0.9425,-0.9546,-0.9454,-0.954,-0.996,-0.9771,-0.9795,-1.012,-1.0109,-1.0105,-1.0274,-1.0207,-1.0239,-1.0479,-1.0711,-1.0681,-1.0491,-1.087,-1.1192,-1.144,-1.2074,-1.2526,-1.2639,-1.3028,-1.3361,-1.3551,-1.3676,-1.3873,-1.4169,-1.4293,-1.4409,-1.4613,-1.4789,-1.5102,-1.5331,-1.5478,-1.5468,-1.5366,-1.5431,-1.5485,-1.5656,-1.5749,-1.5855,-1.617,-1.6338,-1.6729,-1.7179,-1.7461,-1.7598,-1.7676,-1.7745,-1.7803,-1.7647,-1.7725,-1.7735,-1.7794,-1.7794,-1.7862,-1.7988,-1.793,-1.7803,-1.7803,-1.7813,-1.7676,-1.7666,-1.7803,-1.7969,-1.38,-1.3478,-1.3614,-1.344,-1.3034,-1.3016,-1.3025,-1.2987,-1.2968,-1.2881,-1.2774,-1.2627,-1.2676,-1.2832,-1.2676,-1.2569,-1.2578,-1.2431,-1.2274,-1.2126,-1.1977,-1.1877,-1.1719,-1.1469,-1.1326,-1.1276,-1.1074,-1.0871,-1.0769,-1.0462,-1.0257,-1.0102,-0.994,-0.9888,-0.9844,-0.9836,-0.9903,-0.9925,-0.9829,-0.9715,-0.9655,-0.9662,-0.9671,-0.9524,-0.9413,-0.9368,-0.9361,-0.9263,-0.9204,-0.9204,-0.9008,-0.9104,-0.9472,-0.9118,-0.9092,-0.9526,-0.9466,-0.9453,-0.957,-0.953,-0.9586,-0.9893,-1.0146,-1.0128,-0.9955,-1.0388,-1.0628,-1.0718,-1.1087,-1.1512,-1.1988,-1.2305,-1.2498,-1.2621,-1.2805,-1.3042,-1.3294,-1.3329,-1.3484,-1.3769,-1.396,-1.4177,-1.455,-1.4657,-1.4655,-1.4672,-1.4698,-1.4804,-1.4866,-1.4845,-1.4902,-1.5201,-1.5338,-1.5742,-1.6702,-1.7028,-1.7097,-1.7166,-1.7245,-1.7176,-1.7028,-1.7176,-1.7323,-1.7314,-1.7323,-1.7392,-1.751,-1.7451,-1.7314,-1.7314,-1.7323,-1.7392,-1.7323,-1.7392,-1.7392,-1.3382,-1.3045,-1.2968,-1.2813,-1.254,-1.2666,-1.2618,-1.2569,-1.2529,-1.2529,-1.248,-1.2382,-1.2323,-1.2332,-1.2274,-1.2274,-1.2283,-1.2026,-1.1868,-1.1728,-1.1569,-1.1469,-1.1326,-1.1065,-1.0922,-1.0922,-1.0624,-1.036,-1.0051,-0.9895,-0.974,-0.9614,-0.9614,-0.9562,-0.9465,-0.942,-0.9427,-0.9463,-0.9578,-0.9686,-0.9638,-0.9474,-0.939,-0.9387,-0.9263,-0.9211,-0.9211,-0.9204,-0.9159,-0.9159,-0.8976,-0.8884,-0.9003,-0.8751,-0.8687,-0.8869,-0.894,-0.9078,-0.9247,-0.9091,-0.911,-0.9285,-0.9395,-0.9382,-0.9341,-0.9652,-1.0038,-1.0519,-1.0567,-1.0864,-1.1461,-1.1849,-1.212,-1.2305,-1.2613,-1.2744,-1.2867,-1.2981,-1.3111,-1.3302,-1.3467,-1.3675,-1.3822,-1.3873,-1.377,-1.3717,-1.3613,-1.3733,-1.4042,-1.3984,-1.4081,-1.436,-1.4471,-1.4673,-1.5861,-1.6314,-1.6471,-1.6682,-1.6682,-1.6682,-1.6612,-1.6673,-1.6751,-1.683,-1.6908,-1.6968,-1.7038,-1.7028,-1.6811,-1.6821,-1.7097,-1.7107,-1.7116,-1.7107,-1.7176,-1.3007,-1.2754,-1.2676,-1.251,-1.2286,-1.2363,-1.2382,-1.2224,-1.2234,-1.2224,-1.2076,-1.1977,-1.1877,-1.1778,-1.1619,-1.1678,-1.1877,-1.1719,-1.1528,-1.1318,-1.1175,-1.1023,-1.0922,-1.0624,-1.0522,-1.047,-1.0205,-0.9895,-0.9629,-0.9577,-0.942,-0.9263,-0.9204,-0.9159,-0.9061,-0.9001,-0.9015,-0.9029,-0.9018,-0.9031,-0.9163,-0.9128,-0.9161,-0.9227,-0.9045,-0.8962,-0.8962,-0.8844,-0.8878,-0.9078,-0.8982,-0.9013,-0.9121,-0.9034,-0.8903,-0.8743,-0.8751,-0.8713,-0.8657,-0.8594,-0.8543,-0.8669,-0.8932,-0.902,-0.898,-0.9244,-0.9485,-0.9583,-0.9821,-1.012,-1.0574,-1.1174,-1.1685,-1.1872,-1.2058,-1.2243,-1.2428,-1.2621,-1.2805,-1.2997,-1.3172,-1.3302,-1.3285,-1.3277,-1.3216,-1.3155,-1.3094,-1.3169,-1.319,-1.324,-1.3326,-1.3549,-1.3728,-1.4088,-1.479,-1.5292,-1.5661,-1.6027,-1.6193,-1.6202,-1.6123,-1.6342,-1.6421,-1.6412,-1.6412,-1.6482,-1.6621,-1.6751,-1.6533,-1.6603,-1.6821,-1.6968,-1.6908,-1.7047,-1.6968,-1.2578,-1.2421,-1.2274,-1.2116,-1.1891,-1.1959,-1.1977,-1.1819,-1.1828,-1.1769,-1.1678,-1.1586,-1.1486,-1.1326,-1.1065,-1.1065,-1.1318,-1.1276,-1.1167,-1.093,-1.082,-1.0667,-1.0462,-1.0265,-1.0102,-1.0051,-0.9747,-0.9472,-0.9256,-0.9211,-0.9106,-0.8896,-0.885,-0.8745,-0.8699,-0.8646,-0.8639,-0.8652,-0.8671,-0.8712,-0.8831,-0.8939,-0.9017,-0.9073,-0.8895,-0.8812,-0.8928,-0.8867,-0.889,-0.9021,-0.9047,-0.9023,-0.9014,-0.9045,-0.8921,-0.8715,-0.8576,-0.8474,-0.8417,-0.8366,-0.8273,-0.8303,-0.8492,-0.8582,-0.8447,-0.8731,-0.878,-0.8792,-0.9059,-0.9446,-0.9819,-1.0411,-1.0947,-1.1406,-1.1622,-1.1809,-1.212,-1.2313,-1.2498,-1.2621,-1.2875,-1.2944,-1.2805,-1.2858,-1.2858,-1.2797,-1.2674,-1.2621,-1.2621,-1.2629,-1.2623,-1.2798,-1.2964,-1.3204,-1.3664,-1.4048,-1.4765,-1.5223,-1.5523,-1.553,-1.5711,-1.5869,-1.6035,-1.5974,-1.5991,-1.5991,-1.6132,-1.6333,-1.6394,-1.6464,-1.6751,-1.6908,-1.6908,-1.6908,-1.6908,-1.2094,-1.2054,-1.1778,-1.156,-1.1392,-1.146,-1.1427,-1.1326,-1.1318,-1.1326,-1.1326,-1.1302,-1.1192,-1.1065,-1.0804,-1.0651,-1.0616,-1.0769,-1.0726,-1.0522,-1.047,-1.0316,-0.9999,-0.9895,-0.974,-0.9569,-0.9309,-0.9106,-0.9008,-0.8857,-0.8745,-0.8573,-0.8474,-0.8421,-0.8421,-0.8368,-0.8374,-0.8413,-0.853,-0.8737,-0.8813,-0.8896,-0.893,-0.8992,-0.8844,-0.8844,-0.9162,-0.9136,-0.9111,-0.9155,-0.9097,-0.8915,-0.88,-0.8812,-0.8717,-0.8687,-0.841,-0.8398,-0.8563,-0.8375,-0.8248,-0.8217,-0.8101,-0.8061,-0.8128,-0.8155,-0.8205,-0.8228,-0.8607,-0.9073,-0.9363,-0.9653,-1.0212,-1.1058,-1.1373,-1.156,-1.1747,-1.2003,-1.2127,-1.2305,-1.2552,-1.2621,-1.249,-1.2552,-1.2621,-1.2367,-1.2305,-1.2243,-1.2243,-1.2182,-1.2065,-1.215,-1.2274,-1.2554,-1.2646,-1.2817,-1.3693,-1.447,-1.467,-1.4847,-1.5099,-1.5236,-1.546,-1.5486,-1.5683,-1.5692,-1.5929,-1.6061,-1.6263,-1.6333,-1.6621,-1.6769,-1.6769,-1.6769,-1.6857,-1.1628,-1.1536,-1.1477,-1.1318,-1.1158,-1.1217,-1.1175,-1.1023,-1.1023,-1.1015,-1.0972,-1.0836,-1.0718,-1.0616,-1.0352,-1.0198,-1.0154,-1.0154,-1.0154,-1.0102,-1.0051,-0.994,-0.9732,-0.9569,-0.9375,-0.9061,-0.8956,-0.8798,-0.8633,-0.8533,-0.848,-0.8321,-0.8268,-0.8215,-0.8055,-0.8062,-0.8002,-0.7949,-0.8021,-0.8087,-0.8205,-0.8357,-0.8573,-0.8794,-0.8835,-0.8912,-0.9004,-0.8939,-0.8961,-0.912,-0.9071,-0.9083,-0.911,-0.9095,-0.9027,-0.889,-0.8617,-0.8476,-0.8453,-0.8323,-0.8204,-0.8108,-0.8096,-0.8184,-0.8287,-0.8219,-0.8259,-0.8369,-0.8691,-0.8955,-0.9302,-0.9499,-0.9946,-1.0717,-1.087,-1.1059,-1.131,-1.156,-1.1809,-1.1934,-1.2182,-1.2182,-1.205,-1.2182,-1.2189,-1.1996,-1.1872,-1.1809,-1.1809,-1.1685,-1.1622,-1.1685,-1.1824,-1.1956,-1.2178,-1.2284,-1.269,-1.3368,-1.3757,-1.4117,-1.438,-1.4665,-1.4816,-1.5055,-1.5258,-1.5429,-1.5604,-1.5859,-1.5991,-1.6132,-1.6342,-1.6412,-1.6491,-1.6491,-1.6578,-1.1276,-1.1175,-1.1074,-1.1015,-1.0871,-1.082,-1.0726,-1.0565,-1.0565,-1.0506,-1.0462,-1.0316,-1.0205,-1.0146,-0.988,-0.9777,-0.9784,-0.9636,-0.9584,-0.9629,-0.9688,-0.9577,-0.9361,-0.9197,-0.9001,-0.8745,-0.8692,-0.8533,-0.8328,-0.8268,-0.8156,-0.7996,-0.7949,-0.7901,-0.7788,-0.7741,-0.7729,-0.7622,-0.7622,-0.7643,-0.7743,-0.7902,-0.8103,-0.8283,-0.8421,-0.859,-0.8661,-0.8578,-0.8678,-0.8998,-0.9089,-0.9115,-0.9198,-0.9139,-0.9087,-0.8988,-0.8758,-0.8606,-0.8589,-0.8483,-0.8321,-0.8253,-0.8231,-0.8241,-0.8303,-0.8215,-0.8269,-0.8563,-0.8622,-0.8783,-0.9132,-0.926,-0.9631,-1.0135,-1.0491,-1.0751,-1.1059,-1.131,-1.1435,-1.156,-1.1692,-1.1685,-1.1615,-1.1685,-1.1747,-1.156,-1.1365,-1.1373,-1.1373,-1.1247,-1.1247,-1.1373,-1.1435,-1.1637,-1.1839,-1.1877,-1.1774,-1.2274,-1.2726,-1.3267,-1.3652,-1.399,-1.4239,-1.4457,-1.4709,-1.4874,-1.5072,-1.5562,-1.585,-1.5921,-1.5991,-1.6053,-1.6123,-1.6123,-1.6202,-1.0972,-1.0812,-1.0667,-1.0565,-1.047,-1.0308,-1.0154,-0.9999,-0.9999,-0.994,-0.9851,-0.9851,-0.9747,-0.9562,-0.9451,-0.9347,-0.9361,-0.9211,-0.9106,-0.9061,-0.9106,-0.9106,-0.8949,-0.8738,-0.8573,-0.8527,-0.8368,-0.8262,-0.8115,-0.7955,-0.7788,-0.7723,-0.7622,-0.7521,-0.7521,-0.7467,-0.7467,-0.7467,-0.7413,-0.7371,-0.729,-0.7467,-0.761,-0.7488,-0.7756,-0.8,-0.8131,-0.8202,-0.8452,-0.8877,-0.8918,-0.8924,-0.8888,-0.8829,-0.8829,-0.8894,-0.8635,-0.8619,-0.8753,-0.8639,-0.8499,-0.8443,-0.828,-0.8209,-0.8308,-0.8171,-0.8226,-0.8585,-0.8574,-0.8632,-0.8892,-0.8945,-0.9176,-0.9533,-1.0104,-1.0624,-1.0933,-1.1059,-1.1059,-1.1059,-1.1185,-1.1247,-1.1122,-1.1185,-1.1185,-1.1059,-1.0926,-1.0933,-1.0933,-1.087,-1.0863,-1.0933,-1.0996,-1.1269,-1.1471,-1.1457,-1.1346,-1.1473,-1.1917,-1.2432,-1.2945,-1.3283,-1.3613,-1.3902,-1.4117,-1.4279,-1.462,-1.5105,-1.5429,-1.5559,-1.5621,-1.5762,-1.5762,-1.5762,-1.5692,-1.0411,-1.0205,-1.0102,-0.9999,-0.9955,-0.9836,-0.9777,-0.9725,-0.9673,-0.9629,-0.9524,-0.9427,-0.9271,-0.9159,-0.9008,-0.8956,-0.8903,-0.8685,-0.858,-0.8527,-0.8355,-0.8415,-0.8533,-0.8374,-0.8215,-0.8109,-0.7943,-0.7889,-0.7854,-0.7634,-0.7574,-0.7574,-0.7461,-0.7419,-0.7365,-0.7365,-0.7257,-0.709,-0.7041,-0.6982,-0.6879,-0.6931,-0.6986,-0.6996,-0.7264,-0.7492,-0.7716,-0.793,-0.8112,-0.8366,-0.8565,-0.8506,-0.8376,-0.8447,-0.8511,-0.8376,-0.8441,-0.8382,-0.8312,-0.8447,-0.8409,-0.8292,-0.8249,-0.8313,-0.8593,-0.8312,-0.8433,-0.8697,-0.8765,-0.8777,-0.8902,-0.8972,-0.9151,-0.9448,-0.9856,-1.0174,-1.0301,-1.0561,-1.0681,-1.0555,-1.0744,-1.0744,-1.0618,-1.0681,-1.0744,-1.0555,-1.0491,-1.0428,-1.0428,-1.0364,-1.0301,-1.0428,-1.0561,-1.0835,-1.1038,-1.101,-1.0933,-1.0863,-1.1185,-1.1614,-1.2067,-1.2538,-1.2914,-1.3189,-1.3451,-1.3644,-1.411,-1.4629,-1.487,-1.5043,-1.5188,-1.5259,-1.5338,-1.5346,-1.5259,-0.9999,-0.9836,-0.9636,-0.9532,-0.9532,-0.9368,-0.9263,-0.9256,-0.9256,-0.9152,-0.8995,-0.8896,-0.8738,-0.8521,-0.8474,-0.8421,-0.8368,-0.8156,-0.8055,-0.7943,-0.7723,-0.7777,-0.7996,-0.7949,-0.7741,-0.7634,-0.7521,-0.7408,-0.7371,-0.7257,-0.7198,-0.7139,-0.7192,-0.7139,-0.7036,-0.7036,-0.6982,-0.682,-0.6717,-0.6603,-0.649,-0.6533,-0.6514,-0.6577,-0.6799,-0.7064,-0.7272,-0.7534,-0.7787,-0.8047,-0.8182,-0.8187,-0.8052,-0.8182,-0.8182,-0.8047,-0.8182,-0.8182,-0.8052,-0.8187,-0.8247,-0.8177,-0.8112,-0.8236,-0.8425,-0.8306,-0.8301,-0.8683,-0.8635,-0.8635,-0.877,-0.8829,-0.9022,-0.9221,-0.9478,-0.9658,-0.9786,-1.011,-1.011,-1.011,-1.0174,-1.0371,-1.0117,-1.0244,-1.0238,-1.011,-1.004,-0.9977,-0.9977,-0.9856,-0.9792,-0.9989,-1.0053,-1.0321,-1.0454,-1.0434,-1.0491,-1.0415,-1.0604,-1.0933,-1.1367,-1.1806,-1.2052,-1.2347,-1.2679,-1.3037,-1.3463,-1.3866,-1.4142,-1.4371,-1.4577,-1.4768,-1.4776,-1.4919,-1.4832,-0.9629,-0.9569,-0.9256,-0.9166,-0.9113,-0.885,-0.8804,-0.8752,-0.8804,-0.8639,-0.8421,-0.8374,-0.8203,-0.7877,-0.7877,-0.7877,-0.7824,-0.7622,-0.7461,-0.73,-0.7187,-0.7187,-0.7396,-0.7359,-0.7257,-0.7144,-0.709,-0.6928,-0.682,-0.682,-0.6761,-0.6701,-0.6701,-0.6647,-0.6598,-0.6652,-0.6593,-0.6549,-0.6435,-0.6344,-0.6276,-0.6299,-0.6294,-0.6177,-0.6384,-0.6641,-0.6863,-0.7068,-0.733,-0.7792,-0.7857,-0.7852,-0.7852,-0.7852,-0.7852,-0.7922,-0.7922,-0.7987,-0.7917,-0.7922,-0.7987,-0.7917,-0.7917,-0.7982,-0.8107,-0.8047,-0.8117,-0.8382,-0.8247,-0.8306,-0.8441,-0.8576,-0.8705,-0.884,-0.8969,-0.9081,-0.9268,-0.96,-0.9664,-0.9524,-0.967,-0.974,-0.974,-0.9734,-0.9722,-0.96,-0.953,-0.953,-0.9466,-0.9466,-0.9472,-0.9606,-0.967,-0.9734,-0.9862,-0.9913,-0.9983,-0.9977,-1.0174,-1.0434,-1.08,-1.1171,-1.1262,-1.1481,-1.1946,-1.231,-1.2583,-1.2945,-1.3401,-1.3839,-1.423,-1.4204,-1.4209,-1.4346,-1.441,-0.9316,-0.9256,-0.9015,-0.8857,-0.8857,-0.8586,-0.8474,-0.848,-0.848,-0.8262,-0.8055,-0.8002,-0.7842,-0.7563,-0.7461,-0.7419,-0.7359,-0.7149,-0.6928,-0.6652,-0.6598,-0.6544,-0.6647,-0.6766,-0.6761,-0.6593,-0.6544,-0.6376,-0.6258,-0.6317,-0.6317,-0.6317,-0.6322,-0.6268,-0.6164,-0.6164,-0.6109,-0.6032,-0.6086,-0.6097,-0.6085,-0.6182,-0.6122,-0.5916,-0.5988,-0.6233,-0.651,-0.6679,-0.6872,-0.7007,-0.7073,-0.7138,-0.7204,-0.7461,-0.7466,-0.74,-0.7722,-0.7792,-0.7531,-0.7596,-0.7731,-0.7727,-0.7657,-0.7657,-0.7792,-0.7792,-0.7797,-0.7927,-0.7987,-0.8047,-0.8052,-0.8117,-0.8343,-0.8489,-0.8489,-0.8398,-0.8436,-0.8958,-0.921,-0.921,-0.928,-0.9344,-0.9028,-0.9087,-0.9087,-0.9028,-0.9022,-0.9022,-0.9017,-0.9017,-0.9081,-0.9151,-0.9221,-0.9285,-0.935,-0.9472,-0.9536,-0.96,-0.9798,-0.9926,-1.0295,-1.0548,-1.0667,-1.0926,-1.1353,-1.1631,-1.1869,-1.2447,-1.2998,-1.3399,-1.3805,-1.3894,-1.3928,-1.3992,-1.392,-0.8956,-0.8896,-0.8639,-0.8487,-0.8321,-0.8162,-0.8049,-0.7996,-0.7996,-0.7842,-0.7634,-0.7574,-0.7413,-0.7198,-0.709,-0.7036,-0.6987,-0.6771,-0.649,-0.6273,-0.6218,-0.6164,-0.6059,-0.6223,-0.6218,-0.6105,-0.6114,-0.6,-0.5941,-0.5941,-0.6,-0.6,-0.6,-0.5946,-0.5837,-0.5782,-0.5732,-0.5626,-0.56,-0.5636,-0.5744,-0.585,-0.5944,-0.579,-0.5777,-0.5871,-0.6009,-0.6145,-0.6207,-0.621,-0.635,-0.6552,-0.6811,-0.7073,-0.7073,-0.7003,-0.7204,-0.74,-0.7204,-0.7204,-0.7335,-0.7339,-0.7199,-0.7265,-0.7335,-0.7335,-0.7335,-0.7405,-0.7466,-0.7531,-0.7601,-0.7778,-0.8006,-0.8184,-0.8173,-0.7966,-0.7736,-0.8234,-0.8694,-0.863,-0.863,-0.8694,-0.8565,-0.8501,-0.8501,-0.856,-0.8565,-0.8565,-0.8436,-0.8436,-0.8501,-0.863,-0.87,-0.8829,-0.8899,-0.9028,-0.9151,-0.928,-0.9344,-0.9472,-0.9722,-0.9913,-1.0168,-1.0491,-1.0814,-1.0975,-1.129,-1.194,-1.2555,-1.2851,-1.3179,-1.3467,-1.3637,-1.3484,-1.3411,-0.8639,-0.8521,-0.8215,-0.8008,-0.7842,-0.7735,-0.7568,-0.7521,-0.7467,-0.7413,-0.7257,-0.709,-0.6982,-0.682,-0.6657,-0.6593,-0.649,-0.6386,-0.6168,-0.6,-0.595,-0.5841,-0.5736,-0.5736,-0.5786,-0.5837,-0.5841,-0.5786,-0.5736,-0.574,-0.5736,-0.574,-0.5736,-0.5622,-0.5563,-0.5508,-0.5399,-0.5238,-0.5233,-0.5209,-0.5295,-0.5404,-0.5579,-0.5596,-0.5522,-0.5467,-0.5484,-0.555,-0.555,-0.555,-0.5686,-0.6017,-0.6346,-0.6675,-0.6745,-0.6609,-0.6745,-0.6811,-0.6745,-0.6811,-0.6811,-0.6811,-0.6741,-0.6741,-0.6937,-0.6872,-0.6872,-0.6876,-0.6942,-0.6964,-0.7118,-0.7373,-0.7632,-0.7848,-0.792,-0.7547,-0.7198,-0.7564,-0.7859,-0.7982,-0.8042,-0.8107,-0.8042,-0.7977,-0.8037,-0.8037,-0.8037,-0.8042,-0.7977,-0.7917,-0.8047,-0.8117,-0.8247,-0.8306,-0.8376,-0.8511,-0.87,-0.8829,-0.8894,-0.9022,-0.9145,-0.9344,-0.9594,-0.9983,-1.0251,-1.0467,-1.0806,-1.1441,-1.1913,-1.2287,-1.2614,-1.2933,-1.2973,-1.2907,-1.29,-0.8268,-0.8215,-0.7943,-0.7777,-0.7676,-0.7467,-0.7365,-0.7311,-0.7198,-0.709,-0.6933,-0.6815,-0.6652,-0.649,-0.6218,-0.6059,-0.6005,-0.5896,-0.5845,-0.5677,-0.5622,-0.5567,-0.5407,-0.5293,-0.5289,-0.5293,-0.5458,-0.5513,-0.5407,-0.5411,-0.5407,-0.5407,-0.5407,-0.5348,-0.5234,-0.5183,-0.5096,-0.4919,-0.4962,-0.4988,-0.5032,-0.5234,-0.5329,-0.5289,-0.509,-0.5027,-0.5027,-0.509,-0.5219,-0.5223,-0.5362,-0.5425,-0.555,-0.5947,-0.6148,-0.6152,-0.6284,-0.6416,-0.6346,-0.6346,-0.6346,-0.6416,-0.6346,-0.628,-0.6346,-0.6412,-0.6346,-0.6354,-0.6436,-0.6543,-0.6683,-0.6902,-0.7194,-0.7438,-0.738,-0.7166,-0.6974,-0.7053,-0.7263,-0.7336,-0.7461,-0.754,-0.7499,-0.7424,-0.7396,-0.7391,-0.7391,-0.7521,-0.7521,-0.7526,-0.7591,-0.7661,-0.7797,-0.7857,-0.7912,-0.8047,-0.8182,-0.8306,-0.8436,-0.8501,-0.863,-0.8835,-0.9092,-0.9344,-0.974,-1.0079,-1.0484,-1.0989,-1.1356,-1.1708,-1.2067,-1.2372,-1.2305,-1.2231,-1.2137,-0.7943,-0.7895,-0.7622,-0.7461,-0.7348,-0.7198,-0.7036,-0.6982,-0.6923,-0.6815,-0.6652,-0.649,-0.6381,-0.6164,-0.5891,-0.5727,-0.5563,-0.5559,-0.5454,-0.5348,-0.5344,-0.5289,-0.5128,-0.5014,-0.5014,-0.5011,-0.5175,-0.5175,-0.5073,-0.5128,-0.5128,-0.5073,-0.5073,-0.5018,-0.4934,-0.4941,-0.4798,-0.469,-0.4733,-0.4829,-0.4715,-0.4997,-0.5014,-0.496,-0.4758,-0.4691,-0.4694,-0.4758,-0.4821,-0.4891,-0.496,-0.496,-0.5024,-0.5153,-0.5488,-0.5624,-0.576,-0.5888,-0.5881,-0.5818,-0.5822,-0.5826,-0.5822,-0.5756,-0.5822,-0.5822,-0.5822,-0.5841,-0.5989,-0.6041,-0.6051,-0.6342,-0.6781,-0.7098,-0.6942,-0.6566,-0.6379,-0.6361,-0.65,-0.6708,-0.6839,-0.6861,-0.694,-0.6843,-0.6836,-0.6811,-0.6749,-0.6872,-0.7064,-0.7064,-0.7003,-0.7204,-0.7274,-0.733,-0.7391,-0.7526,-0.7727,-0.7852,-0.7917,-0.8047,-0.8182,-0.8312,-0.8511,-0.87,-0.9104,-0.9544,-0.9958,-1.0374,-1.071,-1.1077,-1.142,-1.1681,-1.17,-1.1626,-1.1539,-0.7616,-0.7568,-0.7311,-0.7149,-0.7036,-0.6879,-0.6766,-0.6652,-0.6593,-0.649,-0.6332,-0.6168,-0.6005,-0.5837,-0.5563,-0.5395,-0.5226,-0.5171,-0.512,-0.5073,-0.4959,-0.4904,-0.4846,-0.4791,-0.4739,-0.4684,-0.468,-0.4787,-0.4956,-0.4956,-0.4901,-0.4956,-0.4901,-0.4879,-0.4818,-0.4794,-0.4626,-0.4536,-0.4457,-0.4466,-0.4467,-0.4569,-0.4631,-0.4564,-0.4495,-0.4425,-0.4425,-0.4425,-0.4425,-0.4425,-0.4492,-0.4561,-0.4425,-0.4425,-0.4625,-0.5027,-0.5163,-0.5292,-0.5355,-0.5355,-0.5296,-0.5229,-0.5229,-0.5226,-0.516,-0.5229,-0.5243,-0.5282,-0.5423,-0.5484,-0.5435,-0.5808,-0.6162,-0.6324,-0.6162,-0.5893,-0.5651,-0.5604,-0.5728,-0.5874,-0.6097,-0.6224,-0.6252,-0.6267,-0.6206,-0.6222,-0.6152,-0.6152,-0.6346,-0.6346,-0.6416,-0.6613,-0.6745,-0.6806,-0.6933,-0.7064,-0.7199,-0.74,-0.7466,-0.7536,-0.7727,-0.7857,-0.8007,-0.8123,-0.8422,-0.8827,-0.9288,-0.9771,-1.0219,-1.0539,-1.0789,-1.1001,-1.1099,-1.1111,-1.1025,-0.7365,-0.7311,-0.7041,-0.6933,-0.6874,-0.6603,-0.6436,-0.6381,-0.6223,-0.6055,-0.6,-0.5782,-0.5567,-0.5348,-0.5124,-0.4952,-0.4897,-0.4794,-0.4739,-0.4688,-0.4629,-0.4574,-0.4515,-0.4353,-0.4356,-0.4353,-0.4187,-0.446,-0.468,-0.4846,-0.4857,-0.486,-0.4827,-0.4863,-0.4779,-0.4731,-0.4578,-0.4397,-0.4219,-0.4084,-0.398,-0.3949,-0.3956,-0.3959,-0.3892,-0.3892,-0.3892,-0.3892,-0.3892,-0.3892,-0.3892,-0.3892,-0.3892,-0.3892,-0.3959,-0.4225,-0.4428,-0.4691,-0.4758,-0.4761,-0.4761,-0.4694,-0.4694,-0.4558,-0.4576,-0.4587,-0.4689,-0.4795,-0.4833,-0.4856,-0.4857,-0.5098,-0.5261,-0.5319,-0.5295,-0.5076,-0.4886,-0.4854,-0.4988,-0.505,-0.5223,-0.5438,-0.56,-0.5607,-0.5624,-0.5579,-0.5599,-0.561,-0.5631,-0.5771,-0.5954,-0.6218,-0.6284,-0.6342,-0.6408,-0.6544,-0.6741,-0.6942,-0.7007,-0.7082,-0.7292,-0.7442,-0.7398,-0.7573,-0.7889,-0.8175,-0.8536,-0.9011,-0.9669,-1.0003,-1.0256,-1.0404,-1.0582,-1.0513,-1.0438,-0.6982,-0.7041,-0.6717,-0.6554,-0.65,-0.6277,-0.6173,-0.6119,-0.5955,-0.5786,-0.5622,-0.5513,-0.5238,-0.4908,-0.4684,-0.457,-0.4405,-0.4353,-0.4298,-0.4301,-0.4187,-0.4132,-0.4187,-0.4076,-0.4021,-0.4024,-0.4021,-0.4135,-0.4353,-0.4421,-0.4435,-0.4522,-0.4539,-0.4493,-0.4631,-0.4594,-0.4473,-0.4247,-0.396,-0.3716,-0.3616,-0.3558,-0.3491,-0.3491,-0.3491,-0.3424,-0.3426,-0.3493,-0.3493,-0.3426,-0.3426,-0.3424,-0.3357,-0.3357,-0.3357,-0.3288,-0.3558,-0.3825,-0.4092,-0.4225,-0.4161,-0.4095,-0.41,-0.419,-0.4094,-0.4051,-0.4023,-0.3992,-0.4133,-0.4213,-0.422,-0.4356,-0.4407,-0.4448,-0.4382,-0.4226,-0.4068,-0.4226,-0.4285,-0.4281,-0.4346,-0.4574,-0.479,-0.4834,-0.4879,-0.4971,-0.5044,-0.5108,-0.5251,-0.5473,-0.5652,-0.5888,-0.5885,-0.5881,-0.6013,-0.6148,-0.628,-0.6478,-0.6544,-0.6622,-0.692,-0.703,-0.7,-0.7017,-0.7276,-0.7548,-0.7806,-0.8432,-0.9139,-0.9421,-0.9697,-0.9728,-0.9836,-0.9841,-0.9771,-0.6657,-0.6717,-0.644,-0.6282,-0.6119,-0.6009,-0.5955,-0.5909,-0.574,-0.5521,-0.5242,-0.5077,-0.4743,-0.4463,-0.4353,-0.4184,-0.3965,-0.3913,-0.3913,-0.3858,-0.3799,-0.3744,-0.3744,-0.3685,-0.363,-0.3799,-0.3688,-0.3769,-0.3798,-0.3863,-0.3963,-0.4109,-0.42,-0.4225,-0.4338,-0.4296,-0.4229,-0.3908,-0.3647,-0.342,-0.3295,-0.3094,-0.3027,-0.296,-0.296,-0.296,-0.2958,-0.2958,-0.2958,-0.2958,-0.2891,-0.2891,-0.2824,-0.2757,-0.2755,-0.2688,-0.2822,-0.2956,-0.3291,-0.3424,-0.3493,-0.3429,-0.3368,-0.3394,-0.3472,-0.3428,-0.3343,-0.3291,-0.3495,-0.3543,-0.3438,-0.3567,-0.3587,-0.3521,-0.3448,-0.3292,-0.3214,-0.337,-0.3526,-0.3599,-0.3593,-0.3599,-0.3766,-0.3997,-0.4156,-0.4322,-0.4395,-0.452,-0.4714,-0.4913,-0.5059,-0.516,-0.5289,-0.5352,-0.5488,-0.562,-0.5752,-0.5951,-0.6017,-0.6133,-0.6384,-0.6535,-0.6498,-0.6588,-0.6768,-0.7,-0.7253,-0.7917,-0.851,-0.8665,-0.8732,-0.8912,-0.9008,-0.9013,-0.9256,-0.6228,-0.6232,-0.6228,-0.6119,-0.6,-0.5905,-0.585,-0.5795,-0.5466,-0.5242,-0.5018,-0.4577,-0.4359,-0.419,-0.4021,-0.3852,-0.3796,-0.3694,-0.3638,-0.3583,-0.3524,-0.3469,-0.3413,-0.3299,-0.3186,-0.3244,-0.3317,-0.3375,-0.3379,-0.3472,-0.3645,-0.3884,-0.3947,-0.4052,-0.4072,-0.4003,-0.3796,-0.3513,-0.3288,-0.3092,-0.296,-0.2691,-0.249,-0.2423,-0.2356,-0.2288,-0.2288,-0.2287,-0.2287,-0.2354,-0.2354,-0.2354,-0.2287,-0.2287,-0.222,-0.222,-0.222,-0.2354,-0.242,-0.2822,-0.3023,-0.2822,-0.2636,-0.2669,-0.281,-0.2809,-0.28,-0.2769,-0.2963,-0.2911,-0.2715,-0.2586,-0.2746,-0.2746,-0.2746,-0.2746,-0.2668,-0.2666,-0.2746,-0.2824,-0.2904,-0.2982,-0.2824,-0.3078,-0.3279,-0.3464,-0.3827,-0.3898,-0.399,-0.4191,-0.4198,-0.43,-0.4561,-0.4691,-0.4894,-0.5027,-0.5289,-0.5422,-0.5554,-0.5709,-0.5942,-0.5956,-0.6043,-0.6216,-0.6378,-0.655,-0.6707,-0.7163,-0.7475,-0.7656,-0.7838,-0.8237,-0.8399,-0.8399,-0.8722,-0.6005,-0.5841,-0.5845,-0.5791,-0.5727,-0.5572,-0.5462,-0.5403,-0.5128,-0.4904,-0.4688,-0.4356,-0.4079,-0.3916,-0.3802,-0.3635,-0.3522,-0.3352,-0.3309,-0.3249,-0.319,-0.3137,-0.3135,-0.3088,-0.3023,-0.3098,-0.3138,-0.318,-0.311,-0.3218,-0.3162,-0.3377,-0.3588,-0.3793,-0.3798,-0.3624,-0.3326,-0.3141,-0.2891,-0.2691,-0.2557,-0.2287,-0.2085,-0.2085,-0.1884,-0.1816,-0.1816,-0.1816,-0.1816,-0.1817,-0.1817,-0.1817,-0.1817,-0.1817,-0.1817,-0.1817,-0.1817,-0.1817,-0.1884,-0.2287,-0.2488,-0.2432,-0.2325,-0.2232,-0.2286,-0.2398,-0.2537,-0.2527,-0.232,-0.2178,-0.219,-0.2042,-0.2042,-0.212,-0.212,-0.212,-0.212,-0.2041,-0.2041,-0.212,-0.2357,-0.2515,-0.2357,-0.2195,-0.2414,-0.2627,-0.3018,-0.3312,-0.343,-0.3539,-0.3628,-0.3715,-0.3974,-0.4159,-0.4359,-0.4558,-0.4824,-0.4894,-0.4967,-0.5138,-0.5316,-0.5486,-0.5509,-0.5744,-0.5868,-0.594,-0.6063,-0.624,-0.6553,-0.7007,-0.7314,-0.7706,-0.7787,-0.771,-0.803,-0.5782,-0.5626,-0.5516,-0.5503,-0.5403,-0.5293,-0.5128,-0.5018,-0.4904,-0.4661,-0.4416,-0.4141,-0.3942,-0.3732,-0.3577,-0.341,-0.3247,-0.3127,-0.3005,-0.2954,-0.2902,-0.2885,-0.2885,-0.2834,-0.2737,-0.29,-0.2936,-0.293,-0.2867,-0.3038,-0.2957,-0.2982,-0.3069,-0.3241,-0.3332,-0.3224,-0.2958,-0.2757,-0.2557,-0.2288,-0.2221,-0.1884,-0.1748,-0.1681,-0.1547,-0.1479,-0.148,-0.1481,-0.1482,-0.1482,-0.1482,-0.1481,-0.1481,-0.1413,-0.1481,-0.1481,-0.1481,-0.1481,-0.1616,-0.1818,-0.2018,-0.2023,-0.1862,-0.184,-0.1893,-0.1868,-0.1675,-0.1794,-0.157,-0.1415,-0.1415,-0.1178,-0.1178,-0.1257,-0.1335,-0.1335,-0.1414,-0.1414,-0.1414,-0.1493,-0.165,-0.1729,-0.1886,-0.1729,-0.1881,-0.2175,-0.2589,-0.2835,-0.293,-0.3061,-0.3259,-0.3353,-0.3518,-0.3703,-0.3889,-0.3956,-0.4028,-0.4115,-0.4206,-0.4433,-0.4596,-0.4833,-0.4879,-0.479,-0.4953,-0.5151,-0.5321,-0.5395,-0.586,-0.6483,-0.6714,-0.6865,-0.6788,-0.6788,-0.7022,-0.5635,-0.5593,-0.5372,-0.5231,-0.5167,-0.5136,-0.4986,-0.4853,-0.473,-0.4515,-0.4161,-0.3818,-0.3633,-0.3638,-0.3392,-0.3206,-0.3028,-0.2915,-0.2798,-0.2669,-0.266,-0.2625,-0.2625,-0.2556,-0.2534,-0.2453,-0.2528,-0.262,-0.2619,-0.265,-0.2625,-0.2591,-0.2601,-0.2611,-0.2686,-0.2753,-0.2621,-0.2423,-0.2221,-0.2085,-0.1884,-0.1614,-0.1479,-0.1412,-0.1278,-0.1211,-0.1212,-0.1212,-0.1146,-0.1011,-0.1012,-0.1011,-0.101,-0.1078,-0.1078,-0.1078,-0.1011,-0.1078,-0.1078,-0.1414,-0.1348,-0.1425,-0.1254,-0.1142,-0.1095,-0.0898,-0.0689,-0.0784,-0.0629,-0.0393,-0.0236,-0.0157,-0.0314,-0.0393,-0.0471,-0.0629,-0.0707,-0.0629,-0.0629,-0.0707,-0.0707,-0.0786,-0.1179,-0.1336,-0.1413,-0.1712,-0.2144,-0.2339,-0.2459,-0.2561,-0.2779,-0.2775,-0.2874,-0.3048,-0.3169,-0.3228,-0.3299,-0.3316,-0.3496,-0.3846,-0.4013,-0.4184,-0.4143,-0.4026,-0.4213,-0.4618,-0.454,-0.4462,-0.5007,-0.5476,-0.5634,-0.5786,-0.5789,-0.5864,-0.6251,-0.5814,-0.5584,-0.5403,-0.5218,-0.5111,-0.5111,-0.5052,-0.4935,-0.4703,-0.4374,-0.4048,-0.3819,-0.3651,-0.3505,-0.3276,-0.3092,-0.2901,-0.2774,-0.2653,-0.2472,-0.2417,-0.2467,-0.241,-0.236,-0.2353,-0.242,-0.2447,-0.2423,-0.2445,-0.2424,-0.2391,-0.2351,-0.2153,-0.2085,-0.2153,-0.2151,-0.2085,-0.1884,-0.1816,-0.1748,-0.1681,-0.148,-0.1344,-0.1344,-0.1144,-0.1078,-0.101,-0.1011,-0.0877,-0.054,-0.0404,-0.0337,-0.0404,-0.0404,-0.0471,-0.0336,-0.0269,-0.0067,0.0067,0.0067,0.0136,-0.0207,-0.0424,-0.0218,-0.0075,-0.0,0.0078,0.0235,0.0236,0.0471,0.0786,0.0393,0.0236,0.0471,0.0471,0.0157,0.0079,0.0157,0.0157,0.0079,-0.0,-0.0707,-0.1179,-0.0864,-0.0864,-0.1021,-0.1395,-0.1914,-0.2043,-0.2173,-0.2352,-0.2199,-0.229,-0.2327,-0.2443,-0.2629,-0.2755,-0.2831,-0.3092,-0.3451,-0.3617,-0.3571,-0.3654,-0.3581,-0.3828,-0.3997,-0.3839,-0.3761,-0.4075,-0.4387,-0.4543,-0.4854,-0.5087,-0.5243,-0.5476,-0.5876,-0.5582,-0.5387,-0.5287,-0.5225,-0.524,-0.509,-0.4908,-0.4546,-0.42,-0.399,-0.381,-0.3593,-0.3362,-0.3177,-0.2923,-0.2733,-0.2547,-0.242,-0.2226,-0.2164,-0.2109,-0.2107,-0.2095,-0.205,-0.2174,-0.2194,-0.2162,-0.2035,-0.2068,-0.2016,-0.1882,-0.1748,-0.1681,-0.1681,-0.1748,-0.1816,-0.1681,-0.1614,-0.1548,-0.1481,-0.128,-0.1212,-0.1077,-0.0943,-0.0809,-0.0742,-0.0607,-0.054,-0.0067,0.0269,0.0471,0.047,0.0403,0.0403,0.0605,0.0873,0.0941,0.1076,0.1364,0.1245,0.0851,0.0723,0.0737,0.0982,0.1159,0.1171,0.1257,0.11,0.1258,0.1415,0.1021,0.1021,0.1258,0.11,0.0786,0.0707,0.0786,0.0864,0.0786,0.055,-0.0236,-0.0786,-0.0471,-0.0157,-0.0393,-0.0706,-0.1164,-0.1613,-0.1826,-0.1952,-0.1889,-0.1829,-0.1936,-0.2045,-0.2088,-0.2217,-0.2284,-0.2622,-0.2921,-0.2772,-0.27,-0.2913,-0.3122,-0.3052,-0.2981,-0.3059,-0.3137,-0.3137,-0.3294,-0.337,-0.3761,-0.4231,-0.4543,-0.4696,-0.5779,-0.5616,-0.5446,-0.5452,-0.5375,-0.533,-0.5074,-0.4568,-0.4139,-0.4023,-0.4057,-0.3544,-0.3322,-0.3201,-0.308,-0.2804,-0.2466,-0.2336,-0.2134,-0.1934,-0.1854,-0.173,-0.1665,-0.1664,-0.1721,-0.1666,-0.1674,-0.1799,-0.1611,-0.1746,-0.1613,-0.1412,-0.1412,-0.1344,-0.1412,-0.148,-0.1548,-0.1413,-0.1346,-0.1212,-0.1078,-0.1012,-0.0809,-0.0607,-0.0472,-0.027,-0.0135,0.0067,0.0135,0.0472,0.0942,0.1345,0.1547,0.1614,0.1614,0.1681,0.1951,0.1827,0.1902,0.2145,0.2202,0.1889,0.19,0.193,0.1895,0.202,0.2036,0.2043,0.2042,0.2043,0.2043,0.1886,0.1807,0.1729,0.1492,0.1414,0.1414,0.1414,0.1415,0.1336,0.1258,0.0786,0.0393,0.055,0.0393,0.0314,0.0079,-0.0314,-0.0854,-0.1539,-0.1592,-0.1702,-0.1651,-0.1608,-0.1653,-0.1703,-0.1684,-0.182,-0.1827,-0.2103,-0.1928,-0.1888,-0.2009,-0.2037,-0.1962,-0.1964,-0.2199,-0.2199,-0.2121,-0.2199,-0.2589,-0.2901,-0.3448,-0.3604,-0.3839,-0.6,-0.5819,-0.5795,-0.5621,-0.536,-0.5055,-0.4844,-0.4582,-0.4324,-0.4025,-0.3652,-0.3387,-0.3133,-0.3025,-0.2887,-0.2622,-0.2423,-0.2221,-0.2084,-0.1884,-0.1681,-0.1614,-0.1547,-0.1547,-0.1547,-0.1547,-0.1547,-0.1547,-0.1613,-0.1547,-0.1479,-0.1344,-0.1277,-0.121,-0.1211,-0.128,-0.1212,-0.1145,-0.101,-0.0741,-0.0607,-0.0405,-0.027,-0.0135,0.0135,0.027,0.0404,0.0876,0.0942,0.1144,0.148,0.1748,0.1614,0.1681,0.1817,0.2227,0.2325,0.229,0.2502,0.2698,0.2767,0.2748,0.2692,0.2658,0.2627,0.2655,0.2749,0.2591,0.2591,0.2591,0.2512,0.2356,0.2277,0.2199,0.2041,0.1884,0.1884,0.1728,0.1807,0.1651,0.1572,0.1415,0.11,0.1022,0.0864,0.0943,0.0786,0.0471,-0.0,-0.0699,-0.1148,-0.1196,-0.1253,-0.1151,-0.1195,-0.1248,-0.1231,-0.1295,-0.1347,-0.1314,-0.1181,-0.1129,-0.1086,-0.11,-0.11,-0.1258,-0.1493,-0.1415,-0.1336,-0.173,-0.2121,-0.2276,-0.251,-0.2744,-0.3059,-0.6017,-0.5822,-0.5822,-0.5624,-0.5226,-0.4764,-0.4495,-0.4361,-0.4161,-0.383,-0.3362,-0.3224,-0.2958,-0.2758,-0.2622,-0.249,-0.2288,-0.2018,-0.1883,-0.1748,-0.1547,-0.1412,-0.1412,-0.1412,-0.1412,-0.1412,-0.1412,-0.1344,-0.1412,-0.1412,-0.1277,-0.121,-0.121,-0.1144,-0.1144,-0.1146,-0.1146,-0.0944,-0.0674,-0.0202,0.0067,0.027,0.0405,0.0472,0.0741,0.0808,0.0876,0.1413,0.1547,0.1547,0.1748,0.1883,0.189,0.2035,0.2325,0.2684,0.2737,0.291,0.307,0.3277,0.3346,0.3396,0.3509,0.3552,0.3343,0.329,0.3057,0.2821,0.2979,0.3059,0.2902,0.2746,0.2746,0.2746,0.2588,0.2431,0.2276,0.212,0.1964,0.1808,0.1651,0.1493,0.1415,0.1336,0.1336,0.1179,0.1179,0.1022,0.055,0.0078,-0.0386,-0.0604,-0.06,-0.0668,-0.0653,-0.0637,-0.0628,-0.0625,-0.064,-0.0583,-0.0441,-0.0377,-0.0468,-0.0393,-0.0393,-0.055,-0.0629,-0.0707,-0.0786,-0.11,-0.1179,-0.1178,-0.1491,-0.1962,-0.2356,-0.5943,-0.5617,-0.5617,-0.5352,-0.4885,-0.4498,-0.4164,-0.3961,-0.3828,-0.356,-0.3226,-0.3023,-0.2757,-0.249,-0.2423,-0.2356,-0.2153,-0.1884,-0.1681,-0.1547,-0.1277,-0.121,-0.1143,-0.1143,-0.121,-0.1143,-0.1143,-0.121,-0.1143,-0.1143,-0.1144,-0.1076,-0.1144,-0.1077,-0.1078,-0.1012,-0.1012,-0.1012,-0.0472,0.0135,0.0607,0.0945,0.108,0.1079,0.128,0.1412,0.1412,0.1614,0.1748,0.1748,0.1816,0.2085,0.2319,0.2617,0.2922,0.3186,0.3315,0.3564,0.3745,0.3959,0.4075,0.413,0.433,0.4281,0.4144,0.3839,0.3524,0.3368,0.3604,0.3604,0.3526,0.3448,0.337,0.3294,0.3137,0.2901,0.2744,0.2511,0.2199,0.2043,0.1807,0.1729,0.1573,0.1493,0.1336,0.1336,0.1336,0.1258,0.11,0.0629,0.0389,0.0076,0.0076,0.0076,0.0148,0.0145,0.0142,0.0071,0.0072,0.0146,0.0371,0.0305,0.0157,0.0314,0.0471,0.0314,0.0236,0.0236,0.0157,-0.0,-0.0,0.0079,-0.0314,-0.0942,-0.1414,-0.5683,-0.5617,-0.5352,-0.4821,-0.4225,-0.4298,-0.403,-0.3629,-0.3429,-0.3226,-0.3025,-0.2691,-0.249,-0.2423,-0.2288,-0.2221,-0.2085,-0.1816,-0.1614,-0.1479,-0.121,-0.1076,-0.1076,-0.1076,-0.1076,-0.1076,-0.1076,-0.1076,-0.1076,-0.1077,-0.1078,-0.1078,-0.1078,-0.1011,-0.0944,-0.0809,-0.0742,-0.0809,-0.0202,0.027,0.0472,0.0877,0.108,0.1146,0.1279,0.1344,0.1412,0.1547,0.1816,0.2018,0.2221,0.2517,0.2842,0.3145,0.347,0.3822,0.3983,0.4177,0.444,0.4652,0.4701,0.4722,0.4833,0.4841,0.4693,0.4384,0.4151,0.4151,0.4151,0.4229,0.4229,0.4073,0.3997,0.3841,0.3686,0.345,0.3214,0.2901,0.2511,0.2277,0.2043,0.1886,0.1729,0.1573,0.1415,0.1336,0.1336,0.1258,0.1258,0.1022,0.1022,0.0854,0.0935,0.0926,0.0906,0.089,0.073,0.0802,0.0811,0.0968,0.12,0.1151,0.1178,0.1336,0.1493,0.1257,0.1178,0.1257,0.1257,0.1021,0.0942,0.0864,0.0864,0.0393,-0.0157,-0.555,-0.5484,-0.502,-0.4558,-0.4164,-0.3966,-0.3699,-0.3362,-0.3092,-0.2891,-0.2691,-0.249,-0.2356,-0.2356,-0.2221,-0.2221,-0.2153,-0.1748,-0.1614,-0.1479,-0.1277,-0.1143,-0.1076,-0.1076,-0.1076,-0.1076,-0.1076,-0.1077,-0.1077,-0.1078,-0.1079,-0.0877,-0.0877,-0.0742,-0.0674,-0.0405,-0.027,-0.0337,0.027,0.0606,0.0606,0.0944,0.1146,0.1145,0.1278,0.1412,0.1681,0.1883,0.2153,0.257,0.2858,0.3025,0.3373,0.3661,0.4014,0.4377,0.4605,0.4833,0.5081,0.5269,0.5321,0.5318,0.5321,0.5321,0.5243,0.4935,0.4696,0.4616,0.4616,0.4616,0.454,0.4462,0.4387,0.4231,0.3999,0.3763,0.345,0.3059,0.2746,0.2433,0.2199,0.2121,0.1964,0.173,0.1573,0.1493,0.1415,0.1336,0.1336,0.1336,0.1415,0.1415,0.1415,0.1413,0.1315,0.1293,0.1272,0.135,0.1429,0.1441,0.153,0.1939,0.212,0.2199,0.2199,0.2042,0.2041,0.212,0.1962,0.1727,0.1649,0.1649,0.1571,0.1493,0.0864,-0.5488,-0.5229,-0.4761,-0.4428,-0.4164,-0.3699,-0.3362,-0.3159,-0.2822,-0.2555,-0.2424,-0.2423,-0.2288,-0.2221,-0.2221,-0.2221,-0.2085,-0.1748,-0.1614,-0.1479,-0.1277,-0.1143,-0.1076,-0.1076,-0.1076,-0.1077,-0.1078,-0.1011,-0.0944,-0.1012,-0.0945,-0.0607,-0.0405,-0.0337,-0.0067,0.0135,0.027,0.0472,0.0943,0.1346,0.1414,0.1347,0.1347,0.1481,0.1547,0.1816,0.2153,0.2423,0.2624,0.3076,0.347,0.3811,0.4015,0.4264,0.4715,0.5019,0.5228,0.544,0.5693,0.5848,0.5864,0.5789,0.5792,0.5792,0.5792,0.5634,0.5318,0.5237,0.516,0.5004,0.4927,0.4851,0.4776,0.4543,0.4233,0.3999,0.3686,0.3294,0.2981,0.2666,0.2511,0.2356,0.212,0.1886,0.173,0.1572,0.1493,0.1415,0.1336,0.1415,0.1493,0.1572,0.1649,0.1647,0.1645,0.1706,0.1755,0.1757,0.184,0.1854,0.1945,0.2425,0.2668,0.2746,0.2744,0.2746,0.2746,0.2668,0.251,0.2353,0.2276,0.2119,0.1884,0.1727,0.1571,-0.5226,-0.4897,-0.4498,-0.4161,-0.3828,-0.3426,-0.3159,-0.2956,-0.2622,-0.2423,-0.2356,-0.2288,-0.2221,-0.2221,-0.2221,-0.2221,-0.2153,-0.1816,-0.1614,-0.1547,-0.1277,-0.1143,-0.1076,-0.1076,-0.1077,-0.1078,-0.1079,-0.0944,-0.0877,-0.1012,-0.1012,-0.0877,-0.0202,-0.0,0.0067,0.0405,0.0809,0.1012,0.1082,0.1354,0.1554,0.1619,0.1817,0.1884,0.1884,0.2085,0.2288,0.2554,0.2931,0.3405,0.4053,0.4429,0.4724,0.4949,0.5409,0.5701,0.5925,0.616,0.6328,0.6483,0.6483,0.656,0.656,0.6556,0.6483,0.6409,0.6173,0.6093,0.5938,0.5473,0.5398,0.5321,0.5246,0.4779,0.4389,0.4157,0.3921,0.3684,0.337,0.3057,0.2823,0.2668,0.2433,0.212,0.1807,0.1729,0.165,0.1572,0.1572,0.1573,0.1651,0.1806,0.1884,0.1885,0.1885,0.2038,0.2095,0.2177,0.2334,0.2417,0.2655,0.2971,0.3212,0.337,0.345,0.3528,0.345,0.3292,0.3136,0.2979,0.2746,0.2589,0.2354,0.204,0.1884]},{"header":{"parameterUnit":"m.s-1","parameterCategory":1,"la1":31.0,"la2":29.5877,"lo1":-88.7671,"lo2":-86.6584,"dy":0.0162,"dx":0.0185,"nx":115,"ny":88,"refTime":"2023-08-15T06:00:00:Z","depth":0,"parameterNumber":3,"parameterNumberName":"V-component_of_WINDS"},"data":[0.0,0.0,0.0,0.0,0.0,0.0,0.0,0.0,0.0,0.0,0.0,0.0,0.0,0.0,0.0,0.0,0.0,0.0,0.0,0.0,0.0,0.0,0.0,0.0,0.0,0.0,0.0,0.0,0.0,0.0,0.0,0.0,0.0,0.0,0.0,0.0,0.0,0.0,0.0,0.0,0.0,0.0,0.0,0.0,0.0,0.0,0.0,0.0,0.0,0.0,0.0,0.0,0.0,0.0,0.0,0.0,0.0,0.0,0.0,0.0,0.0,0.0,0.0,0.0,0.0,0.0,0.0,0.0,0.0,0.0,0.0,0.0,0.0,0.0,0.0,0.0,0.0,0.0,0.0,0.0,0.0,0.0,0.0,0.0,0.0,0.0,0.0,0.0,0.0,0.0,0.0,0.0,0.0,0.0,0.0,0.0,0.0,0.0,0.0,0.0,0.0,0.0,0.0,0.0,0.0,0.0,0.0,0.0,0.0,0.0,0.0,0.0,0.0,0.0,0.0,0.0,0.0,0.0,0.0,0.0,0.0,0.0,0.0,0.0,0.0,0.0,0.0,0.0,0.0,0.0,0.0,0.0,0.0,0.0,0.0,0.0,0.0,0.0,0.0,0.0,0.0,0.0,0.0,0.0,0.0,0.0,0.0,0.0,0.0,0.0,0.0,0.0,0.0,0.0,0.0,0.0,0.0,0.0,0.0,0.0,0.0,0.0,0.0,0.0,0.0,0.0,0.0,0.0,0.0,0.0,0.0,0.0,0.0,0.0,0.0,0.0,0.0,0.0,0.0,0.0,0.0,0.0,0.0,0.0,0.0,0.0,0.0,0.0,0.0,0.0,0.0,0.0,0.0,0.0,0.0,0.0,0.0,0.0,0.0,0.0,0.0,0.0,0.0,0.0,0.0,0.0,0.0,0.0,0.0,0.0,0.0,0.0,0.0,0.0,0.0,0.0,0.0,0.0,0.0,0.0,0.0,0.0,0.0,0.0,0.0,0.0,0.0,0.0,0.0,0.0,0.0,0.0,0.0,0.0,0.0,0.0,0.0,0.0,0.0,0.0,0.0,0.0,0.0,0.0,0.0,0.0,0.0,0.0,0.0,0.0,0.0,0.0,0.0,0.0,0.0,0.0,0.0,0.0,0.0,0.0,0.0,0.0,0.0,0.0,0.0,0.0,0.0,0.0,0.0,0.0,0.0,0.0,0.0,0.0,0.0,0.0,0.0,0.0,0.0,0.0,0.0,0.0,0.0,0.0,0.0,0.0,0.0,0.0,0.0,0.0,0.0,0.0,0.0,0.0,0.0,0.0,0.0,0.0,0.0,0.0,0.0,0.0,0.0,0.0,0.0,0.0,0.0,0.0,0.0,0.0,0.0,0.0,0.0,0.0,0.0,0.0,0.0,0.0,0.0,0.0,0.0,0.0,0.0,0.0,0.0,0.0,0.0,0.0,0.0,0.0,0.0,0.0,0.0,0.0,0.0,0.0,0.0,0.0,0.0,0.0,0.0,0.0,0.0,0.0,0.0,0.0,0.0,0.0,0.0,0.0,0.0,0.0,0.0,0.0,0.0,0.0,0.0,0.0,0.0,0.0,0.0,0.0,0.0,0.0,0.0,0.0,0.0,0.0,0.0,0.0,0.0,0.0,0.0,0.0,0.0,0.0,0.0,0.0,0.0,0.0,0.0,0.0,0.0,0.0,0.0,0.0,0.0,0.0,0.0,0.0,0.0,0.0,0.0,0.0,0.0,0.0,0.0,0.0,0.0,0.0,0.0,0.0,0.0,0.0,0.0,0.0,0.0,0.0,0.0,0.0,0.0,0.0,0.0,0.0,0.0,0.0,0.0,0.0,0.0,0.0,0.0,0.0,0.0,0.0,0.0,0.0,0.0,0.0,0.0,0.0,0.0,0.0,0.0,0.0,0.0,0.0,0.0,0.0,0.0,0.0,0.0,0.0,0.0,0.0,0.0,0.0,0.0,0.0,0.0,0.0,0.0,0.0,0.0,0.0,0.0,0.0,0.0,0.0,0.0,0.0,0.0,0.0,0.0,0.0,0.0,0.0,0.0,0.0,0.0,0.0,0.0,0.0,0.0,0.0,0.0,0.0,0.0,0.0,0.0,0.0,0.0,0.0,0.0,0.0,0.0,0.0,0.0,0.0,0.0,0.0,0.0,0.0,0.0,0.0,0.0,0.0,0.0,0.0,0.0,0.0,0.0,0.0,0.0,0.0,0.0,0.0,0.0,0.0,0.0,0.0,0.0,0.0,0.0,0.0,0.0,0.0,0.0,0.0,0.0,0.0,0.0,0.0,0.0,0.0,0.0,0.0,0.0,0.0,0.0,0.0,0.0,0.0,0.0,0.0,0.0,0.0,0.0,0.0,0.0,0.0,0.0,0.0,0.0,0.0,0.0,0.0,0.0,0.0,0.0,0.0,0.0,0.0,0.0,0.0,0.0,0.0,0.0,0.0,0.0,0.0,0.0,0.0,0.0,0.0,0.0,0.0,0.0,0.0,0.0,0.0,0.0,0.0,0.0,0.0,0.0,0.0,0.0,0.0,0.0,0.0,0.0,0.0,0.0,0.0,0.0,0.0,0.0,0.0,0.0,0.0,0.0,0.0,0.0,0.0,0.0,0.0,0.0,0.0,0.0,0.0,0.0,0.0,0.0,0.0,0.0,0.0,0.0,0.0,0.0,0.0,0.0,0.0,0.0,0.0,0.0,0.0,0.0,0.0,0.0,0.0,0.0,0.0,0.0,0.0,0.0,0.0,0.0,0.0,0.0,0.0,0.0,0.0,0.0,0.0,0.0,0.0,0.0,0.0,0.0,0.0,0.0,0.0,0.0,0.0,0.0,0.0,0.0,0.0,0.0,0.0,0.0,0.0,0.0,0.0,0.0,0.0,0.0,0.0,0.0,0.0,0.0,0.0,0.0,0.0,0.0,0.0,0.0,0.0,0.0,0.0,0.0,0.0,0.0,0.0,0.0,0.0,0.0,0.0,0.0,0.0,0.0,0.0,0.0,0.0,0.0,0.0,0.0,0.0,0.0,0.0,0.0,0.0,0.0,0.0,0.0,0.0,0.0,0.0,0.0,0.0,0.0,0.0,0.0,0.0,0.0,0.0,0.0,0.0,0.0,0.0,0.0,0.0,0.0,0.0,0.0,0.0,0.0,0.0,0.0,0.0,0.0,0.0,0.0,0.0,0.0,0.0,0.0,0.0,0.0,0.0,0.0,0.0,0.0,0.0,0.0,0.0,0.0,0.0,0.0,0.0,0.0,0.0,0.0,0.0,0.0,0.0,0.0,0.0,0.0,0.0,0.0,0.0,0.0,0.0,0.0,0.0,0.0,0.0,0.0,0.0,0.0,0.0,0.0,0.0,0.0,0.0,0.0,0.0,0.0,0.0,0.0,0.0,0.0,0.0,0.0,0.0,0.0,0.0,0.0,0.0,0.0,0.0,0.0,0.0,0.0,0.0,0.0,0.0,0.0,0.0,0.0,0.0,0.0,0.0,0.0,0.0,0.0,0.0,0.0,0.0,0.0,0.0,0.0,0.0,0.0,0.0,0.0,0.0,0.0,0.0,0.0,0.0,0.0,0.0,0.0,0.0,0.0,0.0,0.0,0.0,0.0,0.0,0.0,0.0,0.0,0.0,0.0,0.0,0.0,0.0,0.0,0.0,0.0,0.0,0.0,0.0,0.0,0.0,0.0,0.0,0.0,0.0,0.0,0.0,0.0,0.0,0.0,0.0,0.0,0.0,0.0,0.0,0.0,0.0,0.0,0.0,0.0,0.0,0.0,0.0,0.0,0.0,0.0,0.0,0.0,0.0,0.0,0.0,0.0,0.0,0.0,0.0,0.0,0.0,0.0,0.0,0.0,0.0,0.0,0.0,0.0,0.0,0.0,0.0,0.0,0.0,0.0,0.0,0.0,0.0,0.0,0.0,0.0,0.0,0.0,0.0,0.0,0.0,0.0,0.0,0.0,0.0,0.0,0.0,0.0,0.0,0.0,0.0,0.0,0.0,0.0,0.0,0.0,0.0,0.0,0.0,0.0,0.0,0.0,0.0,0.0,0.0,0.0,0.0,0.0,0.0,0.0,0.0,0.0,0.0,0.0,0.0,0.0,0.0,0.0,0.0,0.0,0.0,0.0,0.0,0.0,0.0,0.0,0.0,0.0,0.0,0.0,0.0,0.0,0.0,0.0,0.0,0.0,0.0,0.0,0.0,0.0,0.0,0.0,0.0,0.0,0.0,0.0,0.0,0.0,0.0,-2.366,0.0,0.0,0.0,0.0,0.0,0.0,0.0,0.0,0.0,0.0,0.0,0.0,0.0,0.0,0.0,0.0,0.0,0.0,0.0,0.0,0.0,0.0,0.0,0.0,0.0,0.0,0.0,0.0,0.0,0.0,0.0,0.0,0.0,0.0,0.0,0.0,0.0,0.0,0.0,0.0,0.0,0.0,0.0,0.0,0.0,0.0,0.0,0.0,0.0,0.0,0.0,0.0,0.0,0.0,0.0,0.0,0.0,0.0,0.0,0.0,0.0,0.0,0.0,0.0,0.0,0.0,0.0,0.0,0.0,0.0,0.0,0.0,0.0,0.0,0.0,0.0,0.0,0.0,0.0,0.0,0.0,0.0,0.0,0.0,0.0,0.0,0.0,0.0,0.0,0.0,0.0,0.0,0.0,0.0,0.0,0.0,0.0,0.0,0.0,0.0,0.0,0.0,0.0,0.0,0.0,0.0,0.0,0.0,0.0,0.0,-2.336,-2.3271,-2.3336,-2.336,-2.3389,0.0,0.0,0.0,0.0,0.0,0.0,0.0,0.0,0.0,0.0,0.0,0.0,0.0,0.0,0.0,0.0,0.0,0.0,0.0,0.0,0.0,0.0,0.0,0.0,0.0,0.0,0.0,0.0,0.0,0.0,0.0,0.0,0.0,0.0,0.0,0.0,0.0,0.0,0.0,0.0,0.0,0.0,0.0,0.0,0.0,0.0,0.0,0.0,0.0,0.0,0.0,0.0,0.0,0.0,0.0,0.0,0.0,0.0,0.0,0.0,0.0,0.0,0.0,0.0,0.0,0.0,0.0,0.0,0.0,0.0,0.0,0.0,0.0,0.0,0.0,0.0,0.0,0.0,0.0,0.0,0.0,0.0,0.0,0.0,0.0,0.0,0.0,0.0,0.0,0.0,0.0,0.0,0.0,0.0,0.0,0.0,0.0,0.0,0.0,0.0,0.0,0.0,0.0,0.0,0.0,0.0,0.0,0.0,0.0,0.0,0.0,0.0,-2.3045,-2.3095,-2.3102,0.0,0.0,0.0,0.0,0.0,0.0,0.0,0.0,0.0,0.0,0.0,0.0,0.0,0.0,0.0,0.0,0.0,0.0,0.0,0.0,0.0,0.0,0.0,0.0,0.0,0.0,0.0,0.0,0.0,0.0,0.0,0.0,0.0,0.0,0.0,0.0,0.0,0.0,0.0,0.0,0.0,0.0,0.0,0.0,0.0,0.0,0.0,0.0,0.0,0.0,0.0,0.0,0.0,0.0,0.0,0.0,0.0,0.0,0.0,0.0,0.0,0.0,0.0,0.0,0.0,0.0,0.0,0.0,0.0,0.0,0.0,0.0,0.0,0.0,0.0,0.0,0.0,0.0,0.0,0.0,0.0,0.0,0.0,0.0,0.0,0.0,0.0,0.0,0.0,0.0,0.0,0.0,0.0,0.0,0.0,0.0,0.0,0.0,0.0,0.0,0.0,0.0,0.0,0.0,0.0,0.0,0.0,0.0,0.0,0.0,-2.2738,-2.2712,-2.2738,0.0,-2.2825,0.0,0.0,0.0,0.0,0.0,0.0,0.0,0.0,0.0,0.0,0.0,0.0,0.0,0.0,0.0,0.0,0.0,0.0,0.0,0.0,0.0,0.0,0.0,0.0,0.0,0.0,0.0,0.0,0.0,0.0,0.0,0.0,0.0,0.0,0.0,0.0,0.0,0.0,0.0,0.0,0.0,0.0,0.0,0.0,0.0,0.0,0.0,0.0,0.0,0.0,0.0,0.0,0.0,0.0,0.0,0.0,0.0,0.0,0.0,0.0,0.0,0.0,0.0,0.0,0.0,0.0,0.0,0.0,0.0,0.0,0.0,0.0,0.0,0.0,0.0,0.0,0.0,0.0,0.0,0.0,0.0,0.0,0.0,0.0,0.0,0.0,0.0,0.0,0.0,0.0,0.0,0.0,0.0,0.0,0.0,0.0,0.0,0.0,0.0,0.0,0.0,0.0,0.0,0.0,0.0,0.0,0.0,0.0,0.0,0.0,-2.2453,-2.2281,-2.2326,-2.2436,0.0,0.0,0.0,0.0,0.0,0.0,0.0,0.0,0.0,0.0,0.0,0.0,0.0,0.0,0.0,0.0,0.0,0.0,0.0,0.0,0.0,0.0,0.0,0.0,0.0,0.0,0.0,0.0,0.0,0.0,0.0,0.0,0.0,0.0,0.0,0.0,0.0,0.0,0.0,0.0,0.0,0.0,0.0,0.0,0.0,0.0,0.0,0.0,0.0,0.0,0.0,0.0,0.0,0.0,0.0,0.0,0.0,0.0,0.0,0.0,0.0,0.0,0.0,0.0,0.0,0.0,0.0,0.0,0.0,0.0,0.0,0.0,0.0,0.0,0.0,0.0,0.0,0.0,0.0,0.0,0.0,0.0,0.0,0.0,0.0,0.0,0.0,0.0,0.0,0.0,0.0,0.0,0.0,0.0,0.0,0.0,0.0,0.0,0.0,0.0,0.0,0.0,0.0,0.0,0.0,0.0,0.0,0.0,0.0,0.0,-2.226,-2.2101,-2.1882,-2.1924,-2.2056,-2.2276,0.0,0.0,0.0,0.0,0.0,0.0,0.0,0.0,0.0,0.0,0.0,0.0,0.0,0.0,0.0,0.0,0.0,0.0,0.0,0.0,0.0,0.0,0.0,0.0,0.0,0.0,0.0,0.0,0.0,0.0,0.0,0.0,0.0,0.0,0.0,0.0,0.0,0.0,0.0,0.0,0.0,0.0,0.0,0.0,0.0,0.0,0.0,0.0,0.0,0.0,0.0,0.0,0.0,0.0,0.0,0.0,0.0,0.0,0.0,0.0,0.0,0.0,0.0,0.0,0.0,0.0,0.0,0.0,0.0,0.0,0.0,0.0,0.0,0.0,0.0,0.0,0.0,0.0,0.0,0.0,0.0,0.0,0.0,0.0,0.0,0.0,0.0,0.0,0.0,0.0,0.0,0.0,0.0,0.0,0.0,0.0,0.0,0.0,0.0,0.0,0.0,0.0,0.0,0.0,0.0,0.0,0.0,0.0,-2.2027,-2.1811,-2.1678,-2.1524,-2.1507,-2.1584,0.0,0.0,0.0,0.0,0.0,0.0,0.0,0.0,0.0,0.0,0.0,0.0,0.0,0.0,0.0,0.0,0.0,0.0,0.0,0.0,0.0,0.0,0.0,0.0,0.0,0.0,0.0,0.0,0.0,0.0,0.0,0.0,0.0,0.0,0.0,0.0,0.0,0.0,0.0,0.0,0.0,0.0,0.0,0.0,0.0,0.0,0.0,0.0,0.0,0.0,0.0,0.0,0.0,0.0,0.0,0.0,0.0,0.0,0.0,0.0,0.0,0.0,0.0,0.0,0.0,0.0,0.0,0.0,0.0,0.0,0.0,0.0,0.0,0.0,0.0,0.0,0.0,0.0,0.0,0.0,0.0,0.0,0.0,0.0,0.0,0.0,0.0,0.0,0.0,0.0,0.0,0.0,0.0,0.0,0.0,0.0,0.0,0.0,0.0,0.0,0.0,0.0,0.0,0.0,0.0,0.0,0.0,0.0,0.0,-2.1738,-2.1464,-2.1246,-2.1119,-2.1198,-2.1324,0.0,0.0,0.0,0.0,0.0,0.0,0.0,0.0,0.0,0.0,0.0,0.0,0.0,0.0,0.0,0.0,0.0,0.0,0.0,0.0,0.0,0.0,0.0,0.0,0.0,0.0,0.0,0.0,0.0,0.0,0.0,0.0,0.0,0.0,0.0,0.0,0.0,0.0,0.0,0.0,0.0,0.0,0.0,0.0,0.0,0.0,0.0,0.0,0.0,0.0,0.0,0.0,0.0,0.0,0.0,0.0,0.0,0.0,0.0,0.0,0.0,0.0,0.0,0.0,0.0,0.0,0.0,0.0,0.0,0.0,0.0,0.0,0.0,0.0,0.0,0.0,0.0,0.0,0.0,0.0,0.0,0.0,0.0,0.0,0.0,0.0,0.0,0.0,0.0,0.0,0.0,0.0,0.0,0.0,0.0,0.0,0.0,0.0,0.0,0.0,0.0,0.0,0.0,0.0,0.0,0.0,0.0,0.0,0.0,-2.1246,0.0,-2.086,-2.0712,-2.0827,-2.0958,0.0,0.0,0.0,0.0,0.0,0.0,0.0,0.0,0.0,0.0,0.0,0.0,0.0,0.0,0.0,0.0,0.0,0.0,0.0,0.0,0.0,0.0,0.0,0.0,0.0,0.0,0.0,0.0,0.0,0.0,0.0,0.0,0.0,0.0,0.0,0.0,0.0,0.0,0.0,0.0,0.0,0.0,0.0,0.0,0.0,0.0,0.0,0.0,0.0,0.0,0.0,0.0,0.0,0.0,0.0,0.0,0.0,0.0,0.0,0.0,0.0,0.0,0.0,0.0,0.0,0.0,0.0,0.0,0.0,0.0,0.0,0.0,0.0,0.0,0.0,0.0,0.0,0.0,0.0,0.0,0.0,0.0,0.0,0.0,0.0,0.0,0.0,0.0,0.0,0.0,0.0,0.0,0.0,0.0,0.0,0.0,0.0,0.0,0.0,0.0,0.0,0.0,0.0,0.0,0.0,0.0,0.0,0.0,-2.1023,-2.0512,-2.0509,-2.0457,-2.0289,-2.0404,-2.0457,0.0,0.0,0.0,0.0,0.0,0.0,0.0,0.0,0.0,0.0,0.0,0.0,0.0,0.0,0.0,0.0,0.0,0.0,0.0,0.0,0.0,0.0,0.0,0.0,0.0,0.0,0.0,0.0,0.0,0.0,0.0,0.0,0.0,0.0,0.0,0.0,0.0,0.0,0.0,0.0,0.0,0.0,0.0,0.0,0.0,0.0,0.0,0.0,0.0,0.0,0.0,0.0,0.0,0.0,0.0,0.0,0.0,0.0,0.0,0.0,0.0,0.0,0.0,0.0,0.0,0.0,0.0,0.0,0.0,0.0,0.0,0.0,0.0,0.0,0.0,0.0,0.0,0.0,0.0,0.0,0.0,0.0,0.0,0.0,0.0,0.0,0.0,0.0,0.0,0.0,0.0,0.0,0.0,0.0,0.0,0.0,0.0,0.0,0.0,0.0,0.0,0.0,0.0,0.0,0.0,0.0,0.0,0.0,0.0,-2.0166,-2.0559,-2.0487,-1.9935,-2.0436,-2.061,0.0,0.0,0.0,0.0,0.0,0.0,0.0,0.0,0.0,0.0,0.0,0.0,0.0,0.0,0.0,0.0,0.0,0.0,0.0,0.0,0.0,0.0,0.0,0.0,0.0,0.0,0.0,0.0,0.0,0.0,0.0,0.0,0.0,0.0,0.0,0.0,0.0,0.0,0.0,0.0,0.0,0.0,0.0,0.0,0.0,0.0,0.0,0.0,0.0,0.0,0.0,0.0,0.0,0.0,0.0,0.0,0.0,0.0,0.0,0.0,0.0,0.0,0.0,0.0,0.0,0.0,0.0,0.0,0.0,0.0,0.0,0.0,0.0,0.0,0.0,0.0,0.0,0.0,0.0,0.0,0.0,0.0,0.0,0.0,0.0,0.0,0.0,0.0,0.0,0.0,0.0,0.0,0.0,0.0,0.0,0.0,0.0,0.0,0.0,0.0,0.0,0.0,0.0,0.0,0.0,0.0,0.0,0.0,0.0,-1.9683,-2.0167,-2.025,-1.9916,-2.025,-2.0397,-2.033,0.0,0.0,0.0,0.0,0.0,0.0,0.0,0.0,0.0,0.0,0.0,0.0,0.0,0.0,0.0,0.0,0.0,0.0,0.0,0.0,0.0,0.0,0.0,0.0,0.0,0.0,0.0,0.0,0.0,0.0,0.0,0.0,0.0,0.0,0.0,0.0,0.0,0.0,0.0,0.0,0.0,0.0,0.0,0.0,0.0,0.0,0.0,0.0,0.0,0.0,0.0,0.0,0.0,0.0,0.0,0.0,0.0,0.0,0.0,0.0,0.0,0.0,0.0,0.0,0.0,0.0,0.0,0.0,0.0,0.0,0.0,0.0,0.0,0.0,0.0,0.0,0.0,0.0,0.0,0.0,0.0,0.0,0.0,0.0,0.0,0.0,0.0,0.0,0.0,0.0,0.0,0.0,0.0,0.0,0.0,0.0,0.0,0.0,0.0,0.0,0.0,0.0,0.0,0.0,0.0,0.0,0.0,0.0,-1.9101,-1.9413,-1.976,-2.0075,-1.9819,-1.9886,0.0,0.0,0.0,0.0,0.0,0.0,0.0,0.0,0.0,0.0,0.0,0.0,0.0,0.0,0.0,0.0,0.0,0.0,0.0,0.0,0.0,0.0,0.0,0.0,0.0,0.0,0.0,0.0,0.0,0.0,0.0,0.0,0.0,0.0,0.0,0.0,0.0,0.0,0.0,0.0,0.0,0.0,0.0,0.0,0.0,0.0,0.0,0.0,0.0,0.0,0.0,0.0,0.0,0.0,0.0,0.0,0.0,0.0,0.0,0.0,0.0,0.0,0.0,0.0,0.0,0.0,0.0,0.0,0.0,0.0,0.0,0.0,0.0,0.0,0.0,0.0,0.0,0.0,0.0,0.0,0.0,0.0,0.0,0.0,0.0,0.0,0.0,0.0,0.0,0.0,0.0,0.0,0.0,0.0,0.0,0.0,0.0,0.0,0.0,0.0,0.0,0.0,0.0,0.0,0.0,0.0,0.0,0.0,0.0,-1.9035,-1.9101,-1.9179,-1.9181,-1.9667,-1.9888,0.0,0.0,0.0,0.0,0.0,0.0,0.0,0.0,0.0,0.0,0.0,0.0,0.0,0.0,0.0,0.0,0.0,0.0,0.0,0.0,0.0,0.0,0.0,0.0,0.0,0.0,0.0,0.0,0.0,0.0,0.0,0.0,0.0,0.0,0.0,0.0,0.0,0.0,0.0,0.0,0.0,0.0,0.0,0.0,0.0,0.0,0.0,0.0,0.0,0.0,0.0,0.0,0.0,0.0,0.0,0.0,0.0,0.0,0.0,0.0,0.0,0.0,0.0,0.0,0.0,0.0,0.0,0.0,0.0,0.0,0.0,0.0,0.0,0.0,0.0,0.0,0.0,0.0,0.0,0.0,0.0,0.0,0.0,0.0,0.0,0.0,0.0,0.0,0.0,0.0,0.0,0.0,0.0,0.0,0.0,0.0,0.0,0.0,0.0,0.0,0.0,0.0,0.0,0.0,0.0,0.0,0.0,0.0,-1.8941,-1.8889,-1.8879,-1.8865,-1.8774,-1.9339,-1.9677,0.0,0.0,0.0,0.0,0.0,0.0,0.0,0.0,0.0,0.0,0.0,0.0,0.0,0.0,0.0,0.0,0.0,0.0,0.0,0.0,0.0,0.0,0.0,0.0,0.0,0.0,0.0,0.0,0.0,0.0,0.0,0.0,0.0,0.0,0.0,0.0,0.0,0.0,0.0,0.0,0.0,0.0,0.0,0.0,0.0,0.0,0.0,0.0,0.0,0.0,0.0,0.0,0.0,0.0,0.0,0.0,0.0,0.0,0.0,0.0,0.0,0.0,0.0,0.0,0.0,0.0,0.0,0.0,0.0,0.0,0.0,0.0,0.0,0.0,0.0,0.0,0.0,0.0,0.0,0.0,0.0,0.0,0.0,0.0,0.0,0.0,0.0,0.0,0.0,0.0,0.0,0.0,0.0,0.0,0.0,0.0,0.0,0.0,0.0,0.0,0.0,0.0,0.0,0.0,0.0,0.0,0.0,0.0,-1.8927,-1.8705,-1.8701,-1.8725,-1.8764,-1.8865,-1.9315,0.0,0.0,0.0,0.0,0.0,0.0,0.0,0.0,0.0,0.0,0.0,0.0,0.0,0.0,0.0,0.0,0.0,0.0,0.0,0.0,0.0,0.0,0.0,0.0,0.0,0.0,0.0,0.0,0.0,0.0,0.0,0.0,0.0,0.0,0.0,0.0,0.0,0.0,0.0,0.0,0.0,0.0,0.0,0.0,0.0,0.0,0.0,0.0,0.0,0.0,0.0,0.0,0.0,0.0,0.0,0.0,0.0,0.0,0.0,0.0,0.0,0.0,0.0,0.0,0.0,0.0,0.0,0.0,0.0,0.0,0.0,0.0,0.0,0.0,0.0,0.0,0.0,0.0,0.0,0.0,0.0,0.0,0.0,0.0,0.0,0.0,0.0,0.0,0.0,0.0,0.0,0.0,0.0,0.0,0.0,0.0,0.0,0.0,0.0,0.0,0.0,0.0,0.0,0.0,0.0,0.0,0.0,0.0,-1.914,-1.8784,-1.8736,-1.8803,-1.8917,-1.8841,-1.896,0.0,0.0,0.0,0.0,0.0,0.0,0.0,0.0,0.0,0.0,0.0,0.0,0.0,0.0,0.0,0.0,0.0,0.0,0.0,0.0,0.0,0.0,0.0,0.0,0.0,0.0,0.0,0.0,0.0,0.0,0.0,0.0,0.0,0.0,0.0,0.0,0.0,0.0,0.0,0.0,0.0,0.0,0.0,0.0,0.0,0.0,0.0,0.0,-2.7137,0.0,0.0,0.0,0.0,0.0,0.0,0.0,0.0,0.0,0.0,0.0,0.0,0.0,0.0,0.0,0.0,0.0,0.0,0.0,0.0,0.0,0.0,0.0,0.0,0.0,0.0,0.0,0.0,0.0,0.0,0.0,0.0,0.0,0.0,0.0,0.0,0.0,0.0,0.0,0.0,0.0,0.0,0.0,0.0,0.0,0.0,0.0,0.0,0.0,0.0,0.0,0.0,0.0,0.0,0.0,0.0,0.0,0.0,0.0,-1.9268,-1.8793,-1.8784,-1.8827,-1.8993,-1.8827,-1.8851,0.0,0.0,0.0,0.0,0.0,0.0,0.0,0.0,0.0,0.0,0.0,0.0,0.0,0.0,0.0,0.0,0.0,0.0,0.0,0.0,0.0,0.0,0.0,0.0,0.0,0.0,0.0,0.0,0.0,0.0,0.0,0.0,0.0,0.0,0.0,0.0,0.0,0.0,0.0,0.0,0.0,0.0,0.0,0.0,0.0,0.0,0.0,0.0,0.0,0.0,0.0,0.0,0.0,0.0,0.0,0.0,0.0,0.0,0.0,0.0,0.0,0.0,0.0,0.0,0.0,0.0,0.0,0.0,0.0,0.0,0.0,0.0,0.0,0.0,0.0,0.0,0.0,0.0,0.0,0.0,0.0,0.0,0.0,0.0,0.0,0.0,0.0,0.0,0.0,0.0,0.0,0.0,0.0,0.0,0.0,0.0,0.0,0.0,0.0,0.0,0.0,0.0,0.0,0.0,0.0,0.0,0.0,-1.9498,-1.949,-1.8989,-1.8851,-1.8874,-1.8993,-1.8874,-1.8874,-1.8979,0.0,0.0,0.0,0.0,0.0,0.0,0.0,0.0,0.0,0.0,0.0,0.0,0.0,0.0,0.0,0.0,0.0,0.0,0.0,0.0,0.0,0.0,0.0,0.0,0.0,0.0,0.0,0.0,0.0,0.0,0.0,0.0,0.0,0.0,0.0,0.0,0.0,0.0,-2.4644,-2.4977,0.0,0.0,0.0,0.0,0.0,0.0,0.0,0.0,-2.9084,0.0,0.0,0.0,0.0,0.0,0.0,0.0,0.0,0.0,0.0,0.0,0.0,0.0,0.0,0.0,0.0,0.0,0.0,0.0,0.0,0.0,0.0,0.0,0.0,0.0,0.0,0.0,0.0,0.0,0.0,0.0,0.0,0.0,0.0,0.0,0.0,0.0,0.0,0.0,0.0,0.0,0.0,0.0,0.0,0.0,0.0,0.0,0.0,0.0,0.0,0.0,0.0,0.0,0.0,0.0,0.0,-1.9511,-2.0172,-2.0268,-1.9728,-1.9132,-1.8874,-1.8979,-1.8889,-1.8874,-1.8979,0.0,0.0,0.0,0.0,0.0,0.0,0.0,0.0,0.0,0.0,0.0,0.0,0.0,0.0,0.0,0.0,0.0,0.0,0.0,0.0,0.0,0.0,0.0,0.0,0.0,0.0,0.0,0.0,0.0,0.0,0.0,0.0,0.0,0.0,0.0,0.0,0.0,0.0,0.0,-2.6218,-2.6468,0.0,0.0,0.0,0.0,0.0,0.0,0.0,0.0,-2.9725,0.0,0.0,0.0,0.0,0.0,0.0,0.0,0.0,0.0,0.0,0.0,0.0,0.0,0.0,0.0,0.0,0.0,0.0,0.0,0.0,0.0,0.0,0.0,0.0,0.0,0.0,0.0,0.0,0.0,0.0,0.0,0.0,0.0,0.0,0.0,0.0,0.0,0.0,0.0,0.0,0.0,0.0,0.0,0.0,0.0,0.0,0.0,0.0,0.0,0.0,0.0,0.0,0.0,0.0,0.0,-2.0201,-2.0568,-2.0534,-2.0059,-1.9382,-1.9116,-1.9168,-1.9064,-1.9116,0.0,0.0,0.0,0.0,0.0,0.0,0.0,0.0,0.0,0.0,0.0,0.0,0.0,0.0,0.0,0.0,0.0,0.0,0.0,0.0,0.0,0.0,0.0,0.0,0.0,0.0,0.0,0.0,0.0,0.0,0.0,0.0,0.0,0.0,0.0,0.0,0.0,0.0,0.0,0.0,-2.6452,-2.6874,-2.78,0.0,0.0,0.0,0.0,0.0,0.0,-3.0419,-3.059,0.0,0.0,0.0,0.0,0.0,0.0,0.0,0.0,0.0,0.0,0.0,0.0,0.0,0.0,0.0,0.0,0.0,0.0,0.0,0.0,0.0,0.0,0.0,0.0,0.0,0.0,0.0,0.0,0.0,0.0,0.0,0.0,0.0,0.0,0.0,0.0,0.0,0.0,0.0,0.0,0.0,0.0,0.0,0.0,0.0,0.0,0.0,0.0,0.0,0.0,0.0,0.0,0.0,0.0,0.0,-2.0869,-2.0867,-2.0715,-2.0381,-1.966,-1.9302,-1.9302,-1.9302,-1.9302,0.0,0.0,0.0,0.0,0.0,0.0,0.0,0.0,0.0,0.0,0.0,0.0,0.0,0.0,0.0,0.0,0.0,0.0,0.0,0.0,0.0,0.0,0.0,0.0,0.0,0.0,0.0,0.0,0.0,0.0,0.0,0.0,0.0,0.0,0.0,0.0,0.0,0.0,0.0,0.0,0.0,-2.7114,-2.787,-2.8809,0.0,0.0,0.0,0.0,-3.0991,-3.1149,0.0,0.0,0.0,0.0,0.0,0.0,0.0,0.0,0.0,0.0,0.0,0.0,0.0,0.0,0.0,0.0,0.0,0.0,0.0,0.0,0.0,0.0,0.0,0.0,0.0,0.0,0.0,0.0,0.0,0.0,0.0,0.0,0.0,0.0,0.0,0.0,0.0,0.0,0.0,0.0,0.0,0.0,0.0,0.0,0.0,0.0,0.0,0.0,0.0,0.0,0.0,0.0,0.0,0.0,0.0,0.0,-2.1483,-2.1167,-2.1015,-2.1009,-1.9947,-1.9325,-1.9376,-1.9339,-1.9339,0.0,0.0,0.0,0.0,0.0,0.0,0.0,0.0,0.0,0.0,0.0,0.0,0.0,0.0,0.0,0.0,0.0,0.0,0.0,0.0,0.0,0.0,0.0,0.0,0.0,0.0,0.0,0.0,0.0,0.0,0.0,0.0,0.0,0.0,0.0,0.0,0.0,0.0,0.0,0.0,0.0,-2.762,-2.9375,-2.956,-2.9676,0.0,0.0,-3.0694,-3.066,-3.0882,0.0,0.0,0.0,0.0,0.0,0.0,0.0,0.0,0.0,0.0,0.0,0.0,0.0,0.0,0.0,0.0,0.0,0.0,0.0,0.0,0.0,0.0,0.0,0.0,0.0,0.0,0.0,0.0,0.0,0.0,0.0,0.0,0.0,0.0,0.0,0.0,0.0,0.0,0.0,0.0,0.0,0.0,0.0,0.0,0.0,0.0,0.0,0.0,0.0,0.0,0.0,0.0,0.0,0.0,0.0,-2.1169,-2.2173,-2.1902,-2.1615,-2.1425,-2.0638,-2.0005,-1.9632,-1.9975,-2.0005,0.0,0.0,0.0,0.0,0.0,0.0,0.0,0.0,0.0,0.0,0.0,0.0,0.0,0.0,0.0,0.0,0.0,0.0,0.0,0.0,0.0,0.0,0.0,0.0,0.0,0.0,0.0,0.0,0.0,0.0,0.0,0.0,0.0,0.0,0.0,0.0,0.0,0.0,0.0,0.0,0.0,0.0,-2.9543,-2.994,0.0,0.0,0.0,-3.1504,-3.1133,0.0,0.0,0.0,0.0,0.0,0.0,0.0,0.0,0.0,0.0,0.0,0.0,0.0,0.0,0.0,0.0,0.0,0.0,0.0,0.0,0.0,0.0,0.0,0.0,0.0,0.0,0.0,0.0,0.0,0.0,0.0,0.0,0.0,0.0,0.0,0.0,0.0,0.0,0.0,0.0,0.0,0.0,0.0,0.0,0.0,0.0,0.0,0.0,0.0,0.0,0.0,0.0,0.0,0.0,0.0,0.0,0.0,-2.2756,-2.2454,-2.2191,-2.1889,-2.14,-2.0918,-2.0412,-2.0925,0.0,0.0,0.0,0.0,0.0,0.0,0.0,0.0,0.0,0.0,0.0,0.0,0.0,0.0,0.0,0.0,0.0,0.0,0.0,0.0,0.0,0.0,0.0,0.0,0.0,0.0,0.0,-2.2433,0.0,0.0,0.0,0.0,0.0,0.0,0.0,0.0,0.0,0.0,0.0,0.0,0.0,0.0,-2.8622,-2.9658,-3.0176,-3.0572,0.0,0.0,-3.1965,-3.1656,-3.2167,-3.2485,0.0,0.0,0.0,0.0,0.0,0.0,0.0,0.0,0.0,0.0,0.0,0.0,0.0,0.0,0.0,0.0,0.0,0.0,0.0,0.0,0.0,0.0,0.0,0.0,0.0,0.0,0.0,0.0,0.0,0.0,0.0,0.0,0.0,0.0,0.0,0.0,0.0,0.0,0.0,0.0,0.0,0.0,0.0,0.0,0.0,0.0,0.0,0.0,0.0,0.0,0.0,0.0,0.0,0.0,-2.1613,-2.301,-2.254,-2.2456,-2.2671,-2.2197,-2.1926,-2.1857,-2.2102,-2.2185,0.0,0.0,0.0,0.0,0.0,0.0,0.0,0.0,0.0,0.0,0.0,0.0,0.0,0.0,0.0,0.0,0.0,0.0,0.0,0.0,0.0,0.0,0.0,0.0,0.0,0.0,0.0,0.0,0.0,0.0,0.0,0.0,0.0,0.0,0.0,0.0,0.0,0.0,0.0,0.0,0.0,-2.9073,-3.0217,-3.0278,-3.0685,0.0,-3.161,-3.1472,-3.2043,-3.2413,-3.2423,-3.1898,0.0,0.0,0.0,0.0,0.0,0.0,0.0,0.0,0.0,0.0,0.0,0.0,0.0,0.0,0.0,0.0,0.0,0.0,0.0,0.0,0.0,0.0,0.0,0.0,0.0,0.0,0.0,0.0,0.0,0.0,0.0,0.0,0.0,0.0,0.0,0.0,0.0,0.0,0.0,0.0,0.0,0.0,0.0,0.0,0.0,0.0,0.0,0.0,0.0,0.0,0.0,0.0,0.0,-2.1768,-2.3201,-2.3284,-2.3266,-2.3102,-2.3001,-2.274,-2.2377,-2.2916,-2.3061,0.0,0.0,0.0,0.0,0.0,0.0,0.0,0.0,0.0,0.0,0.0,0.0,0.0,0.0,0.0,0.0,0.0,0.0,0.0,0.0,0.0,0.0,0.0,0.0,0.0,0.0,0.0,0.0,-2.3342,-2.3388,-2.3322,0.0,0.0,0.0,0.0,0.0,0.0,0.0,0.0,0.0,0.0,-2.9614,-3.0289,-3.0698,0.0,0.0,-3.1851,-3.1912,-3.1828,-3.2276,-3.2579,-3.246,-3.2179,0.0,0.0,0.0,0.0,0.0,0.0,0.0,0.0,0.0,0.0,0.0,0.0,0.0,0.0,0.0,0.0,0.0,0.0,0.0,0.0,0.0,0.0,0.0,0.0,0.0,0.0,0.0,0.0,0.0,0.0,0.0,0.0,0.0,0.0,0.0,0.0,0.0,0.0,0.0,0.0,0.0,0.0,0.0,0.0,0.0,0.0,0.0,0.0,0.0,0.0,0.0,0.0,-2.2212,-2.3523,-2.3839,-2.3921,-2.3665,-2.3849,-2.3733,-2.3318,-2.391,-2.4033,0.0,0.0,0.0,0.0,0.0,0.0,0.0,0.0,0.0,0.0,0.0,0.0,0.0,0.0,0.0,0.0,0.0,0.0,0.0,0.0,0.0,0.0,0.0,0.0,0.0,0.0,0.0,0.0,-2.3867,-2.3831,-2.3375,0.0,0.0,0.0,0.0,0.0,0.0,0.0,0.0,0.0,0.0,-3.027,-3.0716,-3.1211,-3.1512,-3.1728,-3.1975,-3.2052,-3.1844,-3.223,-3.2578,-3.2788,0.0,0.0,0.0,0.0,0.0,0.0,0.0,0.0,0.0,0.0,0.0,0.0,0.0,0.0,0.0,0.0,0.0,0.0,0.0,0.0,0.0,0.0,0.0,0.0,0.0,0.0,0.0,-2.2608,0.0,0.0,-2.1745,0.0,0.0,0.0,0.0,0.0,0.0,0.0,0.0,0.0,0.0,0.0,0.0,0.0,0.0,0.0,0.0,0.0,0.0,0.0,0.0,0.0,0.0,-2.2951,-2.3967,-2.4036,-2.4204,-2.4467,-2.4791,-2.4879,-2.4744,-2.5107,-2.5285,-2.5297,0.0,0.0,0.0,0.0,0.0,0.0,0.0,0.0,0.0,0.0,0.0,0.0,0.0,0.0,0.0,0.0,0.0,0.0,0.0,0.0,0.0,0.0,0.0,0.0,0.0,0.0,-2.4489,-2.4981,-2.4872,0.0,0.0,0.0,0.0,0.0,0.0,0.0,0.0,0.0,-2.8639,-2.9933,-3.1025,-3.168,-3.1663,-3.1836,-3.2439,-3.1967,-3.1643,-3.2259,-3.2382,-3.2453,0.0,0.0,0.0,0.0,0.0,0.0,0.0,0.0,0.0,0.0,0.0,0.0,0.0,0.0,0.0,0.0,0.0,0.0,0.0,0.0,0.0,0.0,0.0,0.0,0.0,0.0,0.0,-2.5205,-2.4855,0.0,0.0,0.0,0.0,0.0,0.0,0.0,0.0,0.0,0.0,0.0,-2.4123,-2.3622,0.0,0.0,0.0,0.0,0.0,0.0,0.0,0.0,0.0,0.0,0.0,0.0,-2.3258,-2.4048,-2.4276,-2.4523,-2.4806,-2.4926,-2.5045,-2.5201,-2.5394,-2.5524,-2.5589,0.0,0.0,0.0,0.0,0.0,0.0,0.0,0.0,0.0,0.0,0.0,0.0,0.0,0.0,0.0,0.0,0.0,0.0,0.0,0.0,0.0,0.0,0.0,0.0,0.0,-2.4382,0.0,0.0,0.0,0.0,0.0,0.0,0.0,0.0,0.0,0.0,0.0,-2.8761,-2.95,-3.0786,-3.1607,-3.1647,-3.2013,-3.2331,0.0,0.0,0.0,0.0,0.0,0.0,0.0,0.0,0.0,0.0,0.0,0.0,0.0,0.0,-3.114,-3.1267,-3.1124,-3.0998,-3.0981,0.0,0.0,0.0,0.0,0.0,0.0,0.0,0.0,0.0,0.0,0.0,0.0,0.0,0.0,-2.6713,0.0,-2.567,0.0,0.0,0.0,0.0,0.0,0.0,0.0,0.0,-2.4493,-2.4732,-2.5068,-2.4546,-2.4263,0.0,-2.3676,-2.315,0.0,0.0,0.0,0.0,0.0,0.0,0.0,0.0,-2.3805,-2.4328,-2.458,-2.4822,-2.5084,-2.5178,-2.5301,-2.5492,-2.5659,-2.577,-2.5885,-2.5513,-2.5168,0.0,0.0,0.0,0.0,0.0,0.0,0.0,0.0,0.0,0.0,0.0,0.0,0.0,0.0,0.0,0.0,0.0,0.0,0.0,0.0,0.0,0.0,0.0,-2.4991,0.0,0.0,0.0,0.0,0.0,0.0,0.0,0.0,0.0,-2.693,-2.8268,-2.9453,-3.0272,-3.1306,-3.2071,-3.2254,0.0,0.0,0.0,0.0,0.0,0.0,0.0,-3.2492,-3.2578,-3.2578,-3.2578,-3.2578,-3.2507,-3.2332,-3.1978,0.0,0.0,-3.1644,-3.1613,-3.1614,-3.1678,-3.163,-3.163,-3.1534,-3.1502,-3.1516,0.0,0.0,0.0,0.0,0.0,0.0,0.0,0.0,-2.6882,-2.7024,0.0,-2.6319,0.0,0.0,0.0,0.0,-2.4137,-2.4137,0.0,0.0,-2.5278,-2.5294,-2.5294,-2.5278,-2.5208,-2.5059,-2.5012,-2.4879,-2.4594,-2.3049,0.0,0.0,0.0,0.0,0.0,0.0,-2.462,-2.4782,-2.4942,-2.5084,-2.5294,-2.5502,-2.5637,-2.5701,-2.5901,-2.6099,-2.6189,-2.626,-2.5909,-2.5089,-2.5145,0.0,0.0,0.0,0.0,0.0,0.0,0.0,0.0,0.0,0.0,0.0,0.0,0.0,0.0,0.0,0.0,0.0,0.0,0.0,0.0,-2.5179,0.0,0.0,0.0,0.0,0.0,0.0,0.0,0.0,0.0,0.0,-2.7001,-2.8165,-2.9438,-3.0806,0.0,0.0,0.0,0.0,-3.3071,-3.3208,-3.2841,-3.2625,-3.2796,-3.2695,-3.2625,-3.2749,0.0,0.0,-3.2516,-3.2695,-3.2703,-3.2571,-3.2586,-3.251,-3.1549,-3.1404,-3.1347,-3.1322,-3.136,-3.1265,-3.1259,-3.1306,-3.1315,-2.657,0.0,0.0,0.0,0.0,-2.7796,-2.7767,-2.7572,-2.775,-2.7581,-2.7158,-2.6516,0.0,0.0,0.0,0.0,0.0,0.0,-2.5125,-2.5294,-2.5371,-2.5355,-2.5294,-2.5294,-2.5022,-2.4489,-2.4451,-2.4143,-2.3607,-2.3703,-2.3875,-2.4092,0.0,0.0,0.0,0.0,-2.4886,-2.4989,-2.5178,-2.5317,-2.5486,-2.5621,-2.5807,-2.6043,-2.6293,-2.6434,-2.6415,-2.6468,-2.6368,-2.608,-2.5614,0.0,0.0,0.0,0.0,0.0,0.0,0.0,0.0,0.0,0.0,0.0,0.0,0.0,0.0,0.0,0.0,0.0,0.0,0.0,-2.5227,-2.5379,-2.5432,0.0,0.0,0.0,0.0,0.0,0.0,0.0,0.0,0.0,-2.8056,-2.9148,-3.0133,0.0,0.0,-3.1817,-3.1958,-3.1874,-3.1895,-3.228,-3.2207,0.0,-3.2117,-3.2039,-3.1888,-3.1493,-3.1327,-3.1358,-3.143,-3.1441,-3.141,-3.1471,-3.1436,-3.1285,-3.1109,-3.1784,-3.2363,-3.2404,-3.2441,-3.241,-3.241,-3.241,-3.2248,-2.666,-2.6893,-2.7354,-2.779,-2.8122,-2.8136,-2.8031,-2.7809,-2.7822,-2.7588,-2.7259,-2.6614,-2.635,-2.6343,-2.5614,0.0,0.0,0.0,-2.4976,-2.496,-2.4761,-2.4648,-2.4574,-2.4611,-2.4349,-2.3947,-2.3931,-2.367,-2.3237,-2.3813,-2.4176,-2.4296,0.0,0.0,-2.4732,-2.4694,-2.4627,-2.4468,-2.4542,-2.4705,-2.4974,-2.5083,-2.5425,-2.5948,-2.6118,-2.6404,-2.6674,-2.6759,-2.6725,-2.6657,-2.6219,-2.5765,0.0,0.0,0.0,0.0,0.0,0.0,0.0,0.0,0.0,0.0,0.0,-2.2474,-2.2697,0.0,0.0,0.0,-2.4531,-2.5114,-2.5567,-2.5782,0.0,0.0,0.0,0.0,0.0,0.0,0.0,-2.7301,-2.8014,-2.8634,-2.8862,-2.963,-3.0222,-3.0428,-3.1118,-3.1582,-3.1549,0.0,-3.148,-3.1842,-3.1757,-3.1649,-3.1703,-3.167,-3.1498,-3.1055,-3.0939,-3.09,-3.0918,-3.0845,-3.0818,-3.0809,-3.0747,-3.0696,-3.0639,-3.1358,-3.1958,-3.2058,-3.2064,-3.2055,-3.206,-3.2039,-3.184,-2.6283,-2.6621,-2.7205,-2.761,-2.7841,-2.755,-2.7488,-2.75,-2.7253,-2.7179,-2.7182,-2.6542,-2.6262,-2.6285,-2.5564,0.0,-2.5223,-2.4611,-2.4342,-2.4385,-2.3789,-2.3513,-2.3513,-2.3529,-2.3481,-2.3432,-2.3416,-2.3365,-2.325,-2.3503,-2.3553,-2.345,-2.4636,-2.4917,-2.4289,-2.4257,-2.4023,-2.3515,-2.3549,-2.3719,-2.4016,-2.4225,-2.4702,-2.5507,-2.562,-2.6041,-2.6871,-2.6922,-2.6923,-2.6909,-2.6926,-2.6537,-2.5663,0.0,0.0,0.0,0.0,0.0,0.0,0.0,0.0,0.0,0.0,0.0,0.0,0.0,0.0,0.0,-2.5264,0.0,-2.5616,-2.6215,0.0,0.0,0.0,-2.6253,-2.5657,-2.6126,-2.6832,-2.758,0.0,0.0,-2.9486,-2.9669,-2.9915,-3.0405,-3.105,-3.1502,-3.1661,-3.1518,-3.1518,-3.1662,-3.1473,-3.1377,-3.1437,-3.1306,-3.1096,-3.0957,-3.0966,-3.0767,-3.0654,-3.0561,-3.0569,-3.0429,-3.0437,-3.0381,-3.0243,-3.0243,-3.0356,-3.0562,-3.0732,-3.0787,-3.0849,-3.0778,-3.0691,-2.5729,-2.6182,-2.635,-2.6534,-2.6642,-2.6718,-2.6525,-2.6233,-2.6424,-2.6246,-2.579,-2.5786,-2.5476,-2.4948,-2.4786,-2.443,-2.3929,-2.3783,-2.3721,-2.374,-2.3578,-2.3513,-2.3513,-2.3513,-2.3187,-2.2669,-2.2703,-2.2443,-2.1907,-2.2638,-2.2948,-2.2851,-2.3718,-2.4078,-2.3862,-2.3912,-2.3865,-2.3719,-2.3885,-2.4032,-2.4208,-2.4413,-2.4638,-2.4917,-2.5086,-2.5519,-2.6272,-2.6385,-2.6613,-2.71,-2.7135,-2.7002,-2.6653,-2.6109,0.0,0.0,0.0,0.0,0.0,0.0,0.0,0.0,0.0,-2.4253,-2.4294,0.0,-2.5526,0.0,-2.5519,-2.5654,-2.584,-2.588,0.0,0.0,-2.6199,-2.6758,-2.7114,-2.7793,-2.8505,-2.9302,-2.9615,-2.9827,-3.002,-3.0071,-3.0152,-3.025,-3.0331,-3.0389,-3.0405,-3.0344,-3.0448,-3.0965,-3.089,-3.0733,-3.075,-3.03,-2.9977,-2.989,-2.9783,-2.9706,-2.9643,-2.9517,-2.9311,-2.9311,-2.9247,-2.9213,-2.9095,-2.9018,-2.9002,-2.9046,-2.977,-3.0464,-3.0464,-3.0464,-3.0289,-2.5151,-2.5545,-2.5374,-2.5339,-2.5472,-2.5998,-2.6022,-2.5737,-2.5846,-2.5646,-2.5301,-2.5524,-2.5195,-2.4515,-2.4499,-2.4145,-2.3513,-2.3173,-2.2993,-2.301,-2.2686,-2.2573,-2.2573,-2.2606,-2.2443,-2.2052,-2.2084,-2.1903,-2.1589,-2.2106,-2.2332,-2.2285,-2.2775,-2.2973,-2.2959,-2.3225,-2.3242,-2.2975,-2.3179,-2.3362,-2.3494,-2.3687,-2.3927,-2.4339,-2.4583,-2.5234,-2.6254,-2.6406,-2.6754,-2.7352,-2.7355,-2.7293,-2.7215,-2.6788,-2.6299,0.0,0.0,0.0,0.0,0.0,0.0,0.0,0.0,0.0,0.0,0.0,-2.6043,-2.5897,-2.5824,-2.5844,-2.6026,-2.6143,-2.6248,-2.6302,-2.6863,-2.7387,-2.785,-2.8518,-2.9105,-2.9522,-2.995,-3.0195,-3.0234,-3.0211,-3.0231,-3.0192,-3.0172,-3.0162,-3.0103,-3.0,-3.0147,-3.0494,-3.0461,-3.0336,-3.0303,-2.9878,-2.9608,-2.9563,-2.9457,-2.9398,-2.9324,-2.9169,-2.9059,-2.8967,-2.8858,-2.8842,-2.8698,-2.8667,-2.8636,-2.8697,-2.9144,-2.9574,-2.9535,-2.9554,-2.9431,-2.4416,-2.4752,-2.4342,-2.4348,-2.4626,-2.5383,-2.5723,-2.567,-2.5441,-2.5317,-2.5323,-2.5524,-2.5195,-2.4499,-2.4535,-2.4162,-2.3481,-2.2848,-2.2573,-2.2524,-2.1972,-2.1661,-2.1564,-2.1689,-2.1702,-2.1589,-2.1603,-2.168,-2.1724,-2.1781,-2.1869,-2.1911,-2.1969,-2.2027,-2.2061,-2.2578,-2.2598,-2.2107,-2.2271,-2.2405,-2.2542,-2.2676,-2.3058,-2.3779,-2.4094,-2.491,-2.6311,-2.6539,-2.6972,-2.7607,-2.7569,-2.7557,-2.7557,-2.7478,-2.7122,0.0,-2.6138,0.0,0.0,0.0,0.0,0.0,0.0,0.0,0.0,-2.6365,-2.6295,-2.6277,-2.6217,-2.6214,-2.6391,-2.6821,-2.7137,-2.7316,-2.775,-2.8122,-2.827,-2.8829,-2.9223,-2.9305,-2.9896,-3.029,-3.0323,-3.0307,-3.0267,-3.0285,-3.0351,-3.0349,-3.029,-3.0231,-3.0231,-3.0231,-3.0211,-3.0201,-3.0065,-2.9874,-2.9742,-2.9742,-2.9608,-2.9489,-2.9354,-2.9353,-2.9275,-2.9029,-2.9029,-2.8982,-2.8889,-2.8873,-2.8873,-2.8858,-2.8889,-2.8856,-2.8664,-2.8713,-2.8621,-2.2722,-2.3631,-2.3652,-2.4131,-2.4886,-2.514,-2.5219,-2.5147,-2.5242,-2.541,-2.5524,-2.5562,-2.5211,-2.4535,-2.4639,-2.4284,-2.36,-2.3553,-2.3521,-2.3538,-2.3424,-2.3031,-2.249,-2.2474,-2.2194,-2.1636,-2.1724,-2.1768,-2.1797,-2.1882,-2.1953,-2.1982,-2.2101,-2.2147,-2.2163,0.0,0.0,0.0,-2.2805,-2.2676,-2.2738,-2.285,-2.3047,-2.333,-2.3404,0.0,-2.5659,-2.5791,-2.6489,-2.7823,-2.7929,0.0,0.0,0.0,0.0,0.0,0.0,0.0,0.0,0.0,0.0,0.0,-2.6798,-2.677,-2.6641,-2.6556,-2.6538,-2.6537,-2.6897,-2.7194,-2.732,-2.7844,-2.8222,-2.8239,-2.8355,-2.8616,-2.9198,-2.9447,-2.9769,-3.0466,-3.0707,-3.0758,-3.075,-3.0667,-3.0584,-3.0576,-3.0518,-3.0501,-3.0443,-3.041,-3.0368,-3.0342,-3.029,-3.0179,-3.0017,-2.9973,-2.9946,-2.9874,-2.9742,-2.9669,-2.9624,-2.9518,-2.9473,-2.9382,-2.9366,-2.935,-2.9227,-2.9198,-2.9152,-2.9041,-2.9074,-2.8951,-2.8779,-2.8811,-2.8842,-2.2278,-2.2809,-2.3088,-2.3521,0.0,-2.4458,-2.4678,-2.4722,-2.5173,-2.5448,-2.5616,-2.5621,-2.5253,-2.4623,-2.4694,-2.4158,-2.3178,-2.3227,-2.3063,-2.2735,-2.2783,-2.26,-2.2254,-2.233,-2.2162,-2.1797,-2.1869,-2.1945,-2.2003,-2.2106,-2.2175,-2.2186,-2.2304,-2.2349,-2.2332,-2.247,-2.274,-2.3072,-2.2875,-2.279,-2.2893,-2.2977,-2.3077,-2.3193,-2.3289,0.0,0.0,0.0,0.0,0.0,0.0,0.0,0.0,-2.8035,0.0,-2.7911,-2.7713,-2.7577,-2.7491,-2.7386,-2.7307,-2.74,-2.743,-2.7494,-2.7568,-2.7536,-2.7606,-2.7947,-2.8198,-2.8347,-2.8469,-2.8575,-2.8833,-2.9223,-2.9197,-2.9443,-3.0112,-3.0262,-3.0413,-3.0771,-3.0912,-3.0922,-3.0907,-3.084,-3.0807,-3.0799,-3.0758,-3.0684,-3.0692,-3.0551,-3.0452,-3.0443,-3.0359,-3.029,-3.0205,-3.0146,-3.0119,-3.0017,-2.9973,-2.9918,-2.9847,-2.9786,-2.9726,-2.9624,-2.9624,-2.9547,-2.9454,-2.947,-2.9454,-2.9419,-2.9406,-2.9425,-2.9289,-2.9198,-2.9091,-2.2046,-2.2229,-2.258,-2.2813,-2.3047,-2.3708,-2.4111,-2.4309,-2.4986,0.0,0.0,-2.5354,-2.5053,-2.4514,-2.4603,-2.3998,-2.2948,-2.2964,-2.2635,-2.2073,-2.2148,-2.2156,-2.2069,-2.217,-2.2161,-2.2056,-2.2056,-2.2147,-2.2248,-2.2338,-2.2394,-2.246,-2.2515,-2.2552,-2.2569,-2.2685,-2.2764,-2.279,-2.2816,-2.2902,-2.3045,-2.3102,-2.3175,-2.3223,-2.343,-2.3868,-2.461,-2.5332,-2.6083,-2.6925,-2.7656,-2.8094,-2.8237,-2.8273,-2.8318,-2.8237,-2.8073,-2.7943,-2.7876,-2.7777,-2.7719,-2.7806,-2.7789,-2.7964,-2.8334,-2.8444,-2.8693,-2.9265,-2.9437,-2.9556,-2.9573,-2.9462,-2.9604,-3.0302,-3.0217,-3.0359,-3.0874,-3.0992,-3.0958,-3.0975,-3.0992,-3.0952,-3.0969,-3.0952,-3.0952,-3.0969,-3.0945,-3.0922,-3.0888,-3.0733,-3.0609,-3.0609,-3.0526,-3.0485,-3.0459,-3.0359,-3.0231,-3.0248,-3.0205,-3.0162,-3.0082,-3.0065,-2.9946,-2.9847,-2.9786,-2.9754,-2.9661,-2.9738,-2.9782,-2.9805,-2.9821,-2.9853,-2.9853,-2.9649,-2.9457,-2.1097,-2.1894,-2.1935,-2.2474,-2.324,-2.3391,-2.3539,-2.3761,-2.4424,-2.4733,-2.47,-2.4223,-2.393,-2.385,-2.4034,-2.4001,-2.3819,-2.3915,-2.3929,-2.3829,-2.3861,-2.3555,-2.3013,-2.3026,-2.2736,-2.2271,-2.2321,-2.2377,-2.246,-2.2542,-2.2596,-2.2659,-2.2738,-2.279,-2.2842,-2.2902,-2.2995,-2.3045,-2.3028,-2.3119,-2.3265,-2.3313,-2.3383,-2.3471,-2.3539,-2.396,-2.4748,-2.4902,-2.5644,-2.7079,-2.7277,-2.7653,-2.8317,-2.838,-2.838,-2.8371,-2.83,-2.8246,-2.8228,-2.8146,-2.8119,-2.8119,-2.8119,-2.8042,-2.7859,-2.8369,-2.8792,-2.8917,-2.9883,-3.0595,-3.0629,-3.0936,-3.117,-3.1285,-3.1316,-3.1363,-3.13,-3.1189,-3.1133,-3.1116,-3.119,-3.11,-3.11,-3.1021,-3.1004,-3.1095,-3.1072,-3.0992,-3.0992,-3.0912,-3.0871,-3.0814,-3.0831,-3.0773,-3.0651,-3.0526,-3.0443,-3.0375,-3.029,-3.0248,-3.0222,-3.0189,-3.0189,-3.0119,-3.0119,-3.0103,-3.0103,-3.0103,-3.0146,-3.013,-3.013,-3.0189,-3.0146,-3.0087,-3.0033,-2.0917,-2.1386,-2.1453,-2.1777,-2.2313,-2.2735,-2.3194,-2.3636,-2.367,-2.385,-2.4076,-2.3933,-2.3852,-2.3885,-2.4016,-2.3897,-2.3498,-2.3591,-2.3374,-2.3036,-2.3113,-2.3005,-2.2726,-2.2767,-2.27,-2.2422,-2.2487,-2.2525,-2.2623,-2.2685,-2.2764,-2.2868,-2.2944,-2.2977,-2.307,-2.3095,-2.3168,-2.3247,-2.3193,-2.3217,-2.3336,-2.3424,-2.3494,-2.3557,-2.3629,-2.3813,-2.4172,-2.4608,-2.5147,-2.5865,-2.6387,-2.7006,-2.7738,-2.7911,-2.8135,-2.8474,-2.851,-2.851,-2.8458,-2.8432,-2.8406,-2.8362,-2.8362,-2.8309,-2.821,-2.8745,-2.9218,-2.955,-3.0159,-3.0431,-3.0315,-3.0508,-3.0629,-3.0541,-3.047,-3.0398,-3.0326,-3.0253,-3.0199,-3.0162,-3.0122,-3.023,-3.0717,-3.0666,-3.0789,-3.121,-3.1312,-3.1252,-3.1235,-3.1213,-3.1151,-3.0935,-3.0912,-3.0888,-3.0831,-3.079,-3.0692,-3.0651,-3.0626,-3.0584,-3.0559,-3.0559,-3.0543,-3.0401,-3.0401,-3.0417,-3.0359,-3.0401,-3.0443,-3.0485,-3.0526,-3.0568,-3.0568,-3.0568,-3.0459,-2.1006,-2.1167,-2.1231,-2.1326,-2.1509,-2.2113,-2.2719,-2.3243,-2.2859,-2.2909,-2.3292,-2.3487,-2.3551,-2.3551,-2.3677,-2.3421,-2.2966,-2.2945,-2.261,-2.2152,-2.2248,-2.2366,-2.2377,-2.247,-2.2569,-2.2569,-2.2649,-2.2712,-2.2773,-2.2825,-2.2927,-2.307,-2.3102,-2.3175,-2.3259,-2.3223,-2.3313,-2.3424,-2.3336,-2.3354,-2.3424,-2.3494,-2.3557,-2.3607,-2.3678,-2.3721,-2.3757,-2.4257,-2.4671,-2.4869,-2.5561,-2.6294,-2.7007,-2.7235,-2.7645,-2.8281,-2.8415,-2.8506,-2.8662,-2.8662,-2.8637,-2.8587,-2.8587,-2.8587,-2.8667,-2.8972,-2.9444,-3.0,-3.0194,-3.0194,-3.0085,-2.9924,-2.9791,-2.9709,-2.9608,-2.9627,-2.9472,-2.9369,-2.9351,-2.9281,-2.9245,-2.9425,-2.9932,-3.0071,-3.0231,-3.0822,-3.1045,-3.1076,-3.1213,-3.1281,-3.1164,-3.1157,-3.1015,-3.1072,-3.1032,-3.0992,-3.0952,-3.0952,-3.0952,-3.0871,-3.0922,-3.0929,-3.0871,-3.0692,-3.0692,-3.0692,-3.0568,-3.0651,-3.0733,-3.0773,-3.0855,-3.0952,-3.0952,-3.0895,-3.0807,-2.1166,-2.1355,-2.1389,-2.1477,-2.1657,-2.1771,-2.1933,-2.2102,-2.2032,-2.2045,-2.2224,-2.217,-2.222,-2.2199,-2.2358,-2.2404,-2.2332,-2.2412,-2.2417,-2.2394,-2.2432,-2.2497,-2.2569,-2.2632,-2.2712,-2.2764,-2.2842,-2.2944,-2.3028,-2.307,-2.3144,-2.3265,-2.3289,-2.3295,-2.336,-2.3383,-2.3442,-2.3588,-2.3557,-2.3539,-2.3494,-2.3562,-2.3585,-2.3607,-2.3718,-2.3804,-2.3786,-2.3883,-2.4227,-2.4896,-2.5107,-2.5564,-2.6291,-2.6467,-2.6853,-2.7638,-2.77,-2.8027,-2.8676,-2.8834,-2.8821,-2.8785,-2.8743,-2.8761,-2.8785,-2.8834,-2.9109,-2.9647,-3.0136,-3.0261,-3.0422,-3.0163,-2.9959,-2.9744,-2.975,-2.9841,-2.9655,-2.9642,-2.9557,-2.9574,-2.9214,-2.9315,-2.9349,-2.9417,-2.9487,-2.9868,-2.9971,-3.0144,-3.0592,-3.0657,-3.0879,-3.1319,-3.1466,-3.1406,-3.1368,-3.1269,-3.119,-3.1151,-3.1072,-3.1032,-3.1072,-3.1112,-3.1095,-3.1015,-3.0975,-3.0935,-3.0895,-3.0935,-3.0975,-3.1032,-3.1112,-3.1151,-3.1151,-3.1095,-3.0945,-2.1433,-2.1648,-2.1591,-2.1661,-2.1811,-2.1849,-2.1928,-2.1969,-2.2049,-2.2106,-2.2192,-2.2203,-2.2192,-2.2135,-2.2265,-2.231,-2.2338,-2.2405,-2.2487,-2.2542,-2.2596,-2.2642,-2.2712,-2.2842,-2.2893,-2.2944,-2.302,-2.3119,-2.3168,-2.3289,-2.3383,-2.3471,-2.3522,-2.3544,-2.3567,-2.3567,-2.3607,-2.3638,-2.3692,-2.37,-2.3682,-2.37,-2.37,-2.3725,-2.381,-2.3852,-2.3834,-2.3896,-2.4081,-2.439,-2.4468,-2.4853,-2.5612,-2.5789,-2.6197,-2.6889,-2.7039,-2.7207,-2.7478,-2.8044,-2.8323,-2.8215,-2.8649,-2.8952,-2.9021,-2.8881,-2.8968,-2.9228,-2.9331,-2.9332,-2.9241,-2.9091,-2.8982,-2.8894,-2.8835,-2.8762,-2.8574,-2.8512,-2.8432,-2.8372,-2.8259,-2.8403,-2.8834,-2.9264,-2.9556,-2.9676,-2.9642,-2.9746,-3.0075,-3.0093,-3.0456,-3.1063,-3.1218,-3.1298,-3.1476,-3.15,-3.1423,-3.1402,-3.1363,-3.1308,-3.1351,-3.1329,-3.1346,-3.1291,-3.1291,-3.1252,-3.1157,-3.1213,-3.1308,-3.1308,-3.1325,-3.1402,-3.1385,-3.1308,-3.128,-2.1661,-2.1886,-2.1893,-2.1932,-2.2017,-2.2096,-2.2113,-2.2158,-2.2237,-2.231,-2.2349,-2.2432,-2.2405,-2.2338,-2.2405,-2.2443,-2.246,-2.2542,-2.2605,-2.2685,-2.2764,-2.2816,-2.2876,-2.3003,-2.3095,-2.3119,-2.3217,-2.3313,-2.336,-2.3499,-2.3589,-2.3656,-2.3703,-2.3725,-2.3765,-2.3747,-2.3761,-2.3815,-2.4024,-2.4197,-2.42,-2.4218,-2.4088,-2.3873,-2.3896,-2.3935,-2.3917,-2.3976,-2.3978,-2.3978,-2.4094,-2.435,-2.4837,-2.5052,-2.5498,-2.6172,-2.6546,-2.6696,-2.6654,-2.729,-2.7643,-2.7555,-2.8066,-2.8404,-2.8507,-2.8539,-2.8617,-2.8667,-2.8694,-2.8674,-2.8414,-2.83,-2.8237,-2.8182,-2.8099,-2.7968,-2.7871,-2.7789,-2.7801,-2.7617,-2.7696,-2.7674,-2.8251,-2.8766,-2.9074,-2.9109,-2.9161,-2.9371,-2.9493,-2.9612,-2.9889,-3.0657,-3.0763,-3.1063,-3.1578,-3.1691,-3.1654,-3.1617,-3.1596,-3.1634,-3.1691,-3.1634,-3.1576,-3.1559,-3.1576,-3.1538,-3.1428,-3.1483,-3.1559,-3.1559,-3.1576,-3.1538,-3.1576,-3.1538,-3.1538,-2.1945,-2.2147,-2.2237,-2.2304,-2.2392,-2.2388,-2.2415,-2.2443,-2.2487,-2.2487,-2.2515,-2.2569,-2.2579,-2.2596,-2.2605,-2.2605,-2.2623,-2.2738,-2.2799,-2.2893,-2.2952,-2.3003,-2.3095,-2.3199,-2.3289,-2.3289,-2.3448,-2.3544,-2.3678,-2.3743,-2.3807,-2.3795,-2.3795,-2.3816,-2.3876,-2.3915,-2.3933,-2.4024,-2.4629,-2.5069,-2.5108,-2.5171,-2.4785,-2.4137,-2.3976,-2.3996,-2.3996,-2.3978,-2.4016,-2.4016,-2.4168,-2.4244,-2.4241,-2.4375,-2.4874,-2.5576,-2.6336,-2.6743,-2.6665,-2.678,-2.6836,-2.6776,-2.6903,-2.6866,-2.7128,-2.764,-2.7959,-2.7949,-2.8453,-2.8675,-2.8547,-2.843,-2.838,-2.83,-2.8164,-2.8126,-2.8071,-2.7996,-2.7957,-2.7888,-2.7766,-2.7729,-2.7722,-2.7674,-2.7922,-2.797,-2.7912,-2.8157,-2.8789,-2.8991,-2.9356,-2.9937,-3.0339,-3.0762,-3.1812,-3.1846,-3.1809,-3.1875,-3.1875,-3.1875,-3.1912,-3.1858,-3.1839,-3.1819,-3.18,-3.1746,-3.1709,-3.1691,-3.1785,-3.1802,-3.1654,-3.1671,-3.1688,-3.1671,-3.1634,-2.2192,-2.2315,-2.2405,-2.2453,-2.251,-2.2535,-2.2569,-2.2632,-2.2649,-2.2632,-2.2712,-2.2764,-2.2816,-2.2868,-2.2927,-2.2919,-2.2816,-2.2876,-2.2995,-2.3077,-2.3168,-2.3241,-2.3289,-2.3448,-2.3494,-2.3517,-2.3611,-2.3743,-2.3831,-2.3852,-2.3915,-2.3976,-2.3978,-2.4016,-2.4074,-2.4075,-2.4112,-2.4149,-2.4444,-2.4814,-2.5348,-2.5423,-2.5515,-2.5698,-2.4684,-2.4132,-2.4132,-2.4134,-2.4392,-2.4942,-2.5018,-2.5277,-2.5757,-2.587,-2.604,-2.632,-2.6153,-2.6042,-2.6061,-2.6061,-2.6098,-2.6098,-2.6504,-2.6763,-2.6838,-2.7038,-2.7161,-2.7251,-2.7353,-2.7618,-2.8095,-2.8367,-2.8562,-2.8484,-2.8406,-2.8327,-2.8246,-2.8182,-2.8099,-2.8032,-2.7929,-2.7888,-2.7853,-2.7836,-2.7864,-2.7893,-2.7922,-2.8081,-2.8287,-2.8393,-2.8741,-2.939,-2.9609,-2.9872,-3.0835,-3.1352,-3.1584,-3.1969,-3.2126,-3.2144,-3.2161,-3.2073,-3.2054,-3.2037,-3.2037,-3.2001,-3.1929,-3.1839,-3.193,-3.1894,-3.1802,-3.1746,-3.18,-3.1726,-3.1746,-2.246,-2.2525,-2.2605,-2.2668,-2.2721,-2.273,-2.2764,-2.2825,-2.2842,-2.285,-2.2919,-2.2987,-2.3038,-2.3095,-2.3199,-2.3199,-2.3077,-2.3119,-2.3151,-2.3307,-2.3336,-2.3407,-2.3499,-2.3607,-2.3656,-2.3678,-2.3825,-2.3894,-2.3958,-2.3996,-2.4036,-2.4114,-2.4152,-2.419,-2.4228,-2.4247,-2.4228,-2.4265,-2.4487,-2.4948,-2.5465,-2.5779,-2.6186,-2.6539,-2.565,-2.5058,-2.5038,-2.5039,-2.5279,-2.5833,-2.5907,-2.6205,-2.6745,-2.6837,-2.6858,-2.6823,-2.6395,-2.608,-2.6098,-2.6135,-2.6042,-2.5745,-2.6135,-2.6414,-2.6191,-2.6283,-2.6431,-2.6469,-2.6688,-2.705,-2.7727,-2.8219,-2.8518,-2.859,-2.8587,-2.851,-2.838,-2.8318,-2.8237,-2.8182,-2.8088,-2.8078,-2.8099,-2.8053,-2.8053,-2.8081,-2.8136,-2.8182,-2.8182,-2.82,-2.8352,-2.8915,-2.8948,-2.9312,-2.9982,-3.0472,-3.1129,-3.156,-3.1826,-3.2018,-3.2213,-3.2179,-3.2162,-3.2214,-3.2249,-3.2249,-3.2179,-3.2055,-3.2002,-3.1966,-3.1839,-3.18,-3.18,-3.18,-3.18,-2.2746,-2.279,-2.2868,-2.2935,-2.2975,-2.2985,-2.3045,-2.3095,-2.3077,-2.3095,-2.3095,-2.3172,-2.3203,-2.3199,-2.3301,-2.3371,-2.343,-2.336,-2.3401,-2.3494,-2.3517,-2.3585,-2.37,-2.3743,-2.3807,-2.3834,-2.3937,-2.4036,-2.4094,-2.417,-2.419,-2.421,-2.4266,-2.4284,-2.4284,-2.4303,-2.4321,-2.4432,-2.4949,-2.5374,-2.5595,-2.6207,-2.669,-2.6875,-2.6822,-2.6822,-2.6797,-2.6723,-2.665,-2.6779,-2.6799,-2.6839,-2.7083,-2.712,-2.7028,-2.7139,-2.7084,-2.7046,-2.6954,-2.6972,-2.6561,-2.606,-2.5891,-2.576,-2.5391,-2.5669,-2.6022,-2.6097,-2.6488,-2.7116,-2.7781,-2.8033,-2.825,-2.8621,-2.8687,-2.8612,-2.8536,-2.845,-2.8398,-2.83,-2.8191,-2.8182,-2.8219,-2.8191,-2.8182,-2.8273,-2.83,-2.8327,-2.8327,-2.8353,-2.8424,-2.8452,-2.8569,-2.8873,-2.9259,-2.9653,-3.0398,-3.103,-3.1282,-3.1479,-3.1835,-3.1943,-3.2052,-3.2105,-3.2335,-3.2352,-3.2301,-3.2214,-3.2091,-3.2055,-3.1929,-3.1873,-3.1873,-3.1873,-3.1871,-2.2944,-2.3012,-2.302,-2.3077,-2.3133,-2.3126,-2.3168,-2.3241,-2.3241,-2.3223,-2.3265,-2.3372,-2.3383,-2.343,-2.3526,-2.3594,-2.3634,-2.3634,-2.3634,-2.3656,-2.3678,-2.3703,-2.3789,-2.3834,-2.3953,-2.4074,-2.4113,-2.4171,-2.421,-2.4266,-2.4284,-2.4339,-2.4358,-2.4375,-2.4429,-2.4447,-2.4446,-2.4464,-2.4687,-2.5076,-2.5633,-2.5912,-2.6581,-2.768,-2.781,-2.8052,-2.8556,-2.751,-2.7174,-2.7656,-2.7713,-2.7956,-2.846,-2.8629,-2.863,-2.8632,-2.8185,-2.7942,-2.7867,-2.7437,-2.7045,-2.6727,-2.669,-2.6561,-2.6283,-2.6468,-2.6599,-2.6544,-2.6748,-2.7155,-2.7801,-2.7982,-2.8283,-2.8855,-2.8881,-2.881,-2.8712,-2.8612,-2.851,-2.8458,-2.8353,-2.8353,-2.8388,-2.8353,-2.8371,-2.8432,-2.8484,-2.851,-2.851,-2.8562,-2.8587,-2.8562,-2.8546,-2.8513,-2.8864,-2.9116,-2.9538,-3.0201,-3.054,-3.0978,-3.1373,-3.1629,-3.1774,-3.1921,-3.217,-3.2348,-3.2351,-3.2336,-3.2249,-3.2179,-3.2073,-3.2037,-3.2018,-3.2018,-3.2017,-2.3119,-2.3168,-2.3217,-2.3223,-2.3313,-2.3336,-2.3401,-2.3453,-2.3453,-2.3458,-2.3499,-2.3585,-2.3611,-2.3616,-2.3707,-2.375,-2.3768,-2.385,-2.3871,-2.3831,-2.3828,-2.3852,-2.3917,-2.3959,-2.4075,-2.419,-2.4209,-2.4266,-2.4358,-2.4358,-2.4375,-2.4428,-2.4464,-2.45,-2.4515,-2.4551,-2.4513,-2.4547,-2.4547,-2.4806,-2.5327,-2.5646,-2.6299,-2.7306,-2.7979,-2.854,-2.9008,-2.8278,-2.8166,-2.8537,-2.861,-2.8909,-2.9395,-2.9434,-2.9491,-2.9399,-2.9101,-2.8821,-2.8765,-2.8409,-2.7866,-2.7642,-2.7567,-2.738,-2.7157,-2.7082,-2.7045,-2.6954,-2.6935,-2.7232,-2.7899,-2.8083,-2.8371,-2.9023,-2.9021,-2.8947,-2.881,-2.8712,-2.8662,-2.8612,-2.858,-2.8562,-2.8569,-2.8562,-2.8536,-2.8612,-2.8669,-2.8687,-2.8687,-2.8737,-2.8737,-2.8687,-2.8662,-2.8623,-2.8582,-2.8673,-2.8778,-2.9269,-2.9799,-3.0331,-3.0844,-3.1057,-3.1244,-3.1359,-3.1544,-3.1898,-3.1956,-3.2263,-3.2318,-3.2284,-3.2249,-3.2197,-3.2161,-3.2161,-3.2144,-2.3265,-2.3319,-2.3407,-2.3453,-2.3517,-2.3567,-2.3634,-2.37,-2.37,-2.3703,-2.3783,-2.3783,-2.3825,-2.3816,-2.384,-2.3881,-2.3917,-2.3996,-2.4036,-2.4074,-2.4036,-2.4036,-2.4095,-2.4172,-2.421,-2.4247,-2.4303,-2.4339,-2.443,-2.4482,-2.4515,-2.4495,-2.4547,-2.4599,-2.4599,-2.4615,-2.4615,-2.4615,-2.4631,-2.4685,-2.481,-2.541,-2.5897,-2.6115,-2.7501,-2.8366,-2.8593,-2.908,-2.9476,-2.9494,-2.94,-2.9418,-2.9531,-2.9569,-2.9569,-2.955,-2.9626,-2.957,-2.9551,-2.9401,-2.9158,-2.8502,-2.8408,-2.8164,-2.7605,-2.7585,-2.7548,-2.7438,-2.7401,-2.7587,-2.8202,-2.8369,-2.8665,-2.9124,-2.9138,-2.8994,-2.8858,-2.881,-2.881,-2.881,-2.8761,-2.8737,-2.8785,-2.8761,-2.8761,-2.881,-2.8839,-2.8858,-2.8858,-2.8881,-2.8863,-2.8858,-2.8834,-2.8791,-2.8753,-2.8717,-2.8803,-2.8941,-2.9311,-2.9647,-3.013,-3.0367,-3.0755,-3.0861,-3.0978,-3.1333,-3.1714,-3.2027,-3.2348,-3.2438,-3.2386,-3.2318,-3.2318,-3.2318,-3.2352,-2.3522,-2.3611,-2.3656,-2.37,-2.3739,-2.3747,-2.375,-2.3771,-2.3792,-2.3831,-2.3873,-2.3933,-2.3994,-2.4016,-2.4094,-2.4113,-2.4133,-2.4191,-2.4229,-2.4247,-2.4266,-2.4266,-2.4266,-2.4321,-2.4375,-2.4411,-2.4445,-2.4462,-2.4535,-2.4584,-2.4582,-2.4582,-2.4596,-2.465,-2.4666,-2.4666,-2.4698,-2.4726,-2.476,-2.4757,-2.4806,-2.4994,-2.5405,-2.611,-2.711,-2.7959,-2.8546,-2.9338,-2.9754,-2.9663,-2.9626,-2.9664,-2.9701,-2.9701,-2.9683,-2.9701,-2.9682,-2.9719,-2.9719,-2.9701,-2.957,-2.94,-2.925,-2.9231,-2.9008,-2.8988,-2.8933,-2.8895,-2.8895,-2.8932,-2.9119,-2.9118,-2.9246,-2.9295,-2.9243,-2.9134,-2.9089,-2.9017,-2.8952,-2.8998,-2.8929,-2.8929,-2.8975,-2.8952,-2.8929,-2.8998,-2.9021,-2.9044,-2.9044,-2.9067,-2.9089,-2.9044,-2.9017,-2.8978,-2.8943,-2.887,-2.8858,-2.8863,-2.8949,-2.8927,-2.9313,-2.9539,-3.0058,-3.0514,-3.057,-3.0826,-3.1324,-3.1732,-3.2072,-3.2444,-3.257,-3.2537,-3.2521,-3.2539,-3.2537,-2.37,-2.3747,-2.385,-2.3891,-2.3891,-2.3935,-2.3976,-2.3958,-2.3958,-2.3998,-2.4057,-2.4114,-2.4172,-2.4229,-2.4266,-2.4284,-2.4303,-2.4375,-2.4429,-2.4445,-2.4495,-2.4478,-2.4428,-2.4464,-2.4551,-2.4584,-2.4599,-2.4613,-2.4685,-2.4698,-2.4695,-2.4692,-2.4676,-2.4692,-2.4742,-2.4742,-2.4757,-2.4802,-2.485,-2.4861,-2.487,-2.5263,-2.565,-2.638,-2.7271,-2.8332,-2.9166,-2.9664,-2.9841,-2.9771,-2.9755,-2.9774,-2.979,-2.9755,-2.9755,-2.9771,-2.9755,-2.9755,-2.979,-2.9774,-2.9737,-2.9736,-2.9754,-2.9699,-2.9626,-2.97,-2.9681,-2.9551,-2.9626,-2.9626,-2.9607,-2.9569,-2.9511,-2.947,-2.9388,-2.9289,-2.9246,-2.9156,-2.9156,-2.9156,-2.9134,-2.9085,-2.9175,-2.913,-2.9112,-2.9156,-2.916,-2.9181,-2.9181,-2.9243,-2.9265,-2.9218,-2.9197,-2.9144,-2.9118,-2.9062,-2.9021,-2.9007,-2.8938,-2.8858,-2.8857,-2.9039,-2.9276,-2.9809,-3.0052,-3.0345,-3.0778,-3.1326,-3.1951,-3.2277,-3.2549,-3.2784,-3.2802,-3.2737,-3.2734,-2.3831,-2.3834,-2.3958,-2.4034,-2.4054,-2.4152,-2.419,-2.4209,-2.419,-2.4228,-2.4284,-2.4321,-2.4338,-2.4425,-2.4425,-2.4425,-2.4442,-2.4547,-2.4596,-2.4645,-2.4657,-2.4657,-2.4575,-2.4647,-2.4698,-2.4711,-2.4726,-2.4772,-2.4802,-2.4802,-2.4798,-2.4794,-2.4794,-2.4808,-2.4842,-2.4827,-2.4823,-2.4875,-2.5106,-2.521,-2.5408,-2.5986,-2.6469,-2.6757,-2.7932,-2.9055,-2.9726,-3.0019,-2.9956,-2.9859,-2.9842,-2.9823,-2.9823,-2.9823,-2.9823,-2.9825,-2.9825,-2.9808,-2.9806,-2.9825,-2.9808,-2.9806,-2.9806,-2.9789,-2.9735,-2.9771,-2.9773,-2.9719,-2.9737,-2.97,-2.9682,-2.9664,-2.9626,-2.9607,-2.9568,-2.9472,-2.9394,-2.9328,-2.9307,-2.9312,-2.9326,-2.9323,-2.9323,-2.9304,-2.9267,-2.9328,-2.933,-2.933,-2.9351,-2.9351,-2.937,-2.9347,-2.9326,-2.9304,-2.9262,-2.9203,-2.92,-2.9181,-2.9134,-2.9062,-2.8887,-2.8913,-2.8773,-2.896,-2.9383,-2.9719,-3.0007,-3.0682,-3.157,-3.2211,-3.2532,-3.2862,-3.3073,-3.2993,-3.2943,-2.3955,-2.3958,-2.4112,-2.417,-2.417,-2.4247,-2.4266,-2.4284,-2.4284,-2.4339,-2.4429,-2.4446,-2.4498,-2.4545,-2.4596,-2.465,-2.4647,-2.4729,-2.4772,-2.4827,-2.4842,-2.4856,-2.4808,-2.4817,-2.4798,-2.4823,-2.4856,-2.4879,-2.4869,-2.4874,-2.4874,-2.4874,-2.4893,-2.4907,-2.4953,-2.4953,-2.4966,-2.5126,-2.5595,-2.5893,-2.6097,-2.6776,-2.7331,-2.7536,-2.8479,-2.9325,-2.9985,-3.0128,-3.0064,-3.0053,-3.0038,-3.0022,-3.0007,-2.9924,-2.9943,-2.9959,-2.9857,-2.9859,-2.9926,-2.991,-2.9895,-2.9876,-2.9874,-2.9874,-2.9859,-2.9859,-2.9878,-2.9844,-2.9808,-2.9771,-2.979,-2.9773,-2.9832,-2.9851,-2.9851,-2.9776,-2.9664,-2.9531,-2.9433,-2.9433,-2.9431,-2.9411,-2.953,-2.9491,-2.9491,-2.953,-2.9511,-2.9511,-2.9492,-2.9492,-2.9472,-2.9471,-2.947,-2.945,-2.9429,-2.937,-2.9349,-2.9328,-2.9283,-2.924,-2.9071,-2.898,-2.8915,-2.8839,-2.8821,-2.9152,-2.9562,-3.0423,-3.1379,-3.1953,-3.2523,-3.2931,-3.3214,-3.3165,-3.3196,-2.4113,-2.4114,-2.4228,-2.4303,-2.4339,-2.4393,-2.441,-2.4428,-2.4428,-2.4498,-2.4584,-2.4582,-2.4631,-2.4695,-2.4726,-2.4742,-2.4776,-2.4836,-2.487,-2.4926,-2.494,-2.4953,-2.4999,-2.4959,-2.494,-2.4947,-2.4985,-2.4993,-2.4987,-2.4987,-2.4993,-2.4993,-2.4993,-2.5006,-2.5032,-2.5044,-2.5076,-2.512,-2.5526,-2.5958,-2.6454,-2.723,-2.8268,-2.8779,-2.9379,-2.9858,-3.0209,-3.0202,-3.0169,-3.0188,-3.0199,-3.0176,-3.0098,-3.0038,-3.0038,-3.0034,-3.0007,-2.9959,-3.0007,-3.0007,-2.9975,-2.9994,-2.9988,-2.9972,-2.9975,-2.9975,-2.9975,-2.9978,-2.9943,-2.9926,-2.9929,-3.0347,-3.0409,-3.0544,-3.0769,-3.0803,-3.0459,-2.9943,-2.9589,-2.9608,-2.9608,-2.9589,-2.9626,-2.9645,-2.9645,-2.9608,-2.9626,-2.9626,-2.9664,-2.9664,-2.9645,-2.9608,-2.9608,-2.9569,-2.9569,-2.953,-2.9471,-2.9431,-2.9411,-2.937,-2.9267,-2.9203,-2.9115,-2.9021,-2.8923,-2.8967,-2.9411,-3.0311,-3.1075,-3.1608,-3.2213,-3.2918,-3.3334,-3.3375,-3.3404,-2.4228,-2.4229,-2.4375,-2.4465,-2.4498,-2.4532,-2.4564,-2.4599,-2.4615,-2.4631,-2.4698,-2.4726,-2.4757,-2.4802,-2.4846,-2.4823,-2.487,-2.4917,-2.4972,-2.4993,-2.5025,-2.5051,-2.5095,-2.5095,-2.5063,-2.5032,-2.5051,-2.5063,-2.5095,-2.5114,-2.5095,-2.5114,-2.5095,-2.5101,-2.5094,-2.5106,-2.513,-2.5184,-2.5723,-2.6186,-2.6926,-2.78,-2.9039,-2.9831,-3.0163,-3.0232,-3.0328,-3.0316,-3.0316,-3.0316,-3.0311,-3.0247,-3.018,-3.0109,-3.0113,-3.0123,-3.0113,-3.0098,-3.0113,-3.0098,-3.0098,-3.0098,-3.0094,-3.0094,-3.0049,-3.0064,-3.0064,-3.0083,-3.0068,-3.0164,-3.0228,-3.0709,-3.1189,-3.1478,-3.2064,-3.2053,-3.1492,-3.0623,-3.0387,-2.9789,-2.9753,-2.9735,-2.9753,-2.977,-2.9734,-2.9734,-2.9734,-2.9753,-2.977,-2.9806,-2.9771,-2.9773,-2.9737,-2.97,-2.9701,-2.9683,-2.9608,-2.9569,-2.955,-2.9511,-2.9453,-2.9411,-2.931,-2.92,-2.9149,-2.9154,-2.9489,-3.0399,-3.1034,-3.1392,-3.2229,-3.3257,-3.3577,-3.3623,-3.3605,-2.4358,-2.4375,-2.4445,-2.4478,-2.453,-2.4615,-2.4666,-2.4682,-2.4695,-2.4726,-2.4791,-2.4783,-2.4827,-2.487,-2.494,-2.4999,-2.5012,-2.5038,-2.507,-2.5088,-2.5101,-2.5113,-2.5168,-2.5172,-2.5153,-2.5172,-2.5137,-2.5125,-2.5168,-2.5187,-2.5168,-2.5168,-2.5168,-2.516,-2.5164,-2.5195,-2.5332,-2.5606,-2.6453,-2.7242,-2.783,-2.8945,-2.984,-3.0383,-3.0417,-3.0447,-3.0447,-3.0417,-3.0375,-3.0394,-3.041,-3.0379,-3.0316,-3.0241,-3.0221,-3.024,-3.0213,-3.0185,-3.018,-3.018,-3.018,-3.0185,-3.018,-3.0194,-3.018,-3.0166,-3.018,-3.0218,-3.028,-3.0457,-3.1107,-3.1459,-3.1794,-3.2219,-3.2613,-3.2661,-3.2462,-3.2145,-3.1458,-3.0557,-3.0205,-2.9964,-3.0075,-3.0054,-2.994,-2.9921,-2.9921,-2.9888,-2.9888,-2.9907,-2.9891,-2.9893,-2.9878,-2.9842,-2.9787,-2.9771,-2.9755,-2.97,-2.9664,-2.9645,-2.9608,-2.9588,-2.951,-2.9411,-2.9323,-2.927,-2.9812,-3.0607,-3.1201,-3.1737,-3.2708,-3.3762,-3.3807,-3.3834,-3.3805,-2.4445,-2.4481,-2.4547,-2.4596,-2.461,-2.4695,-2.4742,-2.4757,-2.4753,-2.4783,-2.4827,-2.487,-2.4898,-2.4953,-2.5019,-2.5057,-2.5094,-2.5075,-2.5118,-2.516,-2.5141,-2.5153,-2.5206,-2.5209,-2.5209,-2.519,-2.5157,-2.5157,-2.5217,-2.5206,-2.5206,-2.5217,-2.5217,-2.5228,-2.5384,-2.5721,-2.5887,-2.6264,-2.7189,-2.8104,-2.8559,-2.9858,-3.037,-3.0458,-3.0471,-3.0481,-3.05,-3.0471,-3.0441,-3.0449,-3.0458,-3.0458,-3.0428,-3.0386,-3.0348,-3.0343,-3.0337,-3.0292,-3.0254,-3.0286,-3.0305,-3.0324,-3.0305,-3.0318,-3.0305,-3.0305,-3.0305,-3.0401,-3.081,-3.1078,-3.1494,-3.2253,-3.2962,-3.3394,-3.3746,-3.3782,-3.3599,-3.3503,-3.268,-3.156,-3.1172,-3.0948,-3.067,-3.0552,-3.0213,-3.0098,-3.0132,-3.0064,-3.0,-3.0,-3.0034,-3.0007,-3.001,-2.9956,-2.9921,-2.9907,-2.9876,-2.9823,-2.9806,-2.9771,-2.9755,-2.9719,-2.9683,-2.9608,-2.9547,-2.9593,-3.0197,-3.1006,-3.1552,-3.217,-3.3167,-3.3924,-3.3979,-3.4005,-3.3993,-2.4528,-2.4564,-2.4682,-2.4729,-2.4742,-2.4806,-2.4817,-2.4827,-2.4823,-2.487,-2.4931,-2.4972,-2.5012,-2.5032,-2.5094,-2.5111,-2.5126,-2.5138,-2.5168,-2.5217,-2.522,-2.5231,-2.5222,-2.5233,-2.5262,-2.5273,-2.5253,-2.5214,-2.5201,-2.5201,-2.5212,-2.5201,-2.5212,-2.5395,-2.5685,-2.6186,-2.6573,-2.7104,-2.775,-2.8599,-2.9448,-3.0124,-3.053,-3.054,-3.053,-3.0521,-3.0521,-3.0521,-3.0521,-3.0521,-3.0511,-3.052,-3.0521,-3.0521,-3.0491,-3.0447,-3.0444,-3.0402,-3.0371,-3.0371,-3.0421,-3.0433,-3.0433,-3.0414,-3.0425,-3.0433,-3.051,-3.0741,-3.1153,-3.1915,-3.2478,-3.3365,-3.4076,-3.4543,-3.4949,-3.5213,-3.4699,-3.441,-3.4231,-3.3314,-3.2499,-3.2018,-3.1793,-3.1153,-3.0847,-3.0584,-3.0579,-3.024,-3.018,-3.018,-3.0185,-3.0142,-3.0113,-3.0079,-3.003,-3.0,-2.9988,-2.9959,-2.9943,-2.9945,-2.9876,-2.9842,-2.9883,-3.0054,-3.0114,-3.0283,-3.0859,-3.1467,-3.2166,-3.2925,-3.3706,-3.411,-3.416,-3.4197,-3.4184,-2.4666,-2.4682,-2.476,-2.4791,-2.4787,-2.4861,-2.4884,-2.4898,-2.4959,-2.498,-2.4993,-2.5044,-2.5113,-2.516,-2.5187,-2.5182,-2.5192,-2.5252,-2.5262,-2.5292,-2.5283,-2.5293,-2.5284,-2.5332,-2.5351,-2.5332,-2.536,-2.5293,-2.5253,-2.5222,-2.528,-2.5299,-2.5425,-2.5617,-2.6427,-2.6832,-2.6997,-2.7759,-2.8656,-2.9524,-3.0227,-3.0507,-3.0565,-3.0585,-3.0593,-3.0593,-3.0593,-3.0593,-3.0593,-3.0593,-3.0593,-3.0593,-3.0593,-3.0593,-3.0585,-3.0549,-3.054,-3.0481,-3.0471,-3.049,-3.049,-3.05,-3.05,-3.0501,-3.0617,-3.0694,-3.0916,-3.1611,-3.1862,-3.2491,-3.3497,-3.4113,-3.4681,-3.5068,-3.5427,-3.5557,-3.5328,-3.5095,-3.4939,-3.4831,-3.3936,-3.3388,-3.3024,-3.2211,-3.1494,-3.1244,-3.0963,-3.0643,-3.0381,-3.0394,-3.0279,-3.0226,-3.0213,-3.0161,-3.0147,-3.0138,-3.0094,-3.0068,-3.0053,-3.0076,-3.0086,-3.013,-3.0522,-3.066,-3.0782,-3.1051,-3.1581,-3.2221,-3.2906,-3.3499,-3.4076,-3.4297,-3.4344,-3.4386,-3.4409,-2.4757,-2.476,-2.485,-2.4894,-2.4908,-2.4945,-2.4991,-2.5004,-2.5044,-2.5063,-2.5101,-2.5125,-2.5184,-2.525,-2.5273,-2.5274,-2.5303,-2.5332,-2.5341,-2.5361,-2.536,-2.5369,-2.536,-2.5378,-2.5387,-2.5406,-2.5387,-2.5388,-2.5332,-2.5399,-2.5476,-2.5976,-2.6073,-2.6497,-2.7305,-2.7826,-2.8242,-2.8849,-2.958,-3.0261,-3.0548,-3.0634,-3.0642,-3.0642,-3.0642,-3.0649,-3.0668,-3.0661,-3.0661,-3.0668,-3.0668,-3.0649,-3.0656,-3.0656,-3.0656,-3.0644,-3.0634,-3.0602,-3.0567,-3.0549,-3.0577,-3.0586,-3.0625,-3.079,-3.1099,-3.1301,-3.162,-3.251,-3.3063,-3.3702,-3.4371,-3.4846,-3.5253,-3.5582,-3.5689,-3.5708,-3.5706,-3.5708,-3.5543,-3.5504,-3.5398,-3.4739,-3.4079,-3.3343,-3.2645,-3.2295,-3.1849,-3.1364,-3.0964,-3.0648,-3.0496,-3.0292,-3.0273,-3.0254,-3.0228,-3.0221,-3.0194,-3.0152,-3.0138,-3.018,-3.0274,-3.0449,-3.0937,-3.1653,-3.2156,-3.2374,-3.2514,-3.2901,-3.3523,-3.3972,-3.4381,-3.4494,-3.4586,-3.4604,-3.4645,-2.4846,-2.485,-2.4903,-2.4964,-2.5004,-2.5031,-2.5044,-2.5095,-2.5114,-2.5163,-2.5203,-2.5236,-2.5282,-2.5313,-2.5332,-2.534,-2.5395,-2.5423,-2.5423,-2.5432,-2.5421,-2.5429,-2.5429,-2.5418,-2.5426,-2.5421,-2.5437,-2.5603,-2.5796,-2.5846,-2.6127,-2.6697,-2.6901,-2.745,-2.8184,-2.8743,-2.9168,-2.9685,-3.025,-3.061,-3.0703,-3.0723,-3.073,-3.0737,-3.0737,-3.0737,-3.0717,-3.0717,-3.0717,-3.0717,-3.0724,-3.0724,-3.073,-3.0736,-3.0716,-3.0722,-3.071,-3.0698,-3.0664,-3.0649,-3.0661,-3.0688,-3.0754,-3.0987,-3.1705,-3.1945,-3.2485,-3.3412,-3.3961,-3.4428,-3.4909,-3.5426,-3.5621,-3.5745,-3.5811,-3.5826,-3.5833,-3.5818,-3.5803,-3.5737,-3.5679,-3.5737,-3.5091,-3.4417,-3.3847,-3.3393,-3.2832,-3.2164,-3.1544,-3.102,-3.064,-3.0425,-3.0383,-3.0352,-3.0348,-3.0323,-3.0299,-3.026,-3.0247,-3.0483,-3.0691,-3.1078,-3.1585,-3.2383,-3.3264,-3.3655,-3.3761,-3.3952,-3.4131,-3.4434,-3.4699,-3.4774,-3.4831,-3.4849,-3.4846,-2.4977,-2.4996,-2.4977,-2.5004,-2.4993,-2.5076,-2.5089,-2.5101,-2.5175,-2.5203,-2.5228,-2.5312,-2.537,-2.5379,-2.5387,-2.5393,-2.5401,-2.5476,-2.5484,-2.5492,-2.548,-2.5488,-2.5495,-2.549,-2.5485,-2.5498,-2.5626,-2.6072,-2.6563,-2.6827,-2.6784,-2.679,-2.7649,-2.8384,-2.8973,-2.9416,-2.9838,-3.0246,-3.0644,-3.0704,-3.0737,-3.0761,-3.0778,-3.0784,-3.0789,-3.0794,-3.0794,-3.0774,-3.0774,-3.0769,-3.0769,-3.0769,-3.0774,-3.0774,-3.0779,-3.0779,-3.0779,-3.0769,-3.0745,-3.071,-3.0691,-3.071,-3.0903,-3.1293,-3.2123,-3.2104,-3.283,-3.4224,-3.4737,-3.5035,-3.5482,-3.5864,-3.5891,-3.5891,-3.5891,-3.5891,-3.5897,-3.5878,-3.5891,-3.5885,-3.5898,-3.5892,-3.5885,-3.5178,-3.4846,-3.4396,-3.3591,-3.2934,-3.1919,-3.1303,-3.0848,-3.0598,-3.052,-3.0481,-3.0469,-3.0447,-3.0383,-3.0359,-3.0336,-3.0803,-3.1296,-3.1751,-3.2211,-3.3133,-3.3997,-3.4501,-3.4908,-3.4818,-3.4792,-3.4893,-3.4992,-3.4981,-3.4982,-3.4982,-3.4984,-2.5012,-2.5051,-2.507,-2.5082,-2.5057,-2.5132,-2.5156,-2.5149,-2.5206,-2.5231,-2.5292,-2.5351,-2.5397,-2.5443,-2.544,-2.5464,-2.5461,-2.5464,-2.5568,-2.5536,-2.5524,-2.555,-2.5531,-2.5615,-2.5544,-2.5693,-2.6022,-2.6371,-2.6773,-2.7704,-2.83,-2.8531,-2.8702,-2.9306,-2.9857,-3.0056,-3.0365,-3.0522,-3.0724,-3.0761,-3.0773,-3.0774,-3.0789,-3.0789,-3.0802,-3.0786,-3.0786,-3.0786,-3.0786,-3.0806,-3.0806,-3.0806,-3.0806,-3.0806,-3.0806,-3.0806,-3.0806,-3.0806,-3.0802,-3.0774,-3.0759,-3.09,-3.1281,-3.1914,-3.2694,-3.3253,-3.4144,-3.5046,-3.5393,-3.5617,-3.5812,-3.5958,-3.5958,-3.5953,-3.5953,-3.5953,-3.5953,-3.5938,-3.5938,-3.5953,-3.5958,-3.5967,-3.5958,-3.589,-3.5641,-3.5352,-3.4497,-3.3626,-3.2633,-3.1678,-3.1235,-3.0812,-3.0701,-3.0558,-3.053,-3.0501,-3.046,-3.0469,-3.0497,-3.1122,-3.1765,-3.2351,-3.2921,-3.3872,-3.4604,-3.5027,-3.5284,-3.5391,-3.5355,-3.5228,-3.5165,-3.5122,-3.5124,-3.5141,-3.5129,-2.5044,-2.512,-2.5404,-2.5347,-2.5149,-2.5172,-2.5206,-2.5228,-2.5231,-2.5456,-2.5698,-2.5783,-2.5992,-2.6141,-2.6281,-2.6343,-2.6442,-2.6417,-2.6372,-2.6437,-2.6502,-2.6346,-2.6346,-2.6411,-2.6598,-2.6482,-2.6812,-2.7304,-2.7861,-2.8903,-2.9363,-2.9616,-2.9823,-3.0198,-3.0423,-3.0671,-3.0717,-3.0736,-3.0773,-3.0794,-3.0799,-3.0802,-3.079,-3.0794,-3.0801,-3.0785,-3.0804,-3.0824,-3.0843,-3.0843,-3.0843,-3.0824,-3.0824,-3.0827,-3.0824,-3.0824,-3.0824,-3.0824,-3.0837,-3.0825,-3.0793,-3.0871,-3.1566,-3.2409,-3.3345,-3.4207,-3.4862,-3.5717,-3.5962,-3.6007,-3.6007,-3.5996,-3.5996,-3.5994,-3.5991,-3.5991,-3.5988,-3.5988,-3.5988,-3.6004,-3.5997,-3.5994,-3.5986,-3.5994,-3.5888,-3.5558,-3.4845,-3.4121,-3.3485,-3.2532,-3.1669,-3.1246,-3.0874,-3.0715,-3.0574,-3.0565,-3.0595,-3.0741,-3.0906,-3.1545,-3.2193,-3.283,-3.3652,-3.4631,-3.524,-3.5527,-3.5601,-3.557,-3.5496,-3.5407,-3.5364,-3.5315,-3.533,-3.533,-3.5304,-2.5158,-2.5227,-2.6113,-2.6002,-2.5398,-2.5244,-2.5354,-2.5559,-2.5522,-2.5938,-2.665,-2.6741,-2.7141,-2.7633,-2.7625,-2.7607,-2.7647,-2.7738,-2.7789,-2.7723,-2.7626,-2.7904,-2.7904,-2.7812,-2.7579,-2.8037,-2.8188,-2.8513,-2.9199,-2.9549,-3.0003,-3.0378,-3.0495,-3.0611,-3.0703,-3.0697,-3.0728,-3.0784,-3.0799,-3.0789,-3.0802,-3.0798,-3.0785,-3.0788,-3.0813,-3.0816,-3.0836,-3.0855,-3.0877,-3.0882,-3.0901,-3.0882,-3.0862,-3.086,-3.088,-3.088,-3.0882,-3.088,-3.088,-3.0846,-3.0869,-3.1081,-3.1909,-3.2714,-3.3459,-3.4285,-3.511,-3.5948,-3.601,-3.6013,-3.6015,-3.6015,-3.6014,-3.6013,-3.6012,-3.601,-3.6009,-3.601,-3.601,-3.6009,-3.6009,-3.6007,-3.6016,-3.601,-3.5968,-3.5642,-3.5052,-3.453,-3.4091,-3.3476,-3.2577,-3.1715,-3.1274,-3.0944,-3.0794,-3.071,-3.0741,-3.0897,-3.129,-3.1898,-3.2684,-3.347,-3.436,-3.5338,-3.5591,-3.5679,-3.5689,-3.5699,-3.5626,-3.5577,-3.5572,-3.5528,-3.5547,-3.5515,-3.5449,-2.6778,-2.6847,-2.7163,-2.716,-2.6921,-2.6921,-2.6932,-2.6954,-2.7016,-2.7229,-2.7497,-2.7608,-2.7729,-2.8043,-2.8209,-2.823,-2.8191,-2.8164,-2.8196,-2.8251,-2.8335,-2.8193,-2.8257,-2.8398,-2.832,-2.8373,-2.8685,-2.9157,-2.943,-2.9961,-3.0375,-3.073,-3.0784,-3.0789,-3.0784,-3.0765,-3.0789,-3.0802,-3.0786,-3.079,-3.0794,-3.0804,-3.0791,-3.0791,-3.0838,-3.086,-3.0862,-3.0882,-3.0905,-3.0913,-3.0896,-3.0877,-3.0857,-3.0837,-3.0836,-3.0838,-3.0819,-3.082,-3.082,-3.084,-3.1113,-3.1679,-3.2399,-3.3241,-3.418,-3.5059,-3.5644,-3.5878,-3.5995,-3.6012,-3.6007,-3.6013,-3.6015,-3.6012,-3.6012,-3.6015,-3.6015,-3.6015,-3.6015,-3.6015,-3.6016,-3.6009,-3.6016,-3.6005,-3.5986,-3.5982,-3.55,-3.5065,-3.4647,-3.4306,-3.3629,-3.2465,-3.1753,-3.132,-3.1037,-3.0826,-3.0716,-3.0808,-3.1391,-3.2159,-3.3025,-3.3973,-3.4769,-3.5562,-3.5674,-3.5773,-3.5771,-3.5779,-3.5765,-3.5728,-3.5708,-3.5667,-3.5635,-3.5612,-3.5577,-2.7644,-2.7745,-2.8042,-2.818,-2.8192,-2.7931,-2.78,-2.7832,-2.7913,-2.8106,-2.8393,-2.8457,-2.8741,-2.8946,-2.9006,-2.9033,-2.9051,-2.9107,-2.9118,-2.9095,-2.9119,-2.924,-2.9221,-2.9046,-2.9323,-2.9255,-2.9528,-2.9981,-3.0048,-3.0535,-3.0754,-3.0763,-3.079,-3.0794,-3.0794,-3.079,-3.0786,-3.0794,-3.0798,-3.082,-3.0824,-3.0852,-3.0855,-3.0841,-3.0864,-3.0907,-3.0909,-3.0912,-3.0913,-3.0898,-3.0858,-3.0836,-3.0797,-3.0798,-3.0798,-3.0795,-3.0788,-3.0786,-3.0801,-3.124,-3.1694,-3.2508,-3.3137,-3.3781,-3.4615,-3.5391,-3.5782,-3.5994,-3.5999,-3.6013,-3.6007,-3.6001,-3.6001,-3.6013,-3.5999,-3.6007,-3.6009,-3.6007,-3.6005,-3.6007,-3.6011,-3.6015,-3.6007,-3.6012,-3.5996,-3.6013,-3.597,-3.5567,-3.5178,-3.4835,-3.4378,-3.3267,-3.2214,-3.166,-3.1203,-3.0828,-3.074,-3.0735,-3.1551,-3.2565,-3.3362,-3.4308,-3.5055,-3.5684,-3.5788,-3.5872,-3.5866,-3.5859,-3.5859,-3.5845,-3.5818,-3.5779,-3.5747,-3.5708,-3.5669,-2.7784,-2.7917,-2.8687,-2.9063,-2.8998,-2.8411,-2.806,-2.8048,-2.8115,-2.8625,-2.933,-2.9396,-2.9737,-3.0457,-3.0587,-3.0516,-3.0486,-3.0536,-3.0511,-3.0525,-3.0314,-3.0459,-3.0501,-3.0482,-3.0303,-3.0521,-3.0657,-3.0513,-3.0739,-3.0751,-3.0778,-3.0788,-3.0788,-3.0791,-3.0788,-3.0804,-3.082,-3.0827,-3.083,-3.0855,-3.088,-3.0901,-3.0888,-3.0892,-3.0914,-3.0917,-3.0918,-3.0898,-3.0898,-3.0875,-3.0825,-3.081,-3.0801,-3.0798,-3.0798,-3.0794,-3.0798,-3.0981,-3.1094,-3.1666,-3.2504,-3.3267,-3.3462,-3.3988,-3.4714,-3.5568,-3.586,-3.5977,-3.5958,-3.5977,-3.5977,-3.5986,-3.599,-3.5994,-3.5985,-3.5988,-3.5988,-3.5988,-3.6007,-3.601,-3.6013,-3.6007,-3.6013,-3.6011,-3.6013,-3.6014,-3.6015,-3.5956,-3.5576,-3.5259,-3.4729,-3.3883,-3.2869,-3.201,-3.1539,-3.1184,-3.0852,-3.0864,-3.2175,-3.3195,-3.3949,-3.4577,-3.5373,-3.588,-3.5942,-3.5981,-3.5948,-3.5948,-3.5973,-3.5948,-3.5903,-3.5859,-3.5811,-3.5795,-3.5771,-2.9493,-2.959,-2.9813,-2.9965,-3.0013,-2.9809,-2.9745,-2.9767,-2.9825,-3.0064,-3.0288,-3.0319,-3.0445,-3.0711,-3.0685,-3.0748,-3.0784,-3.0799,-3.0769,-3.0802,-3.0794,-3.0798,-3.0801,-3.0801,-3.0801,-3.0801,-3.0801,-3.0801,-3.0778,-3.0801,-3.0785,-3.0791,-3.0794,-3.0796,-3.0816,-3.0852,-3.0855,-3.0858,-3.0862,-3.0889,-3.0892,-3.0915,-3.0917,-3.0918,-3.0898,-3.0897,-3.0896,-3.0866,-3.0845,-3.0819,-3.0804,-3.079,-3.0798,-3.0794,-3.0806,-3.0877,-3.1281,-3.1753,-3.1796,-3.2466,-3.3303,-3.3971,-3.4211,-3.4742,-3.5352,-3.5722,-3.593,-3.5922,-3.5922,-3.5922,-3.5928,-3.5938,-3.5943,-3.5948,-3.5938,-3.5947,-3.5947,-3.5974,-3.599,-3.6017,-3.6001,-3.6007,-3.6018,-3.6021,-3.6005,-3.6003,-3.6007,-3.6012,-3.5937,-3.5618,-3.5079,-3.4256,-3.3766,-3.2968,-3.2204,-3.1772,-3.1323,-3.1223,-3.2472,-3.3431,-3.3827,-3.4493,-3.555,-3.6018,-3.6018,-3.6013,-3.6004,-3.6007,-3.601,-3.6013,-3.5973,-3.5924,-3.5889,-3.5872,-3.5866,-3.0247,-3.0305,-3.0305,-3.0343,-3.0414,-3.0509,-3.053,-3.055,-3.0577,-3.064,-3.0695,-3.0671,-3.0717,-3.0755,-3.0748,-3.0778,-3.0794,-3.0793,-3.0782,-3.079,-3.0801,-3.0788,-3.0788,-3.0788,-3.0788,-3.0788,-3.0788,-3.0791,-3.0788,-3.0788,-3.0794,-3.0796,-3.0796,-3.0819,-3.0838,-3.0877,-3.0897,-3.0903,-3.0911,-3.0917,-3.0918,-3.0917,-3.0915,-3.0914,-3.0889,-3.0868,-3.0866,-3.0827,-3.0801,-3.0801,-3.079,-3.0782,-3.0899,-3.1047,-3.1281,-3.1468,-3.209,-3.2448,-3.2629,-3.3276,-3.3976,-3.4482,-3.4843,-3.5271,-3.5527,-3.5806,-3.5846,-3.5846,-3.5853,-3.5866,-3.5879,-3.5891,-3.5891,-3.5891,-3.5883,-3.5894,-3.5924,-3.5953,-3.5981,-3.6009,-3.6017,-3.6004,-3.6007,-3.601,-3.601,-3.6016,-3.6016,-3.6021,-3.6011,-3.5898,-3.5349,-3.4604,-3.4389,-3.4017,-3.3236,-3.2416,-3.1966,-3.183,-3.2572,-3.3374,-3.3708,-3.4549,-3.572,-3.6013,-3.6013,-3.6011,-3.601,-3.6009,-3.6007,-3.6018,-3.6016,-3.5977,-3.5946,-3.5942,-3.5938,-3.0222,-3.0304,-3.0304,-3.0352,-3.0411,-3.055,-3.0597,-3.0604,-3.0621,-3.0653,-3.069,-3.0691,-3.0736,-3.0778,-3.0784,-3.0789,-3.0784,-3.0802,-3.0794,-3.0801,-3.0794,-3.0796,-3.0799,-3.0799,-3.0796,-3.0799,-3.0799,-3.0796,-3.0799,-3.0799,-3.0819,-3.0801,-3.0819,-3.0841,-3.088,-3.0901,-3.0921,-3.0921,-3.0914,-3.0918,-3.0912,-3.0923,-3.0919,-3.0899,-3.0852,-3.0807,-3.0807,-3.0798,-3.079,-3.079,-3.0786,-3.0789,-3.1203,-3.1493,-3.18,-3.2343,-3.2919,-3.3208,-3.3522,-3.4087,-3.4428,-3.4893,-3.5262,-3.5504,-3.5678,-3.5771,-3.5784,-3.5799,-3.5795,-3.5795,-3.5803,-3.5811,-3.5818,-3.5845,-3.5859,-3.5859,-3.5872,-3.5908,-3.5948,-3.5977,-3.599,-3.5994,-3.602,-3.6004,-3.601,-3.601,-3.601,-3.6013,-3.6018,-3.601,-3.5642,-3.5039,-3.5,-3.4765,-3.3945,-3.3183,-3.2636,-3.2676,-3.3164,-3.3515,-3.4002,-3.4901,-3.5918,-3.6014,-3.6012,-3.6014,-3.6015,-3.6015,-3.5996,-3.6016,-3.6016,-3.6015,-3.5995,-3.5984,-3.5988,-3.0292,-3.0304,-3.0352,-3.0441,-3.0549,-3.0578,-3.0615,-3.0665,-3.0688,-3.069,-3.0711,-3.0761,-3.0778,-3.0784,-3.0794,-3.0799,-3.0789,-3.0786,-3.0798,-3.0785,-3.0796,-3.0801,-3.0801,-3.0801,-3.0801,-3.0801,-3.0801,-3.0801,-3.0801,-3.0841,-3.086,-3.088,-3.088,-3.0882,-3.0903,-3.0907,-3.0909,-3.0907,-3.0898,-3.0897,-3.0895,-3.0905,-3.0919,-3.0877,-3.0833,-3.0791,-3.0788,-3.0801,-3.0786,-3.0793,-3.0799,-3.1109,-3.1689,-3.1935,-3.2334,-3.2904,-3.3652,-3.4022,-3.4304,-3.4749,-3.5116,-3.5271,-3.5512,-3.557,-3.5649,-3.5708,-3.5736,-3.5736,-3.5736,-3.5727,-3.5727,-3.5745,-3.5773,-3.5791,-3.5826,-3.583,-3.5833,-3.5859,-3.5908,-3.5943,-3.5977,-3.5986,-3.5994,-3.602,-3.6007,-3.601,-3.601,-3.6013,-3.6013,-3.6021,-3.6021,-3.5595,-3.571,-3.5378,-3.4617,-3.3992,-3.3469,-3.3408,-3.3799,-3.4107,-3.4354,-3.5157,-3.5977,-3.601,-3.6004,-3.5994,-3.5977,-3.5994,-3.5994,-3.6001,-3.5984,-3.5986,-3.6005,-3.5994,-3.5996,-3.0316,-3.0328,-3.0409,-3.0501,-3.0597,-3.0643,-3.0676,-3.0695,-3.0704,-3.0724,-3.0761,-3.0778,-3.0789,-3.0789,-3.0799,-3.0799,-3.0784,-3.079,-3.0798,-3.0785,-3.0794,-3.0799,-3.0801,-3.0801,-3.0801,-3.0801,-3.0821,-3.0841,-3.0841,-3.088,-3.0899,-3.0925,-3.0905,-3.0909,-3.0911,-3.0915,-3.0917,-3.0916,-3.0897,-3.0873,-3.0873,-3.0884,-3.0877,-3.0858,-3.0813,-3.0788,-3.0794,-3.0782,-3.0784,-3.0928,-3.1099,-3.1417,-3.2089,-3.2765,-3.3294,-3.3819,-3.44,-3.4941,-3.5044,-3.5253,-3.5601,-3.5581,-3.5601,-3.5601,-3.5612,-3.5676,-3.5669,-3.5659,-3.5659,-3.5659,-3.5689,-3.5699,-3.5728,-3.5747,-3.5793,-3.5799,-3.583,-3.5866,-3.5891,-3.5914,-3.5948,-3.5973,-3.5981,-3.6013,-3.602,-3.6004,-3.6007,-3.601,-3.601,-3.601,-3.6007,-3.6007,-3.6007,-3.5968,-3.5444,-3.4839,-3.4293,-3.4348,-3.4462,-3.4736,-3.5045,-3.5513,-3.5953,-3.5948,-3.5948,-3.5958,-3.5938,-3.5953,-3.5942,-3.5955,-3.5958,-3.5958,-3.5981,-3.6004,-3.6005,-3.0348,-3.0433,-3.049,-3.054,-3.0597,-3.0676,-3.0695,-3.0697,-3.071,-3.0753,-3.0803,-3.0784,-3.0794,-3.0799,-3.0799,-3.0799,-3.0789,-3.079,-3.0798,-3.0785,-3.0794,-3.0799,-3.0801,-3.0801,-3.0801,-3.0841,-3.086,-3.0882,-3.0903,-3.0921,-3.0923,-3.0912,-3.0915,-3.0916,-3.0918,-3.0918,-3.0917,-3.0895,-3.0864,-3.083,-3.0846,-3.0849,-3.0849,-3.0824,-3.0801,-3.0786,-3.0784,-3.0784,-3.0767,-3.1236,-3.1685,-3.2197,-3.2704,-3.3519,-3.4089,-3.4618,-3.4982,-3.5345,-3.5444,-3.5419,-3.5515,-3.5547,-3.5566,-3.5566,-3.5566,-3.5572,-3.5581,-3.5574,-3.5585,-3.5607,-3.5618,-3.5648,-3.5678,-3.5708,-3.5766,-3.5793,-3.5826,-3.5845,-3.5872,-3.5878,-3.5908,-3.5938,-3.5953,-3.5986,-3.6013,-3.6001,-3.6004,-3.6007,-3.601,-3.6007,-3.6004,-3.6001,-3.5978,-3.5919,-3.588,-3.5525,-3.4936,-3.4995,-3.5108,-3.5381,-3.563,-3.5797,-3.5897,-3.5891,-3.5872,-3.5891,-3.5891,-3.5897,-3.5889,-3.5899,-3.5924,-3.5934,-3.5947,-3.5955,-3.5981,-3.0414,-3.0488,-3.055,-3.0577,-3.0621,-3.0668,-3.0697,-3.0698,-3.0748,-3.0784,-3.0789,-3.0794,-3.0799,-3.0799,-3.0799,-3.0799,-3.0784,-3.0786,-3.0798,-3.0801,-3.0794,-3.0799,-3.0801,-3.0801,-3.0841,-3.088,-3.0899,-3.0903,-3.0905,-3.0921,-3.0921,-3.0905,-3.0917,-3.0918,-3.0918,-3.0915,-3.0888,-3.0901,-3.0997,-3.1006,-3.0938,-3.0895,-3.0806,-3.0802,-3.0802,-3.0789,-3.0794,-3.0734,-3.1151,-3.1732,-3.2423,-3.3084,-3.3615,-3.4135,-3.4639,-3.5007,-3.5406,-3.5386,-3.5435,-3.5407,-3.5407,-3.5393,-3.5393,-3.5374,-3.5407,-3.5441,-3.5463,-3.5457,-3.5483,-3.5558,-3.5589,-3.5601,-3.5631,-3.5697,-3.5747,-3.5794,-3.5801,-3.5807,-3.5818,-3.5846,-3.5866,-3.5897,-3.5914,-3.5953,-3.599,-3.5994,-3.5997,-3.6001,-3.6001,-3.602,-3.6017,-3.597,-3.5947,-3.5966,-3.5966,-3.5899,-3.5524,-3.5597,-3.5607,-3.568,-3.5722,-3.5756,-3.5813,-3.5818,-3.583,-3.5823,-3.583,-3.5826,-3.584,-3.5853,-3.5891,-3.5903,-3.5919,-3.5919,-3.5947]}]]